[[{"header":{"parameterUnit":"m.s-1","parameterCategory":1,"la1":31.0,"la2":29.5877,"lo1":-88.7671,"lo2":-86.6584,"dy":0.0162,"dx":0.0185,"nx":115,"ny":88,"refTime":"2024-10-08T12:00:00:Z","depth":0,"parameterNumber":2,"parameterNumberName":"U-component_of_WINDS"},"data":[0.0,0.0,0.0,0.0,0.0,0.0,0.0,0.0,0.0,0.0,0.0,0.0,0.0,0.0,0.0,0.0,0.0,0.0,0.0,0.0,0.0,0.0,0.0,0.0,0.0,0.0,0.0,0.0,0.0,0.0,0.0,0.0,0.0,0.0,0.0,0.0,0.0,0.0,0.0,0.0,0.0,0.0,0.0,0.0,0.0,0.0,0.0,0.0,0.0,0.0,0.0,0.0,0.0,0.0,0.0,0.0,0.0,0.0,0.0,0.0,0.0,0.0,0.0,0.0,0.0,0.0,0.0,0.0,0.0,0.0,0.0,0.0,0.0,0.0,0.0,0.0,0.0,0.0,0.0,0.0,0.0,0.0,0.0,0.0,0.0,0.0,0.0,0.0,0.0,0.0,0.0,0.0,0.0,0.0,0.0,0.0,0.0,0.0,0.0,0.0,0.0,0.0,0.0,0.0,0.0,0.0,0.0,0.0,0.0,0.0,0.0,0.0,0.0,0.0,0.0,0.0,0.0,0.0,0.0,0.0,0.0,0.0,0.0,0.0,0.0,0.0,0.0,0.0,0.0,0.0,0.0,0.0,0.0,0.0,0.0,0.0,0.0,0.0,0.0,0.0,0.0,0.0,0.0,0.0,0.0,0.0,0.0,0.0,0.0,0.0,0.0,0.0,0.0,0.0,0.0,0.0,0.0,0.0,0.0,0.0,0.0,0.0,0.0,0.0,0.0,0.0,0.0,0.0,0.0,0.0,0.0,0.0,0.0,0.0,0.0,0.0,0.0,0.0,0.0,0.0,0.0,0.0,0.0,0.0,0.0,0.0,0.0,0.0,0.0,0.0,0.0,0.0,0.0,0.0,0.0,0.0,0.0,0.0,0.0,0.0,0.0,0.0,0.0,0.0,0.0,0.0,0.0,0.0,0.0,0.0,0.0,0.0,0.0,0.0,0.0,0.0,0.0,0.0,0.0,0.0,0.0,0.0,0.0,0.0,0.0,0.0,0.0,0.0,0.0,0.0,0.0,0.0,0.0,0.0,0.0,0.0,0.0,0.0,0.0,0.0,0.0,0.0,0.0,0.0,0.0,0.0,0.0,0.0,0.0,0.0,0.0,0.0,0.0,0.0,0.0,0.0,0.0,0.0,0.0,0.0,0.0,0.0,0.0,0.0,0.0,0.0,0.0,0.0,0.0,0.0,0.0,0.0,0.0,0.0,0.0,0.0,0.0,0.0,0.0,0.0,0.0,0.0,0.0,0.0,0.0,0.0,0.0,0.0,0.0,0.0,0.0,0.0,0.0,0.0,0.0,0.0,0.0,0.0,0.0,0.0,0.0,0.0,0.0,0.0,0.0,0.0,0.0,0.0,0.0,0.0,0.0,0.0,0.0,0.0,0.0,0.0,0.0,0.0,0.0,0.0,0.0,0.0,0.0,0.0,0.0,0.0,0.0,0.0,0.0,0.0,0.0,0.0,0.0,0.0,0.0,0.0,0.0,0.0,0.0,0.0,0.0,0.0,0.0,0.0,0.0,0.0,0.0,0.0,0.0,0.0,0.0,0.0,0.0,0.0,0.0,0.0,0.0,0.0,0.0,0.0,0.0,0.0,0.0,0.0,0.0,0.0,0.0,0.0,0.0,0.0,0.0,0.0,0.0,0.0,0.0,0.0,0.0,0.0,0.0,0.0,0.0,0.0,0.0,0.0,0.0,0.0,0.0,0.0,0.0,0.0,0.0,0.0,0.0,0.0,0.0,0.0,0.0,0.0,0.0,0.0,0.0,0.0,0.0,0.0,0.0,0.0,0.0,0.0,0.0,0.0,0.0,0.0,0.0,0.0,0.0,0.0,0.0,0.0,0.0,0.0,0.0,0.0,0.0,0.0,0.0,0.0,0.0,0.0,0.0,0.0,0.0,0.0,0.0,0.0,0.0,0.0,0.0,0.0,0.0,0.0,0.0,0.0,0.0,0.0,0.0,0.0,0.0,0.0,0.0,0.0,0.0,0.0,0.0,0.0,0.0,0.0,0.0,0.0,0.0,0.0,0.0,0.0,0.0,0.0,0.0,0.0,0.0,0.0,0.0,0.0,0.0,0.0,0.0,0.0,0.0,0.0,0.0,0.0,0.0,0.0,0.0,0.0,0.0,0.0,0.0,0.0,0.0,0.0,0.0,0.0,0.0,0.0,0.0,0.0,0.0,0.0,0.0,0.0,0.0,0.0,0.0,0.0,0.0,0.0,0.0,0.0,0.0,0.0,0.0,0.0,0.0,0.0,0.0,0.0,0.0,0.0,0.0,0.0,0.0,0.0,0.0,0.0,0.0,0.0,0.0,0.0,0.0,0.0,0.0,0.0,0.0,0.0,0.0,0.0,0.0,0.0,0.0,0.0,0.0,0.0,0.0,0.0,0.0,0.0,0.0,0.0,0.0,0.0,0.0,0.0,0.0,0.0,0.0,0.0,0.0,0.0,0.0,0.0,0.0,0.0,0.0,0.0,0.0,0.0,0.0,0.0,0.0,0.0,0.0,0.0,0.0,0.0,0.0,0.0,0.0,0.0,0.0,0.0,0.0,0.0,0.0,0.0,0.0,0.0,0.0,0.0,0.0,0.0,0.0,0.0,0.0,0.0,0.0,0.0,0.0,0.0,0.0,0.0,0.0,0.0,0.0,0.0,0.0,0.0,0.0,0.0,0.0,0.0,0.0,0.0,0.0,0.0,0.0,0.0,0.0,0.0,0.0,0.0,0.0,0.0,0.0,0.0,0.0,0.0,0.0,0.0,0.0,0.0,0.0,0.0,0.0,0.0,0.0,0.0,0.0,0.0,0.0,0.0,0.0,0.0,0.0,0.0,0.0,0.0,0.0,0.0,0.0,0.0,0.0,0.0,0.0,0.0,0.0,0.0,0.0,0.0,0.0,0.0,0.0,0.0,0.0,0.0,0.0,0.0,0.0,0.0,0.0,0.0,0.0,0.0,0.0,0.0,0.0,0.0,0.0,0.0,0.0,0.0,0.0,0.0,0.0,0.0,0.0,0.0,0.0,0.0,0.0,0.0,0.0,0.0,0.0,0.0,0.0,0.0,0.0,0.0,0.0,0.0,0.0,0.0,0.0,0.0,0.0,0.0,0.0,0.0,0.0,0.0,0.0,0.0,0.0,0.0,0.0,0.0,0.0,0.0,0.0,0.0,0.0,0.0,0.0,0.0,0.0,0.0,0.0,0.0,0.0,0.0,0.0,0.0,0.0,0.0,0.0,0.0,0.0,0.0,0.0,0.0,0.0,0.0,0.0,0.0,0.0,0.0,0.0,0.0,0.0,0.0,0.0,0.0,0.0,0.0,0.0,0.0,0.0,0.0,0.0,0.0,0.0,0.0,0.0,0.0,0.0,0.0,0.0,0.0,0.0,0.0,0.0,0.0,0.0,0.0,0.0,0.0,0.0,0.0,0.0,0.0,0.0,0.0,0.0,0.0,0.0,0.0,0.0,0.0,0.0,0.0,0.0,0.0,0.0,0.0,0.0,0.0,0.0,0.0,0.0,0.0,0.0,0.0,0.0,0.0,0.0,0.0,0.0,0.0,0.0,0.0,0.0,0.0,0.0,0.0,0.0,0.0,0.0,0.0,0.0,0.0,0.0,0.0,0.0,0.0,0.0,0.0,0.0,0.0,0.0,0.0,0.0,0.0,0.0,0.0,0.0,0.0,0.0,0.0,0.0,0.0,0.0,0.0,0.0,0.0,0.0,0.0,0.0,0.0,0.0,0.0,0.0,0.0,0.0,0.0,0.0,0.0,0.0,0.0,0.0,0.0,0.0,0.0,0.0,0.0,0.0,0.0,0.0,0.0,0.0,0.0,0.0,0.0,0.0,0.0,0.0,0.0,0.0,0.0,0.0,0.0,0.0,0.0,0.0,0.0,0.0,0.0,0.0,0.0,0.0,0.0,0.0,0.0,0.0,0.0,0.0,0.0,0.0,0.0,0.0,0.0,0.0,0.0,0.0,0.0,0.0,0.0,0.0,0.0,0.0,0.0,0.0,0.0,0.0,0.0,0.0,0.0,0.0,0.0,0.0,0.0,0.0,0.0,0.0,0.0,0.0,0.0,0.0,0.0,0.0,0.0,0.0,0.0,0.0,0.0,0.0,0.0,0.0,0.0,0.0,0.0,0.0,0.0,0.0,0.0,0.0,0.0,0.0,0.0,0.0,0.0,0.0,0.0,0.0,0.0,0.0,0.0,0.0,0.0,0.0,0.0,0.0,0.0,0.0,0.0,0.0,0.0,0.0,0.0,3.7342,0.0,0.0,0.0,0.0,0.0,0.0,0.0,0.0,0.0,0.0,0.0,0.0,0.0,0.0,0.0,0.0,0.0,0.0,0.0,0.0,0.0,0.0,0.0,0.0,0.0,0.0,0.0,0.0,0.0,0.0,0.0,0.0,0.0,0.0,0.0,0.0,0.0,0.0,0.0,0.0,0.0,0.0,0.0,0.0,0.0,0.0,0.0,0.0,0.0,0.0,0.0,0.0,0.0,0.0,0.0,0.0,0.0,0.0,0.0,0.0,0.0,0.0,0.0,0.0,0.0,0.0,0.0,0.0,0.0,0.0,0.0,0.0,0.0,0.0,0.0,0.0,0.0,0.0,0.0,0.0,0.0,0.0,0.0,0.0,0.0,0.0,0.0,0.0,0.0,0.0,0.0,0.0,0.0,0.0,0.0,0.0,0.0,0.0,0.0,0.0,0.0,0.0,0.0,0.0,0.0,0.0,0.0,0.0,0.0,0.0,4.035,4.0304,3.8659,3.7734,3.7677,0.0,0.0,0.0,0.0,0.0,0.0,0.0,0.0,0.0,0.0,0.0,0.0,0.0,0.0,0.0,0.0,0.0,0.0,0.0,0.0,0.0,0.0,0.0,0.0,0.0,0.0,0.0,0.0,0.0,0.0,0.0,0.0,0.0,0.0,0.0,0.0,0.0,0.0,0.0,0.0,0.0,0.0,0.0,0.0,0.0,0.0,0.0,0.0,0.0,0.0,0.0,0.0,0.0,0.0,0.0,0.0,0.0,0.0,0.0,0.0,0.0,0.0,0.0,0.0,0.0,0.0,0.0,0.0,0.0,0.0,0.0,0.0,0.0,0.0,0.0,0.0,0.0,0.0,0.0,0.0,0.0,0.0,0.0,0.0,0.0,0.0,0.0,0.0,0.0,0.0,0.0,0.0,0.0,0.0,0.0,0.0,0.0,0.0,0.0,0.0,0.0,0.0,0.0,0.0,0.0,0.0,0.0,0.0,0.0,0.0,0.0,0.0,3.9012,3.8096,3.7713,0.0,0.0,0.0,0.0,0.0,0.0,0.0,0.0,0.0,0.0,0.0,0.0,0.0,0.0,0.0,0.0,0.0,0.0,0.0,0.0,0.0,0.0,0.0,0.0,0.0,0.0,0.0,0.0,0.0,0.0,0.0,0.0,0.0,0.0,0.0,0.0,0.0,0.0,0.0,0.0,0.0,0.0,0.0,0.0,0.0,0.0,0.0,0.0,0.0,0.0,0.0,0.0,0.0,0.0,0.0,0.0,0.0,0.0,0.0,0.0,0.0,0.0,0.0,0.0,0.0,0.0,0.0,0.0,0.0,0.0,0.0,0.0,0.0,0.0,0.0,0.0,0.0,0.0,0.0,0.0,0.0,0.0,0.0,0.0,0.0,0.0,0.0,0.0,0.0,0.0,0.0,0.0,0.0,0.0,0.0,0.0,0.0,0.0,0.0,0.0,0.0,0.0,0.0,0.0,0.0,0.0,0.0,0.0,0.0,0.0,3.9508,4.0264,4.0111,0.0,3.7866,0.0,0.0,0.0,0.0,0.0,0.0,0.0,0.0,0.0,0.0,0.0,0.0,0.0,0.0,0.0,0.0,0.0,0.0,0.0,0.0,0.0,0.0,0.0,0.0,0.0,0.0,0.0,0.0,0.0,0.0,0.0,0.0,0.0,0.0,0.0,0.0,0.0,0.0,0.0,0.0,0.0,0.0,0.0,0.0,0.0,0.0,0.0,0.0,0.0,0.0,0.0,0.0,0.0,0.0,0.0,0.0,0.0,0.0,0.0,0.0,0.0,0.0,0.0,0.0,0.0,0.0,0.0,0.0,0.0,0.0,0.0,0.0,0.0,0.0,0.0,0.0,0.0,0.0,0.0,0.0,0.0,0.0,0.0,0.0,0.0,0.0,0.0,0.0,0.0,0.0,0.0,0.0,0.0,0.0,0.0,0.0,0.0,0.0,0.0,0.0,0.0,0.0,0.0,0.0,0.0,0.0,0.0,0.0,0.0,0.0,3.9924,4.0264,3.9809,3.8738,0.0,0.0,0.0,0.0,0.0,0.0,0.0,0.0,0.0,0.0,0.0,0.0,0.0,0.0,0.0,0.0,0.0,0.0,0.0,0.0,0.0,0.0,0.0,0.0,0.0,0.0,0.0,0.0,0.0,0.0,0.0,0.0,0.0,0.0,0.0,0.0,0.0,0.0,0.0,0.0,0.0,0.0,0.0,0.0,0.0,0.0,0.0,0.0,0.0,0.0,0.0,0.0,0.0,0.0,0.0,0.0,0.0,0.0,0.0,0.0,0.0,0.0,0.0,0.0,0.0,0.0,0.0,0.0,0.0,0.0,0.0,0.0,0.0,0.0,0.0,0.0,0.0,0.0,0.0,0.0,0.0,0.0,0.0,0.0,0.0,0.0,0.0,0.0,0.0,0.0,0.0,0.0,0.0,0.0,0.0,0.0,0.0,0.0,0.0,0.0,0.0,0.0,0.0,0.0,0.0,0.0,0.0,0.0,0.0,0.0,3.9428,4.0154,4.0575,3.9811,3.8454,3.6461,0.0,0.0,0.0,0.0,0.0,0.0,0.0,0.0,0.0,0.0,0.0,0.0,0.0,0.0,0.0,0.0,0.0,0.0,0.0,0.0,0.0,0.0,0.0,0.0,0.0,0.0,0.0,0.0,0.0,0.0,0.0,0.0,0.0,0.0,0.0,0.0,0.0,0.0,0.0,0.0,0.0,0.0,0.0,0.0,0.0,0.0,0.0,0.0,0.0,0.0,0.0,0.0,0.0,0.0,0.0,0.0,0.0,0.0,0.0,0.0,0.0,0.0,0.0,0.0,0.0,0.0,0.0,0.0,0.0,0.0,0.0,0.0,0.0,0.0,0.0,0.0,0.0,0.0,0.0,0.0,0.0,0.0,0.0,0.0,0.0,0.0,0.0,0.0,0.0,0.0,0.0,0.0,0.0,0.0,0.0,0.0,0.0,0.0,0.0,0.0,0.0,0.0,0.0,0.0,0.0,0.0,0.0,0.0,3.992,3.9429,3.9816,4.1383,4.0649,3.8975,0.0,0.0,0.0,0.0,0.0,0.0,0.0,0.0,0.0,0.0,0.0,0.0,0.0,0.0,0.0,0.0,0.0,0.0,0.0,0.0,0.0,0.0,0.0,0.0,0.0,0.0,0.0,0.0,0.0,0.0,0.0,0.0,0.0,0.0,0.0,0.0,0.0,0.0,0.0,0.0,0.0,0.0,0.0,0.0,0.0,0.0,0.0,0.0,0.0,0.0,0.0,0.0,0.0,0.0,0.0,0.0,0.0,0.0,0.0,0.0,0.0,0.0,0.0,0.0,0.0,0.0,0.0,0.0,0.0,0.0,0.0,0.0,0.0,0.0,0.0,0.0,0.0,0.0,0.0,0.0,0.0,0.0,0.0,0.0,0.0,0.0,0.0,0.0,0.0,0.0,0.0,0.0,0.0,0.0,0.0,0.0,0.0,0.0,0.0,0.0,0.0,0.0,0.0,0.0,0.0,0.0,0.0,0.0,0.0,3.6981,3.7786,3.951,4.2109,3.9464,3.7643,0.0,0.0,0.0,0.0,0.0,0.0,0.0,0.0,0.0,0.0,0.0,0.0,0.0,0.0,0.0,0.0,0.0,0.0,0.0,0.0,0.0,0.0,0.0,0.0,0.0,0.0,0.0,0.0,0.0,0.0,0.0,0.0,0.0,0.0,0.0,0.0,0.0,0.0,0.0,0.0,0.0,0.0,0.0,0.0,0.0,0.0,0.0,0.0,0.0,0.0,0.0,0.0,0.0,0.0,0.0,0.0,0.0,0.0,0.0,0.0,0.0,0.0,0.0,0.0,0.0,0.0,0.0,0.0,0.0,0.0,0.0,0.0,0.0,0.0,0.0,0.0,0.0,0.0,0.0,0.0,0.0,0.0,0.0,0.0,0.0,0.0,0.0,0.0,0.0,0.0,0.0,0.0,0.0,0.0,0.0,0.0,0.0,0.0,0.0,0.0,0.0,0.0,0.0,0.0,0.0,0.0,0.0,0.0,0.0,3.6448,0.0,4.0196,4.18,3.9236,3.7165,0.0,0.0,0.0,0.0,0.0,0.0,0.0,0.0,0.0,0.0,0.0,0.0,0.0,0.0,0.0,0.0,0.0,0.0,0.0,0.0,0.0,0.0,0.0,0.0,0.0,0.0,0.0,0.0,0.0,0.0,0.0,0.0,0.0,0.0,0.0,0.0,0.0,0.0,0.0,0.0,0.0,0.0,0.0,0.0,0.0,0.0,0.0,0.0,0.0,0.0,0.0,0.0,0.0,0.0,0.0,0.0,0.0,0.0,0.0,0.0,0.0,0.0,0.0,0.0,0.0,0.0,0.0,0.0,0.0,0.0,0.0,0.0,0.0,0.0,0.0,0.0,0.0,0.0,0.0,0.0,0.0,0.0,0.0,0.0,0.0,0.0,0.0,0.0,0.0,0.0,0.0,0.0,0.0,0.0,0.0,0.0,0.0,0.0,0.0,0.0,0.0,0.0,0.0,0.0,0.0,0.0,0.0,0.0,3.5768,3.8894,4.1342,4.1952,4.0456,4.0264,3.7719,0.0,0.0,0.0,0.0,0.0,0.0,0.0,0.0,0.0,0.0,0.0,0.0,0.0,0.0,0.0,0.0,0.0,0.0,0.0,0.0,0.0,0.0,0.0,0.0,0.0,0.0,0.0,0.0,0.0,0.0,0.0,0.0,0.0,0.0,0.0,0.0,0.0,0.0,0.0,0.0,0.0,0.0,0.0,0.0,0.0,0.0,0.0,0.0,0.0,0.0,0.0,0.0,0.0,0.0,0.0,0.0,0.0,0.0,0.0,0.0,0.0,0.0,0.0,0.0,0.0,0.0,0.0,0.0,0.0,0.0,0.0,0.0,0.0,0.0,0.0,0.0,0.0,0.0,0.0,0.0,0.0,0.0,0.0,0.0,0.0,0.0,0.0,0.0,0.0,0.0,0.0,0.0,0.0,0.0,0.0,0.0,0.0,0.0,0.0,0.0,0.0,0.0,0.0,0.0,0.0,0.0,0.0,0.0,0.0,3.9085,4.0886,4.2793,4.4355,4.0614,3.8449,0.0,0.0,0.0,0.0,0.0,0.0,0.0,0.0,0.0,0.0,0.0,0.0,0.0,0.0,0.0,0.0,0.0,0.0,0.0,0.0,0.0,0.0,0.0,0.0,0.0,0.0,0.0,0.0,0.0,0.0,0.0,0.0,0.0,0.0,0.0,0.0,0.0,0.0,0.0,0.0,0.0,0.0,0.0,0.0,0.0,0.0,0.0,0.0,0.0,0.0,0.0,0.0,0.0,0.0,0.0,0.0,0.0,0.0,0.0,0.0,0.0,0.0,0.0,0.0,0.0,0.0,0.0,0.0,0.0,0.0,0.0,0.0,0.0,0.0,0.0,0.0,0.0,0.0,0.0,0.0,0.0,0.0,0.0,0.0,0.0,0.0,0.0,0.0,0.0,0.0,0.0,0.0,0.0,0.0,0.0,0.0,0.0,0.0,0.0,0.0,0.0,0.0,0.0,0.0,0.0,0.0,0.0,0.0,0.0,4.3326,4.4551,4.5729,4.6774,4.293,4.0519,3.9883,0.0,0.0,0.0,0.0,0.0,0.0,0.0,0.0,0.0,0.0,0.0,0.0,0.0,0.0,0.0,0.0,0.0,0.0,0.0,0.0,0.0,0.0,0.0,0.0,0.0,0.0,0.0,0.0,0.0,0.0,0.0,0.0,0.0,0.0,0.0,0.0,0.0,0.0,0.0,0.0,0.0,0.0,0.0,0.0,0.0,0.0,0.0,0.0,0.0,0.0,0.0,0.0,0.0,0.0,0.0,0.0,0.0,0.0,0.0,0.0,0.0,0.0,0.0,0.0,0.0,0.0,0.0,0.0,0.0,0.0,0.0,0.0,0.0,0.0,0.0,0.0,0.0,0.0,0.0,0.0,0.0,0.0,0.0,0.0,0.0,0.0,0.0,0.0,0.0,0.0,0.0,0.0,0.0,0.0,0.0,0.0,0.0,0.0,0.0,0.0,0.0,0.0,0.0,0.0,0.0,0.0,0.0,0.0,5.0472,5.1521,5.0705,4.7979,4.6686,4.3656,0.0,0.0,0.0,0.0,0.0,0.0,0.0,0.0,0.0,0.0,0.0,0.0,0.0,0.0,0.0,0.0,0.0,0.0,0.0,0.0,0.0,0.0,0.0,0.0,0.0,0.0,0.0,0.0,0.0,0.0,0.0,0.0,0.0,0.0,0.0,0.0,0.0,0.0,0.0,0.0,0.0,0.0,0.0,0.0,0.0,0.0,0.0,0.0,0.0,0.0,0.0,0.0,0.0,0.0,0.0,0.0,0.0,0.0,0.0,0.0,0.0,0.0,0.0,0.0,0.0,0.0,0.0,0.0,0.0,0.0,0.0,0.0,0.0,0.0,0.0,0.0,0.0,0.0,0.0,0.0,0.0,0.0,0.0,0.0,0.0,0.0,0.0,0.0,0.0,0.0,0.0,0.0,0.0,0.0,0.0,0.0,0.0,0.0,0.0,0.0,0.0,0.0,0.0,0.0,0.0,0.0,0.0,0.0,0.0,5.3064,5.6034,5.6379,5.3823,4.9142,4.5614,0.0,0.0,0.0,0.0,0.0,0.0,0.0,0.0,0.0,0.0,0.0,0.0,0.0,0.0,0.0,0.0,0.0,0.0,0.0,0.0,0.0,0.0,0.0,0.0,0.0,0.0,0.0,0.0,0.0,0.0,0.0,0.0,0.0,0.0,0.0,0.0,0.0,0.0,0.0,0.0,0.0,0.0,0.0,0.0,0.0,0.0,0.0,0.0,0.0,0.0,0.0,0.0,0.0,0.0,0.0,0.0,0.0,0.0,0.0,0.0,0.0,0.0,0.0,0.0,0.0,0.0,0.0,0.0,0.0,0.0,0.0,0.0,0.0,0.0,0.0,0.0,0.0,0.0,0.0,0.0,0.0,0.0,0.0,0.0,0.0,0.0,0.0,0.0,0.0,0.0,0.0,0.0,0.0,0.0,0.0,0.0,0.0,0.0,0.0,0.0,0.0,0.0,0.0,0.0,0.0,0.0,0.0,0.0,5.3112,5.6704,5.9397,6.004,5.8472,5.3444,4.926,0.0,0.0,0.0,0.0,0.0,0.0,0.0,0.0,0.0,0.0,0.0,0.0,0.0,0.0,0.0,0.0,0.0,0.0,0.0,0.0,0.0,0.0,0.0,0.0,0.0,0.0,0.0,0.0,0.0,0.0,0.0,0.0,0.0,0.0,0.0,0.0,0.0,0.0,0.0,0.0,0.0,0.0,0.0,0.0,0.0,0.0,0.0,0.0,0.0,0.0,0.0,0.0,0.0,0.0,0.0,0.0,0.0,0.0,0.0,0.0,0.0,0.0,0.0,0.0,0.0,0.0,0.0,0.0,0.0,0.0,0.0,0.0,0.0,0.0,0.0,0.0,0.0,0.0,0.0,0.0,0.0,0.0,0.0,0.0,0.0,0.0,0.0,0.0,0.0,0.0,0.0,0.0,0.0,0.0,0.0,0.0,0.0,0.0,0.0,0.0,0.0,0.0,0.0,0.0,0.0,0.0,0.0,0.0,5.5486,6.0144,6.1635,6.2205,6.1749,5.8079,5.3338,0.0,0.0,0.0,0.0,0.0,0.0,0.0,0.0,0.0,0.0,0.0,0.0,0.0,0.0,0.0,0.0,0.0,0.0,0.0,0.0,0.0,0.0,0.0,0.0,0.0,0.0,0.0,0.0,0.0,0.0,0.0,0.0,0.0,0.0,0.0,0.0,0.0,0.0,0.0,0.0,0.0,0.0,0.0,0.0,0.0,0.0,0.0,0.0,0.0,0.0,0.0,0.0,0.0,0.0,0.0,0.0,0.0,0.0,0.0,0.0,0.0,0.0,0.0,0.0,0.0,0.0,0.0,0.0,0.0,0.0,0.0,0.0,0.0,0.0,0.0,0.0,0.0,0.0,0.0,0.0,0.0,0.0,0.0,0.0,0.0,0.0,0.0,0.0,0.0,0.0,0.0,0.0,0.0,0.0,0.0,0.0,0.0,0.0,0.0,0.0,0.0,0.0,0.0,0.0,0.0,0.0,0.0,0.0,5.6934,5.9323,6.1592,6.2731,6.2636,5.7842,5.3291,0.0,0.0,0.0,0.0,0.0,0.0,0.0,0.0,0.0,0.0,0.0,0.0,0.0,0.0,0.0,0.0,0.0,0.0,0.0,0.0,0.0,0.0,0.0,0.0,0.0,0.0,0.0,0.0,0.0,0.0,0.0,0.0,0.0,0.0,0.0,0.0,0.0,0.0,0.0,0.0,0.0,0.0,0.0,0.0,0.0,0.0,0.0,0.0,4.532,0.0,0.0,0.0,0.0,0.0,0.0,0.0,0.0,0.0,0.0,0.0,0.0,0.0,0.0,0.0,0.0,0.0,0.0,0.0,0.0,0.0,0.0,0.0,0.0,0.0,0.0,0.0,0.0,0.0,0.0,0.0,0.0,0.0,0.0,0.0,0.0,0.0,0.0,0.0,0.0,0.0,0.0,0.0,0.0,0.0,0.0,0.0,0.0,0.0,0.0,0.0,0.0,0.0,0.0,0.0,0.0,0.0,0.0,0.0,5.8878,6.1115,6.2889,6.3609,6.3039,5.9362,5.5215,0.0,0.0,0.0,0.0,0.0,0.0,0.0,0.0,0.0,0.0,0.0,0.0,0.0,0.0,0.0,0.0,0.0,0.0,0.0,0.0,0.0,0.0,0.0,0.0,0.0,0.0,0.0,0.0,0.0,0.0,0.0,0.0,0.0,0.0,0.0,0.0,0.0,0.0,0.0,0.0,0.0,0.0,0.0,0.0,0.0,0.0,0.0,0.0,0.0,0.0,0.0,0.0,0.0,0.0,0.0,0.0,0.0,0.0,0.0,0.0,0.0,0.0,0.0,0.0,0.0,0.0,0.0,0.0,0.0,0.0,0.0,0.0,0.0,0.0,0.0,0.0,0.0,0.0,0.0,0.0,0.0,0.0,0.0,0.0,0.0,0.0,0.0,0.0,0.0,0.0,0.0,0.0,0.0,0.0,0.0,0.0,0.0,0.0,0.0,0.0,0.0,0.0,0.0,0.0,0.0,0.0,0.0,5.7118,6.054,6.329,6.4326,6.4386,6.349,6.1072,5.7389,5.2372,0.0,0.0,0.0,0.0,0.0,0.0,0.0,0.0,0.0,0.0,0.0,0.0,0.0,0.0,0.0,0.0,0.0,0.0,0.0,0.0,0.0,0.0,0.0,0.0,0.0,0.0,0.0,0.0,0.0,0.0,0.0,0.0,0.0,0.0,0.0,0.0,0.0,0.0,4.2683,4.5393,0.0,0.0,0.0,0.0,0.0,0.0,0.0,0.0,4.6766,0.0,0.0,0.0,0.0,0.0,0.0,0.0,0.0,0.0,0.0,0.0,0.0,0.0,0.0,0.0,0.0,0.0,0.0,0.0,0.0,0.0,0.0,0.0,0.0,0.0,0.0,0.0,0.0,0.0,0.0,0.0,0.0,0.0,0.0,0.0,0.0,0.0,0.0,0.0,0.0,0.0,0.0,0.0,0.0,0.0,0.0,0.0,0.0,0.0,0.0,0.0,0.0,0.0,0.0,0.0,0.0,5.4285,5.7816,6.0725,6.2945,6.4121,6.4348,6.3459,6.0771,5.7339,5.3112,0.0,0.0,0.0,0.0,0.0,0.0,0.0,0.0,0.0,0.0,0.0,0.0,0.0,0.0,0.0,0.0,0.0,0.0,0.0,0.0,0.0,0.0,0.0,0.0,0.0,0.0,0.0,0.0,0.0,0.0,0.0,0.0,0.0,0.0,0.0,0.0,0.0,0.0,0.0,4.9974,5.0887,0.0,0.0,0.0,0.0,0.0,0.0,0.0,0.0,4.7528,0.0,0.0,0.0,0.0,0.0,0.0,0.0,0.0,0.0,0.0,0.0,0.0,0.0,0.0,0.0,0.0,0.0,0.0,0.0,0.0,0.0,0.0,0.0,0.0,0.0,0.0,0.0,0.0,0.0,0.0,0.0,0.0,0.0,0.0,0.0,0.0,0.0,0.0,0.0,0.0,0.0,0.0,0.0,0.0,0.0,0.0,0.0,0.0,0.0,0.0,0.0,0.0,0.0,0.0,0.0,5.4365,5.9026,6.1969,6.32,6.4183,6.4204,6.3109,5.9772,5.6444,0.0,0.0,0.0,0.0,0.0,0.0,0.0,0.0,0.0,0.0,0.0,0.0,0.0,0.0,0.0,0.0,0.0,0.0,0.0,0.0,0.0,0.0,0.0,0.0,0.0,0.0,0.0,0.0,0.0,0.0,0.0,0.0,0.0,0.0,0.0,0.0,0.0,0.0,0.0,0.0,5.0929,5.1577,5.3333,0.0,0.0,0.0,0.0,0.0,0.0,4.8645,4.8221,0.0,0.0,0.0,0.0,0.0,0.0,0.0,0.0,0.0,0.0,0.0,0.0,0.0,0.0,0.0,0.0,0.0,0.0,0.0,0.0,0.0,0.0,0.0,0.0,0.0,0.0,0.0,0.0,0.0,0.0,0.0,0.0,0.0,0.0,0.0,0.0,0.0,0.0,0.0,0.0,0.0,0.0,0.0,0.0,0.0,0.0,0.0,0.0,0.0,0.0,0.0,0.0,0.0,0.0,0.0,5.4392,5.9916,6.3118,6.3847,6.448,6.4247,6.3032,5.9123,5.5752,0.0,0.0,0.0,0.0,0.0,0.0,0.0,0.0,0.0,0.0,0.0,0.0,0.0,0.0,0.0,0.0,0.0,0.0,0.0,0.0,0.0,0.0,0.0,0.0,0.0,0.0,0.0,0.0,0.0,0.0,0.0,0.0,0.0,0.0,0.0,0.0,0.0,0.0,0.0,0.0,0.0,5.2497,5.5014,5.3184,0.0,0.0,0.0,0.0,5.0593,5.0805,0.0,0.0,0.0,0.0,0.0,0.0,0.0,0.0,0.0,0.0,0.0,0.0,0.0,0.0,0.0,0.0,0.0,0.0,0.0,0.0,0.0,0.0,0.0,0.0,0.0,0.0,0.0,0.0,0.0,0.0,0.0,0.0,0.0,0.0,0.0,0.0,0.0,0.0,0.0,0.0,0.0,0.0,0.0,0.0,0.0,0.0,0.0,0.0,0.0,0.0,0.0,0.0,0.0,0.0,0.0,0.0,5.4678,5.965,6.3155,6.5006,6.5198,6.4808,6.3916,6.0018,5.6057,0.0,0.0,0.0,0.0,0.0,0.0,0.0,0.0,0.0,0.0,0.0,0.0,0.0,0.0,0.0,0.0,0.0,0.0,0.0,0.0,0.0,0.0,0.0,0.0,0.0,0.0,0.0,0.0,0.0,0.0,0.0,0.0,0.0,0.0,0.0,0.0,0.0,0.0,0.0,0.0,0.0,5.5748,5.5438,5.5673,5.5331,0.0,0.0,5.4906,5.5637,5.6623,0.0,0.0,0.0,0.0,0.0,0.0,0.0,0.0,0.0,0.0,0.0,0.0,0.0,0.0,0.0,0.0,0.0,0.0,0.0,0.0,0.0,0.0,0.0,0.0,0.0,0.0,0.0,0.0,0.0,0.0,0.0,0.0,0.0,0.0,0.0,0.0,0.0,0.0,0.0,0.0,0.0,0.0,0.0,0.0,0.0,0.0,0.0,0.0,0.0,0.0,0.0,0.0,0.0,0.0,0.0,4.9388,5.4546,6.027,6.3895,6.5224,6.5328,6.4931,6.4096,5.9253,5.5178,0.0,0.0,0.0,0.0,0.0,0.0,0.0,0.0,0.0,0.0,0.0,0.0,0.0,0.0,0.0,0.0,0.0,0.0,0.0,0.0,0.0,0.0,0.0,0.0,0.0,0.0,0.0,0.0,0.0,0.0,0.0,0.0,0.0,0.0,0.0,0.0,0.0,0.0,0.0,0.0,0.0,0.0,5.7268,5.7386,0.0,0.0,0.0,5.8347,5.8694,0.0,0.0,0.0,0.0,0.0,0.0,0.0,0.0,0.0,0.0,0.0,0.0,0.0,0.0,0.0,0.0,0.0,0.0,0.0,0.0,0.0,0.0,0.0,0.0,0.0,0.0,0.0,0.0,0.0,0.0,0.0,0.0,0.0,0.0,0.0,0.0,0.0,0.0,0.0,0.0,0.0,0.0,0.0,0.0,0.0,0.0,0.0,0.0,0.0,0.0,0.0,0.0,0.0,0.0,0.0,0.0,0.0,5.4698,6.108,6.4897,6.5845,6.5695,6.5118,6.4063,5.9143,0.0,0.0,0.0,0.0,0.0,0.0,0.0,0.0,0.0,0.0,0.0,0.0,0.0,0.0,0.0,0.0,0.0,0.0,0.0,0.0,0.0,0.0,0.0,0.0,0.0,0.0,0.0,3.0785,0.0,0.0,0.0,0.0,0.0,0.0,0.0,0.0,0.0,0.0,0.0,0.0,0.0,0.0,5.6435,5.9471,5.9923,6.0196,0.0,0.0,6.1813,6.1539,6.193,6.0234,0.0,0.0,0.0,0.0,0.0,0.0,0.0,0.0,0.0,0.0,0.0,0.0,0.0,0.0,0.0,0.0,0.0,0.0,0.0,0.0,0.0,0.0,0.0,0.0,0.0,0.0,0.0,0.0,0.0,0.0,0.0,0.0,0.0,0.0,0.0,0.0,0.0,0.0,0.0,0.0,0.0,0.0,0.0,0.0,0.0,0.0,0.0,0.0,0.0,0.0,0.0,0.0,0.0,0.0,5.0899,5.5559,6.1924,6.5959,6.744,6.6809,6.5671,6.4103,6.0783,5.6043,0.0,0.0,0.0,0.0,0.0,0.0,0.0,0.0,0.0,0.0,0.0,0.0,0.0,0.0,0.0,0.0,0.0,0.0,0.0,0.0,0.0,0.0,0.0,0.0,0.0,0.0,0.0,0.0,0.0,0.0,0.0,0.0,0.0,0.0,0.0,0.0,0.0,0.0,0.0,0.0,0.0,5.9544,6.1686,6.3986,6.572,0.0,6.6318,6.5715,6.4681,6.697,6.5494,5.5412,0.0,0.0,0.0,0.0,0.0,0.0,0.0,0.0,0.0,0.0,0.0,0.0,0.0,0.0,0.0,0.0,0.0,0.0,0.0,0.0,0.0,0.0,0.0,0.0,0.0,0.0,0.0,0.0,0.0,0.0,0.0,0.0,0.0,0.0,0.0,0.0,0.0,0.0,0.0,0.0,0.0,0.0,0.0,0.0,0.0,0.0,0.0,0.0,0.0,0.0,0.0,0.0,0.0,5.1613,5.6311,6.2242,6.6065,6.7587,6.692,6.5959,6.4857,6.1661,5.7147,0.0,0.0,0.0,0.0,0.0,0.0,0.0,0.0,0.0,0.0,0.0,0.0,0.0,0.0,0.0,0.0,0.0,0.0,0.0,0.0,0.0,0.0,0.0,0.0,0.0,0.0,0.0,0.0,3.9277,4.0024,4.1672,0.0,0.0,0.0,0.0,0.0,0.0,0.0,0.0,0.0,0.0,6.1988,6.49,6.674,0.0,0.0,6.7853,6.7897,6.7507,6.6969,6.4587,5.8518,5.6037,0.0,0.0,0.0,0.0,0.0,0.0,0.0,0.0,0.0,0.0,0.0,0.0,0.0,0.0,0.0,0.0,0.0,0.0,0.0,0.0,0.0,0.0,0.0,0.0,0.0,0.0,0.0,0.0,0.0,0.0,0.0,0.0,0.0,0.0,0.0,0.0,0.0,0.0,0.0,0.0,0.0,0.0,0.0,0.0,0.0,0.0,0.0,0.0,0.0,0.0,0.0,0.0,5.195,5.678,6.2432,6.6065,6.766,6.7146,6.6259,6.4928,6.2215,5.8104,0.0,0.0,0.0,0.0,0.0,0.0,0.0,0.0,0.0,0.0,0.0,0.0,0.0,0.0,0.0,0.0,0.0,0.0,0.0,0.0,0.0,0.0,0.0,0.0,0.0,0.0,0.0,0.0,4.2107,4.2207,4.2187,0.0,0.0,0.0,0.0,0.0,0.0,0.0,0.0,0.0,0.0,6.4761,6.7487,6.8808,6.9277,6.8788,6.8639,6.857,6.8542,6.7098,6.4591,6.038,0.0,0.0,0.0,0.0,0.0,0.0,0.0,0.0,0.0,0.0,0.0,0.0,0.0,0.0,0.0,0.0,0.0,0.0,0.0,0.0,0.0,0.0,0.0,0.0,0.0,0.0,0.0,3.0264,0.0,0.0,3.0227,0.0,0.0,0.0,0.0,0.0,0.0,0.0,0.0,0.0,0.0,0.0,0.0,0.0,0.0,0.0,0.0,0.0,0.0,0.0,0.0,0.0,0.0,5.2024,5.6816,6.2462,6.6105,6.7627,6.7664,6.6526,6.4246,6.2481,5.8951,5.3327,0.0,0.0,0.0,0.0,0.0,0.0,0.0,0.0,0.0,0.0,0.0,0.0,0.0,0.0,0.0,0.0,0.0,0.0,0.0,0.0,0.0,0.0,0.0,0.0,0.0,0.0,4.2565,4.3473,4.3068,0.0,0.0,0.0,0.0,0.0,0.0,0.0,0.0,0.0,6.1291,6.5286,6.8026,6.9298,7.0227,7.0766,7.0698,6.907,6.7694,6.7425,6.8104,6.6632,0.0,0.0,0.0,0.0,0.0,0.0,0.0,0.0,0.0,0.0,0.0,0.0,0.0,0.0,0.0,0.0,0.0,0.0,0.0,0.0,0.0,0.0,0.0,0.0,0.0,0.0,0.0,3.737,3.603,0.0,0.0,0.0,0.0,0.0,0.0,0.0,0.0,0.0,0.0,0.0,4.5847,4.7057,0.0,0.0,0.0,0.0,0.0,0.0,0.0,0.0,0.0,0.0,0.0,0.0,5.41,5.842,6.3496,6.6626,6.7624,6.7177,6.6259,6.4928,6.3276,5.9493,5.3398,0.0,0.0,0.0,0.0,0.0,0.0,0.0,0.0,0.0,0.0,0.0,0.0,0.0,0.0,0.0,0.0,0.0,0.0,0.0,0.0,0.0,0.0,0.0,0.0,0.0,4.2522,0.0,0.0,0.0,0.0,0.0,0.0,0.0,0.0,0.0,0.0,5.6024,6.0032,6.4489,6.7287,6.9455,7.0948,7.2076,7.2361,0.0,0.0,0.0,0.0,0.0,0.0,0.0,0.0,0.0,0.0,0.0,0.0,0.0,0.0,6.8105,6.2786,6.0819,6.009,6.0318,0.0,0.0,0.0,0.0,0.0,0.0,0.0,0.0,0.0,0.0,0.0,0.0,0.0,0.0,4.176,4.069,3.9852,0.0,0.0,0.0,0.0,0.0,0.0,0.0,0.0,4.7638,4.9886,5.064,5.21,5.2348,0.0,5.1079,4.8068,0.0,0.0,0.0,0.0,0.0,0.0,0.0,0.0,5.5306,5.96,6.4157,6.6886,6.7624,6.7183,6.6402,6.5291,6.3126,5.9603,5.4609,5.0836,4.7462,0.0,0.0,0.0,0.0,0.0,0.0,0.0,0.0,0.0,0.0,0.0,0.0,0.0,0.0,0.0,0.0,0.0,0.0,0.0,0.0,0.0,0.0,0.0,4.3941,0.0,0.0,0.0,0.0,0.0,0.0,0.0,0.0,0.0,5.691,6.052,6.4463,6.832,6.983,7.1041,7.2398,0.0,0.0,0.0,0.0,0.0,0.0,0.0,6.8495,6.9239,6.9012,6.8932,6.9706,7.2272,7.4327,7.4584,0.0,0.0,6.9354,6.7416,6.6811,6.7048,6.8757,6.9956,6.9219,7.1917,7.4481,0.0,0.0,0.0,0.0,0.0,0.0,0.0,0.0,4.493,4.4532,0.0,4.3562,0.0,0.0,0.0,0.0,3.9753,4.5602,0.0,0.0,5.519,5.7508,5.5906,5.7313,5.7672,5.7034,5.7666,5.6057,5.2102,4.6769,0.0,0.0,0.0,0.0,0.0,0.0,5.5741,6.0413,6.4487,6.6916,6.7664,6.766,6.6876,6.5251,6.2141,5.9391,5.7034,5.5351,5.2671,4.8702,4.5486,0.0,0.0,0.0,0.0,0.0,0.0,0.0,0.0,0.0,0.0,0.0,0.0,0.0,0.0,0.0,0.0,0.0,0.0,0.0,0.0,4.4663,0.0,0.0,0.0,0.0,0.0,0.0,0.0,0.0,0.0,6.3399,6.2108,6.4991,6.8652,7.2617,0.0,0.0,0.0,0.0,7.2639,7.2639,7.2008,7.1857,7.2565,7.3233,7.3494,7.2863,0.0,0.0,7.6497,7.834,7.9702,7.9001,8.0163,8.0416,7.7994,7.6375,7.5609,7.5677,7.6681,7.7496,7.7302,7.8872,8.0752,5.3288,0.0,0.0,0.0,0.0,5.0073,5.2016,5.5435,5.3729,5.2314,5.1139,5.0012,0.0,0.0,0.0,0.0,0.0,0.0,5.1194,5.3768,5.6425,5.8122,5.907,6.0092,6.0462,6.0242,6.104,6.056,5.8804,5.6537,5.1436,4.3787,0.0,0.0,0.0,0.0,5.8921,6.212,6.5493,6.7373,6.77,6.6999,6.593,6.4457,6.2371,6.0939,6.0236,5.8685,5.6486,5.3634,5.0437,0.0,0.0,0.0,0.0,0.0,0.0,0.0,0.0,0.0,0.0,0.0,0.0,0.0,0.0,0.0,0.0,0.0,0.0,0.0,4.4387,4.5846,4.691,0.0,0.0,0.0,0.0,0.0,0.0,0.0,0.0,0.0,6.9129,7.0541,7.195,0.0,0.0,7.3417,7.3678,7.4481,7.5065,7.5061,7.5865,0.0,7.5968,7.5649,7.5913,7.7463,7.9902,8.177,8.2109,8.3218,8.3997,8.3773,8.4605,8.5037,8.4311,8.2533,8.1399,8.1893,8.276,8.3561,8.4015,8.5144,8.6146,5.9391,5.4437,5.3439,5.426,5.6128,5.5697,5.7594,6.0814,5.8875,5.7669,5.6995,5.5582,5.2854,4.9271,4.8322,0.0,0.0,0.0,5.4631,5.7563,5.8821,6.0111,6.1374,6.2511,6.3059,6.3099,6.3473,6.327,6.2461,6.1834,5.8038,5.1308,0.0,5.2329,5.2776,5.7457,6.126,6.4007,6.6251,6.7574,6.795,6.6818,6.5783,6.496,6.3404,6.2738,6.3025,6.1181,5.9465,5.8005,5.4588,5.0883,0.0,0.0,0.0,0.0,0.0,0.0,0.0,0.0,0.0,0.0,0.0,3.7997,3.7028,0.0,0.0,0.0,4.3021,4.5384,4.7662,4.9715,0.0,0.0,0.0,0.0,0.0,0.0,0.0,6.546,6.8947,7.1872,7.4111,7.5226,7.5638,7.5179,7.5131,7.5249,7.5583,0.0,7.7194,7.7495,7.8699,7.947,7.9275,7.9095,7.9613,8.1383,8.3434,8.4931,8.544,8.6477,8.7174,8.7288,8.761,8.8051,8.8385,8.7202,8.6142,8.6073,8.6664,8.7394,8.7863,8.834,8.8895,6.4013,6.3075,6.0813,6.0177,6.0698,6.1424,6.2182,6.2899,6.1285,6.1065,6.1656,6.0151,5.8145,5.5839,5.4301,0.0,5.604,5.7216,5.8664,6.0329,6.2137,6.3013,6.3086,6.4628,6.5395,6.5342,6.5331,6.4895,6.4207,6.4098,6.3198,6.1554,5.8723,5.7577,5.8154,6.0453,6.3156,6.6135,6.697,6.7696,6.8349,6.6967,6.6175,6.6066,6.4786,6.439,6.4964,6.2912,6.1637,6.1377,5.7895,5.4082,5.0159,0.0,0.0,0.0,0.0,0.0,0.0,0.0,0.0,0.0,0.0,0.0,0.0,0.0,0.0,4.4156,4.6985,0.0,5.2275,5.5314,0.0,0.0,0.0,6.0517,6.2331,6.5228,6.7984,7.0403,0.0,0.0,7.7395,7.8887,7.9327,7.7799,7.7542,7.7807,7.8585,7.8703,7.907,7.9812,8.0645,8.1448,8.2113,8.2843,8.365,8.4646,8.6146,8.7019,8.7239,8.8376,8.9363,8.9404,8.951,8.9767,9.0542,9.0473,9.022,8.8716,8.9042,8.9583,8.9588,8.9624,8.9886,6.7647,6.744,6.7451,6.5995,6.3669,6.3536,6.4122,6.5014,6.377,6.3316,6.346,6.2729,6.2044,6.1451,6.0751,6.0999,6.2012,6.2327,6.3021,6.4014,6.4495,6.4698,6.4774,6.5732,6.6119,6.6083,6.718,6.7583,6.7348,6.7814,6.7506,6.6529,6.6235,6.4758,6.2212,6.4404,6.6351,6.7816,6.8535,6.8655,6.823,6.6915,6.5923,6.5304,6.4539,6.3873,6.3417,6.2866,6.1952,6.0713,5.9202,5.6774,5.3377,4.8051,0.0,0.0,0.0,0.0,0.0,0.0,0.0,0.0,0.0,4.4998,4.1958,0.0,5.0007,0.0,5.1977,5.4625,5.639,5.892,0.0,0.0,6.4897,6.6366,7.0337,7.1515,7.2936,7.5311,7.7561,7.9001,7.9176,8.0098,8.0571,8.0155,7.958,7.9294,7.9486,8.0053,8.0714,8.153,8.2329,8.3132,8.3944,8.4686,8.571,8.7105,8.7692,8.8087,8.8739,8.9624,9.0322,9.0363,9.0844,9.1253,9.1436,9.1514,9.14,9.1037,9.1106,9.1216,9.1216,9.1216,9.1253,6.9449,6.9486,6.993,6.8921,6.71,6.6864,6.694,6.7134,6.6135,6.5494,6.514,6.4516,6.4263,6.4247,6.4023,6.4197,6.4607,6.4637,6.4894,6.5328,6.5665,6.5848,6.5882,6.6956,6.7388,6.7303,6.8412,6.8925,6.887,6.9162,6.9269,6.92,6.9556,6.8831,6.7121,6.7636,6.841,6.9291,6.9637,6.9269,6.8148,6.7097,6.5984,6.4874,6.3845,6.3151,6.2672,6.1657,6.0875,6.0292,5.8913,5.7144,5.4989,5.092,4.7537,0.0,0.0,0.0,0.0,0.0,0.0,0.0,0.0,0.0,0.0,0.0,5.4399,5.5055,5.7706,6.0312,6.2618,6.5338,6.8061,7.0627,7.1505,7.294,7.5619,7.65,7.7602,7.9275,8.0604,8.157,8.1897,8.2337,8.2586,8.2586,8.2227,8.1786,8.153,8.2076,8.2769,8.321,8.3948,8.4903,8.6004,8.6554,8.7293,8.8459,8.9046,8.945,8.9877,9.0583,9.1143,9.1175,9.151,9.1812,9.1812,9.1812,9.1812,9.1812,9.1812,9.1812,9.1812,9.1812,9.1812,7.0337,7.041,7.0403,7.0407,7.0407,7.0403,6.9889,6.9002,6.8321,6.755,6.6769,6.6065,6.5695,6.5588,6.5625,6.5585,6.5622,6.5735,6.5769,6.5809,6.6566,6.6926,6.6993,6.8152,6.8727,6.8732,6.927,6.9541,6.9551,6.9502,6.984,7.0528,7.0524,7.089,7.1418,7.0166,6.9848,7.0524,7.046,6.9659,6.8195,6.7513,6.6332,6.4641,6.3282,6.2419,6.2134,6.0343,5.9524,5.9938,5.837,5.7003,5.6099,5.3676,5.1316,0.0,4.7425,0.0,0.0,0.0,0.0,0.0,0.0,0.0,0.0,5.711,5.9165,6.119,6.3763,6.6519,6.9402,7.2492,7.4628,7.5498,7.7521,7.8956,7.9103,8.042,8.1628,8.2406,8.3132,8.3826,8.4389,8.4609,8.4572,8.4609,8.4609,8.438,8.4013,8.4197,8.4458,8.4719,8.5531,8.6559,8.7692,8.8165,8.8601,8.9404,9.0028,9.0624,9.073,9.1289,9.1776,9.1776,9.1771,9.1812,9.1812,9.1812,9.1812,9.1812,9.1812,9.1812,9.1812,9.1812,9.1812,7.1464,7.2059,7.2052,7.2052,7.2055,7.2052,7.1207,6.9856,6.9713,6.9192,6.8455,6.8301,6.7871,6.7253,6.7253,6.7257,6.7293,6.7907,6.8234,6.8261,6.8961,6.9279,6.9265,6.9354,6.9351,6.931,7.0026,7.0335,7.0208,7.079,7.1132,7.1281,7.1309,7.135,7.1487,0.0,0.0,0.0,7.0709,6.9949,6.8978,6.8315,6.6899,6.4683,6.3815,0.0,6.0592,6.0751,6.0423,5.9328,6.0176,0.0,0.0,0.0,0.0,0.0,0.0,0.0,0.0,0.0,0.0,0.0,6.2031,6.1474,5.9609,6.3753,6.6546,6.6446,6.9716,7.2386,7.3659,7.613,7.7969,7.8817,7.9874,8.0791,8.1452,8.2362,8.3242,8.4058,8.4274,8.4458,8.4646,8.4609,8.4866,8.5531,8.5567,8.5783,8.6252,8.5375,8.4903,8.5494,8.6816,8.777,8.8133,8.8789,8.9441,9.0175,9.0473,9.0844,9.14,9.162,9.1812,9.1812,9.1812,9.1812,9.1812,9.1812,9.1812,9.1812,9.1812,9.1812,9.1812,9.1812,9.1812,7.3333,7.3696,7.3696,7.3446,0.0,7.352,7.2786,7.1284,7.0877,7.0257,6.9482,6.9482,6.9265,6.8872,6.8872,6.8864,6.8799,6.9195,6.9333,6.9245,6.9612,6.9766,6.9759,7.0,7.0067,7.0024,7.0711,7.0993,7.0995,7.1712,7.2102,7.2102,7.2501,7.2678,7.2682,7.2283,7.1885,7.149,7.1136,7.0561,6.9775,6.8672,6.715,6.5155,6.3598,0.0,0.0,0.0,0.0,0.0,0.0,0.0,0.0,0.0,0.0,5.8544,5.8581,5.8908,5.9792,6.2031,6.446,6.6889,6.9265,6.9259,6.6025,6.9152,7.1611,7.2419,7.4738,7.6464,7.7304,7.918,8.0546,8.0983,8.2039,8.2953,8.3361,8.4091,8.4715,8.5123,8.5559,8.5926,8.6334,8.6366,8.6522,8.6926,8.7358,8.7541,8.7545,8.6917,8.666,8.7435,8.8197,8.8936,8.934,8.9665,9.0253,9.0955,9.1179,9.1363,9.1734,9.1812,9.1812,9.1812,9.1812,9.1812,9.1812,9.1812,9.1812,9.1812,9.1812,9.1987,9.2313,9.2427,9.2469,7.49,7.49,7.49,7.4507,7.3968,7.4614,7.4158,7.2823,7.192,0.0,0.0,7.0309,7.0181,7.0075,7.0043,6.9966,6.9849,6.9999,6.9956,6.9814,6.9927,7.0058,7.0233,7.0709,7.1051,7.1221,7.1702,7.1921,7.1957,7.2605,7.2935,7.2967,7.3583,7.3901,7.3864,7.3221,7.2569,7.1957,7.1635,7.1136,7.0383,6.9104,6.7648,6.6058,6.395,6.239,6.1455,6.0533,5.9988,5.9877,5.974,6.0282,6.1591,6.2328,6.3359,6.4867,6.6296,6.7247,6.7577,6.9042,7.0437,7.1505,7.4625,7.5351,7.2555,7.3857,7.5583,7.7586,7.8512,7.9323,8.0147,8.1534,8.2484,8.2631,8.3948,8.4792,8.4866,8.5531,8.5971,8.6122,8.6701,8.7427,8.7986,8.8206,8.8426,8.8495,8.8817,8.9294,8.8752,8.8459,8.845,8.9033,8.94,8.9849,9.04,9.0734,9.1065,9.1624,9.1734,9.1812,9.1812,9.1812,9.1812,9.1812,9.1812,9.1812,9.1812,9.1812,9.1812,9.1812,9.1812,9.206,9.2863,9.3226,9.3304,7.49,7.49,7.49,7.4834,7.4724,7.4834,7.4689,7.4295,7.2904,7.1905,7.1116,7.0995,7.0579,6.992,6.973,6.9643,6.9701,7.0369,7.0649,7.0656,7.1213,7.184,7.2515,7.2431,7.275,7.3398,7.3519,7.3547,7.3579,7.3692,7.3724,7.3724,7.3836,7.3901,7.3868,7.38,7.3692,7.3547,7.2207,7.1132,7.0423,7.0166,6.9289,6.772,6.6666,6.541,6.3968,6.4471,6.4554,6.4015,6.5314,6.6256,6.6656,6.6743,6.7257,6.8161,6.9085,7.0187,7.1578,7.3145,7.5025,7.7157,7.7932,7.7741,7.6661,7.7998,7.9074,7.9445,8.0204,8.1012,8.1791,8.2696,8.354,8.4164,8.5054,8.5645,8.5641,8.6338,8.6803,8.6803,8.7545,8.8055,8.828,8.8821,8.9221,8.9257,8.94,8.9588,9.0,8.9661,8.9326,8.9473,8.9991,9.0441,9.0698,9.1216,9.1583,9.1776,9.1812,9.1812,9.1812,9.1812,9.1812,9.1812,9.1812,9.1812,9.1812,9.1812,9.1812,9.1812,9.1812,9.2102,9.2973,9.3717,9.4162,7.6106,7.6087,7.5962,7.5663,7.5257,7.4822,7.482,7.5087,7.4031,7.3067,7.2372,7.2272,7.18,7.1059,7.0956,7.1126,7.1468,7.1836,7.2198,7.2504,7.2785,7.3116,7.347,7.3402,7.3547,7.3868,7.3901,7.3901,7.3937,7.4335,7.4552,7.4589,7.4967,7.4999,7.4593,7.4556,7.4335,7.3909,7.3181,7.2645,7.2283,7.1893,7.1313,7.0549,6.9394,6.8423,6.7706,6.7723,6.7619,6.7301,6.82,6.8944,6.946,6.9995,7.0664,7.1464,7.2679,7.367,7.4404,7.5983,7.7602,7.9115,7.9653,7.976,7.9348,8.0017,8.0608,8.1056,8.1815,8.2439,8.2843,8.3944,8.4862,8.5205,8.5971,8.6444,8.6554,8.717,8.7463,8.7202,8.8087,8.8821,8.8858,8.9546,9.0028,9.0028,9.0028,9.0358,9.1106,9.0922,9.0698,9.0734,9.0991,9.1216,9.1253,9.151,9.1776,9.1812,9.1812,9.1812,9.1812,9.1812,9.1812,9.1812,9.1812,9.1812,9.1812,9.1812,9.1812,9.1812,9.1812,9.2248,9.3414,9.4708,9.5515,7.7041,7.7025,7.6858,7.6461,7.5833,7.5221,7.5271,7.5737,7.5158,7.4414,7.3666,7.3475,7.3093,7.2539,7.2439,7.2715,7.3138,7.3195,7.345,7.384,7.3901,7.3981,7.4154,7.4162,7.4271,7.4416,7.4456,7.4416,7.4528,7.5068,7.5357,7.543,7.599,7.5985,7.5393,7.5357,7.5068,7.4492,7.4448,7.4267,7.3909,7.3293,7.2971,7.2899,7.182,7.1216,7.1148,7.0697,7.0451,7.05,7.0685,7.1158,7.2002,7.2786,7.3553,7.4403,7.5576,7.6361,7.6656,7.7943,7.9178,7.9992,8.0572,8.0955,8.1252,8.1408,8.1738,8.2435,8.2981,8.3495,8.4017,8.4976,8.5939,8.6269,8.6885,8.7247,8.7316,8.7839,8.7986,8.7537,8.8528,8.9436,8.9734,9.0358,9.0844,9.0881,9.0881,9.1143,9.1661,9.1812,9.1812,9.1812,9.1812,9.1776,9.1812,9.1776,9.1812,9.1812,9.1812,9.1812,9.1812,9.1812,9.1812,9.1812,9.1812,9.1812,9.1812,9.1812,9.1812,9.1812,9.1991,9.2648,9.4263,9.5621,9.6575,7.6817,7.6817,7.6789,7.6753,7.6631,7.6563,7.6514,7.6453,7.6412,7.5842,7.49,7.4353,7.4061,7.4001,7.3748,7.3704,7.3829,7.382,7.3885,7.3949,7.3905,7.4307,7.4951,7.4991,7.5361,7.5953,7.5994,7.5917,7.5921,7.6066,7.6171,7.6171,7.6284,7.6243,7.6171,7.6171,7.6135,7.6066,7.6066,7.537,7.3977,7.3828,7.38,7.376,7.3659,7.3579,7.3547,7.3527,7.3575,7.3735,7.3738,7.4185,7.5031,7.5249,7.5662,7.6412,7.6667,7.7125,7.804,7.8909,7.9852,8.0747,8.0641,8.0969,8.195,8.2539,8.2958,8.3262,8.3377,8.4087,8.5384,8.5751,8.6412,8.7619,8.7912,8.8092,8.8128,8.8169,8.8169,8.8128,8.8964,8.9652,9.0367,9.1101,9.1588,9.1551,9.1551,9.1583,9.1739,9.1812,9.1812,9.1812,9.1812,9.1812,9.1812,9.1812,9.1812,9.1812,9.1812,9.1812,9.1812,9.1812,9.1812,9.1812,9.1812,9.1812,9.1812,9.1812,9.1886,9.2102,9.2611,9.3483,9.4987,9.6052,9.6649,7.6676,7.6668,7.6578,7.6496,7.6496,7.6496,7.645,7.6424,7.6429,7.6161,7.5817,7.5561,7.4937,7.4055,7.3941,7.4158,7.4589,7.4629,7.4891,7.5297,7.5293,7.551,7.5768,7.58,7.5981,7.6284,7.6288,7.6288,7.6288,7.6288,7.6288,7.6288,7.6288,7.6288,7.6288,7.6288,7.6288,7.6288,7.6288,7.5953,7.5402,7.5329,7.5329,7.5334,7.5329,7.5297,7.5334,7.5334,7.5371,7.5445,7.5535,7.577,7.6187,7.6725,7.715,7.7515,7.7952,7.8601,7.9486,7.9851,8.0404,8.1283,8.123,8.1363,8.1782,8.2101,8.2642,8.38,8.4436,8.5127,8.5751,8.6228,8.699,8.7954,8.8206,8.8385,8.8854,8.9344,8.9482,8.911,9.0032,9.0693,9.073,9.1289,9.1734,9.1812,9.1812,9.1812,9.1812,9.1812,9.1812,9.1812,9.1812,9.1812,9.1812,9.1812,9.1812,9.1812,9.1812,9.1812,9.1812,9.1812,9.1812,9.1812,9.1812,9.1812,9.1812,9.2285,9.2574,9.279,9.3703,9.4762,9.5391,9.613,9.6612,7.654,7.6483,7.637,7.6288,7.6288,7.6288,7.6288,7.6288,7.6288,7.6288,7.6288,7.6288,7.5659,7.4673,7.4565,7.4891,7.5393,7.543,7.5728,7.6247,7.6288,7.6288,7.6288,7.6288,7.6288,7.6288,7.6288,7.6288,7.6288,7.6288,7.6288,7.6288,7.6288,7.6288,7.6288,7.6288,7.6288,7.6288,7.6288,7.6288,7.6288,7.6288,7.6288,7.6288,7.6288,7.6288,7.6288,7.6288,7.6288,7.6288,7.6445,7.6644,7.6866,7.7491,7.7954,7.8253,7.9019,7.9736,8.0323,8.0554,8.1054,8.1785,8.1866,8.1954,8.2241,8.2406,8.3149,8.4429,8.5439,8.594,8.6183,8.666,8.739,8.8349,8.8536,8.8854,8.9657,9.0289,9.0326,8.9955,9.0579,9.14,9.1101,9.1432,9.1812,9.1812,9.1812,9.1812,9.1812,9.1812,9.1812,9.1812,9.1812,9.1812,9.1812,9.1812,9.1812,9.1812,9.1812,9.1812,9.1812,9.1812,9.1812,9.1812,9.1812,9.1849,9.1881,9.2427,9.3414,9.3891,9.4657,9.557,9.5868,9.6392,9.6617,7.6292,7.6292,7.6292,7.6288,7.6288,7.6288,7.6288,7.6288,7.6288,7.6288,7.6288,7.6288,7.6247,7.6102,7.603,7.6175,7.6211,7.6175,7.6207,7.6288,7.6288,7.6288,7.6288,7.6288,7.6288,7.6288,7.6288,7.6288,7.6288,7.6288,7.6288,7.6288,7.6288,7.6288,7.6288,7.6288,7.6288,7.6288,7.6288,7.6288,7.6288,7.6288,7.6288,7.6288,7.6288,7.6288,7.6288,7.6288,7.6324,7.6324,7.6364,7.6699,7.7347,7.7541,7.7988,7.8717,7.9662,8.0184,8.037,8.0997,8.1794,8.2513,8.2471,8.2703,8.3547,8.4082,8.4631,8.5378,8.588,8.6449,8.685,8.7012,8.7685,8.8993,8.9317,8.9693,9.0427,9.0611,9.0624,9.0546,9.073,9.1101,9.1624,9.1771,9.1812,9.1812,9.1812,9.1812,9.1812,9.1812,9.1812,9.1812,9.1812,9.1812,9.1812,9.1812,9.1812,9.1812,9.1812,9.1812,9.1812,9.1812,9.1812,9.1812,9.1812,9.1849,9.1955,9.2684,9.3854,9.4588,9.5171,9.5832,9.6277,9.6539,9.6727,7.6288,7.6288,7.6288,7.6288,7.6288,7.6288,7.6288,7.6288,7.6288,7.6288,7.6288,7.6288,7.6288,7.6288,7.6288,7.6288,7.6288,7.6288,7.6288,7.6288,7.6288,7.6288,7.6288,7.6288,7.6288,7.6288,7.6288,7.6288,7.6288,7.6288,7.6288,7.6288,7.6288,7.6288,7.6288,7.6288,7.6288,7.6288,7.6288,7.6288,7.6288,7.6288,7.6288,7.6288,7.6288,7.6288,7.6288,7.6288,7.6537,7.704,7.708,7.7443,7.8195,7.8774,7.9386,8.0187,8.105,8.153,8.1639,8.2291,8.2867,8.3166,8.3144,8.3257,8.362,8.3933,8.4323,8.5105,8.5824,8.6516,8.7226,8.7492,8.7963,8.8874,8.9696,9.0373,9.1015,9.1281,9.1363,9.1367,9.1367,9.151,9.1661,9.1812,9.1812,9.1812,9.1812,9.1812,9.1812,9.1812,9.1812,9.1812,9.1812,9.1812,9.1812,9.1812,9.1812,9.1812,9.1812,9.1812,9.1812,9.1812,9.1812,9.1812,9.1812,9.1959,9.2175,9.3235,9.4368,9.5584,9.6167,9.6203,9.6644,9.6685,9.6727,7.6288,7.6288,7.6288,7.6288,7.6288,7.6288,7.6288,7.6288,7.6288,7.6288,7.6288,7.6288,7.6288,7.6288,7.6288,7.6288,7.6288,7.6288,7.6288,7.6288,7.6288,7.6288,7.6288,7.6288,7.6288,7.6288,7.6288,7.6288,7.6288,7.6288,7.6288,7.6288,7.6288,7.6288,7.6288,7.6288,7.6288,7.6288,7.6288,7.6288,7.6288,7.6288,7.6288,7.6288,7.6288,7.6288,7.6288,7.6537,7.6936,7.7438,7.7724,7.8376,7.9422,8.0223,8.1015,8.1817,8.2373,8.2668,8.2736,8.3207,8.3605,8.3895,8.4148,8.4284,8.4289,8.4497,8.4993,8.5667,8.6062,8.6803,8.7708,8.8266,8.8682,8.9187,8.9948,9.0704,9.1381,9.1592,9.1694,9.1758,9.1739,9.1776,9.1812,9.1812,9.1812,9.1812,9.1812,9.1812,9.1812,9.1812,9.1812,9.1812,9.1812,9.1812,9.1812,9.1812,9.1812,9.1812,9.1812,9.1812,9.1812,9.1812,9.1812,9.1812,9.1923,9.2106,9.2762,9.3822,9.5034,9.636,9.6617,9.6539,9.6685,9.669,9.6727,7.6288,7.6288,7.6288,7.6288,7.6288,7.6288,7.6288,7.6288,7.6288,7.6288,7.6288,7.6288,7.6288,7.6288,7.6288,7.6288,7.6288,7.6288,7.6288,7.6288,7.6288,7.6288,7.6288,7.6288,7.6356,7.6433,7.636,7.636,7.6396,7.6505,7.6505,7.6324,7.6392,7.646,7.636,7.6356,7.632,7.6396,7.636,7.6288,7.6288,7.6288,7.6324,7.636,7.6396,7.6428,7.6433,7.7076,7.7511,7.7728,7.834,7.9458,8.083,8.1749,8.2591,8.317,8.346,8.3492,8.3528,8.3673,8.4212,8.4791,8.5475,8.5914,8.5982,8.6448,8.6881,8.7082,8.7197,8.7512,8.8405,8.9167,8.9634,8.9941,9.0085,9.0599,9.1233,9.1481,9.1551,9.1744,9.1794,9.1808,9.1812,9.1812,9.1812,9.1812,9.1812,9.1812,9.1812,9.1812,9.1812,9.1812,9.1812,9.1812,9.1812,9.1812,9.1812,9.1812,9.1812,9.1812,9.1812,9.1812,9.1812,9.1812,9.1812,9.2033,9.3056,9.4116,9.5034,9.6098,9.6355,9.669,9.6727,9.6727,9.6727,7.6288,7.6288,7.6288,7.6288,7.6288,7.6288,7.6288,7.6288,7.6288,7.6288,7.6288,7.6288,7.6288,7.6288,7.6288,7.6288,7.6288,7.6288,7.6288,7.6324,7.6324,7.6324,7.6324,7.6324,7.6578,7.7044,7.7112,7.7112,7.7225,7.7651,7.7479,7.661,7.6863,7.7112,7.708,7.661,7.6533,7.7004,7.6573,7.6288,7.6288,7.6324,7.6537,7.7076,7.7112,7.737,7.7905,7.7656,7.8054,7.9064,7.9386,8.0255,8.1717,8.2663,8.3243,8.3496,8.4035,8.432,8.447,8.5289,8.5941,8.6416,8.7059,8.7416,8.7488,8.7665,8.7838,8.7983,8.8324,8.8846,8.9175,8.9847,9.0109,8.9645,9.0305,9.0878,9.1206,9.1541,9.1657,9.1629,9.1721,9.1799,9.1808,9.1808,9.1812,9.1812,9.1812,9.1812,9.1812,9.1812,9.1812,9.1812,9.1812,9.1812,9.1812,9.1812,9.1812,9.1812,9.1812,9.1991,9.1991,9.1991,9.1955,9.2069,9.2033,9.2469,9.3492,9.4336,9.5249,9.5878,9.6282,9.6502,9.6653,9.6727,9.6727,7.6288,7.6288,7.6288,7.6288,7.6288,7.6288,7.6288,7.6288,7.6288,7.6288,7.6288,7.6288,7.6288,7.6288,7.6288,7.6288,7.6288,7.6288,7.6469,7.665,7.6392,7.6465,7.6754,7.7076,7.7221,7.7511,7.7801,7.7941,7.7977,7.8372,7.8163,7.7438,7.7688,7.7941,7.7905,7.7479,7.7479,7.7801,7.7479,7.7185,7.7185,7.7185,7.7438,7.7873,7.7941,7.8372,7.9023,7.8661,7.8847,7.982,8.0404,8.1568,8.3025,8.3677,8.4071,8.447,8.4868,8.5262,8.5583,8.6366,8.7199,8.7529,8.8217,8.8466,8.8357,8.8389,8.8647,8.8724,8.9055,8.9541,8.9862,9.026,9.0328,8.9944,9.0482,9.0968,9.112,9.1457,9.1578,9.1499,9.1569,9.1671,9.1703,9.1785,9.1803,9.1812,9.1812,9.1812,9.1812,9.1812,9.1812,9.1812,9.1812,9.1812,9.1812,9.1812,9.1812,9.1812,9.1812,9.2138,9.2354,9.2464,9.2501,9.2983,9.3129,9.3529,9.4442,9.4662,9.5322,9.5768,9.6245,9.6502,9.6727,9.6727,9.6727,7.6392,7.6352,7.6324,7.6356,7.6428,7.6428,7.6537,7.6501,7.6541,7.661,7.6578,7.6678,7.6501,7.6428,7.6501,7.6433,7.6324,7.6465,7.6791,7.7117,7.6968,7.6968,7.7579,7.8159,7.819,7.8009,7.8484,7.8738,7.8774,7.8987,7.8774,7.8561,7.8625,7.8774,7.8702,7.8738,7.8593,7.8738,7.8629,7.8521,7.8521,7.8553,7.8738,7.8838,7.8955,7.9354,8.0187,8.0255,8.0146,8.0291,8.1608,8.313,8.4393,8.4796,8.5221,8.5945,8.6018,8.6411,8.6873,8.7271,8.7602,8.8244,8.8947,8.9164,8.8751,8.9164,8.9459,8.9463,8.9536,8.9789,9.0369,9.0586,9.055,9.0586,9.064,9.077,9.0892,9.1268,9.1387,9.133,9.1382,9.1536,9.1597,9.1726,9.179,9.1812,9.1812,9.1812,9.1812,9.1812,9.1845,9.1918,9.1991,9.2028,9.2102,9.1812,9.1881,9.2285,9.2248,9.2464,9.2827,9.301,9.3198,9.368,9.4084,9.4593,9.4919,9.4992,9.5359,9.5905,9.6313,9.6575,9.6727,9.6727,9.6764,7.7181,7.7112,7.6533,7.6646,7.7149,7.7185,7.7547,7.8014,7.8054,7.7946,7.8014,7.809,7.7651,7.7221,7.7185,7.6863,7.661,7.6931,7.7221,7.7547,7.7977,7.8127,7.8344,7.8593,7.8915,7.9204,7.9426,7.9598,7.9639,8.0105,7.9816,7.877,7.9349,7.9571,7.9526,7.906,7.9064,7.9422,7.8992,7.8774,7.8774,7.8774,7.9313,8.0391,8.0463,8.116,8.2364,8.255,8.2224,8.183,8.3202,8.4501,8.5511,8.6086,8.6655,8.7307,8.7525,8.7633,8.7923,8.8403,8.8843,8.9096,8.9748,9.0183,8.9997,9.0147,9.0297,9.0297,9.0297,9.0338,9.055,9.0623,9.0623,9.0637,9.0799,9.0791,9.0784,9.1154,9.1438,9.1287,9.1462,9.1634,9.1675,9.1735,9.179,9.1794,9.1803,9.1886,9.1923,9.1955,9.2065,9.2359,9.2464,9.2469,9.2359,9.2028,9.2102,9.2716,9.29,9.2978,9.334,9.3671,9.3896,9.4194,9.4341,9.4777,9.4845,9.4919,9.5465,9.6125,9.6497,9.6874,9.68,9.6759,9.6832,7.8014,7.7946,7.7511,7.7588,7.7982,7.8018,7.8271,7.8629,7.8702,7.8702,7.8702,7.8702,7.8444,7.8018,7.7977,7.776,7.7402,7.7801,7.8199,7.8666,7.9349,7.9318,7.9028,7.9245,7.978,7.9888,8.0255,8.04,8.0468,8.0898,8.054,7.9997,8.0182,8.0391,8.0391,7.9997,7.9888,8.025,7.9924,7.9712,7.9712,7.9707,8.0368,8.1377,8.1672,8.2364,8.3782,8.4289,8.4252,8.4112,8.476,8.5692,8.6774,8.723,8.7732,8.8203,8.8203,8.8321,8.8729,8.9169,8.9536,8.9862,9.04,9.055,9.055,9.0623,9.0623,9.0586,9.0623,9.0623,9.0654,9.0871,9.1233,9.1564,9.1416,9.1109,9.07,9.0975,9.112,9.1101,9.1221,9.1438,9.1452,9.1578,9.1671,9.1698,9.1758,9.2001,9.2285,9.2322,9.2464,9.2868,9.3125,9.3161,9.3161,9.2909,9.2946,9.3455,9.3969,9.3969,9.4185,9.4588,9.4997,9.5185,9.496,9.4887,9.518,9.5474,9.5914,9.6507,9.6837,9.7167,9.7204,9.7346,9.7346,7.8806,7.8806,7.8734,7.8738,7.881,7.8806,7.8951,7.8987,7.9091,7.9096,7.9096,7.9028,7.9023,7.8847,7.8806,7.8734,7.8629,7.8702,7.9313,7.9893,8.0472,8.0355,7.9716,8.0363,8.0536,8.0282,8.0794,8.097,8.0966,8.1074,8.1192,8.1015,8.1088,8.116,8.1124,8.1043,8.1038,8.1011,8.1088,8.1088,8.116,8.1264,8.1821,8.2555,8.3161,8.3745,8.4904,8.566,8.6163,8.6271,8.6204,8.6918,8.8099,8.8321,8.8466,8.8575,8.872,8.8942,8.9391,8.9608,8.9826,9.0405,9.055,9.0623,9.0623,9.0726,9.0804,9.0623,9.0731,9.1052,9.1161,9.159,9.2097,9.2496,9.2252,9.1632,9.1051,9.0915,9.0865,9.078,9.0938,9.0917,9.1138,9.1349,9.1742,9.249,9.2495,9.2813,9.3093,9.3166,9.3345,9.3634,9.3822,9.3969,9.3932,9.3859,9.4042,9.441,9.508,9.5337,9.5437,9.5804,9.6282,9.6396,9.5878,9.5841,9.6171,9.647,9.6727,9.7094,9.7645,9.7902,9.8053,9.8296,9.8364,7.9635,7.9607,7.8987,7.9064,7.9603,7.9639,8.0001,8.0499,8.0576,8.0504,8.0536,8.0536,8.0178,7.9639,7.9598,7.9309,7.8983,7.9386,8.0069,8.0789,8.097,8.1377,8.1242,8.1377,8.1006,8.0975,8.1006,8.1151,8.1156,8.1301,8.1418,8.1898,8.1414,8.1414,8.1821,8.1409,8.1079,8.1187,8.1712,8.2043,8.2188,8.2618,8.3238,8.4108,8.5185,8.6013,8.6597,8.7312,8.8,8.8336,8.8114,8.8176,8.8947,8.9169,8.9386,8.9785,8.9966,9.011,9.0297,9.0297,9.0405,9.055,9.0695,9.0623,9.0659,9.1233,9.1197,9.1057,9.1668,9.2273,9.2423,9.2599,9.2889,9.3075,9.293,9.2713,9.2386,9.1563,9.1301,9.1548,9.1438,9.1394,9.1968,9.2287,9.2678,9.321,9.3512,9.3799,9.3974,9.4084,9.4263,9.451,9.4891,9.5038,9.4997,9.496,9.5148,9.5254,9.5809,9.6181,9.6282,9.6539,9.6837,9.6795,9.6575,9.6685,9.6759,9.7383,9.7608,9.8043,9.8411,9.8672,9.8929,9.9176,9.9245,8.1599,8.1527,8.1128,8.0992,8.1097,8.1418,8.1414,8.1228,8.1527,8.1454,8.1151,8.1074,8.0866,8.0468,8.0463,8.0173,7.9997,8.025,8.0907,8.1527,8.1708,8.2106,8.255,8.2183,8.178,8.2143,8.2251,8.2215,8.2143,8.1893,8.1893,8.2197,8.1522,8.1301,8.1785,8.1708,8.1712,8.1853,8.2441,8.2881,8.2994,8.3279,8.4148,8.5185,8.6407,8.7271,8.8118,8.8517,8.9169,8.964,8.9562,8.949,8.9857,8.9971,9.0224,9.0478,9.0623,9.0623,9.0586,9.0623,9.0586,9.0659,9.0907,9.1125,9.1342,9.1916,9.2129,9.2025,9.246,9.3111,9.3505,9.3577,9.3691,9.3986,9.38,9.3732,9.3789,9.282,9.1979,9.2357,9.2256,9.2391,9.2706,9.3076,9.3381,9.3772,9.403,9.4304,9.4992,9.5102,9.5208,9.5506,9.5956,9.6144,9.6103,9.6098,9.6213,9.6208,9.6277,9.6507,9.6543,9.6837,9.7167,9.7057,9.6979,9.6869,9.7052,9.775,9.8447,9.8704,9.9035,9.9438,9.9805,10.0136,10.0062,8.3496,8.3496,8.3496,8.3093,8.2632,8.3134,8.2582,8.1527,8.2007,8.1785,8.1187,8.1074,8.1043,8.1043,8.1043,8.1119,8.1192,8.1043,8.1377,8.2084,8.2156,8.2627,8.3098,8.3025,8.3166,8.3745,8.3207,8.313,8.3093,8.2881,8.2699,8.2555,8.193,8.1957,8.1961,8.2115,8.2482,8.2591,8.3279,8.3677,8.3786,8.3926,8.4796,8.5909,8.7136,8.8041,8.8993,8.9463,8.9898,9.055,9.0623,9.0623,9.0623,9.0623,9.0623,9.0623,9.0767,9.0912,9.098,9.1016,9.1125,9.098,9.1559,9.1958,9.2134,9.2636,9.2925,9.307,9.3329,9.3908,9.4446,9.4917,9.5217,9.5476,9.514,9.514,9.5331,9.4493,9.4001,9.3142,9.2979,9.298,9.3374,9.3817,9.4047,9.4326,9.4622,9.4965,9.569,9.6304,9.6529,9.6639,9.7094,9.7424,9.7415,9.7305,9.7419,9.7057,9.6937,9.6979,9.7021,9.7246,9.7503,9.7429,9.7351,9.7419,9.7787,9.8594,9.9108,9.9365,9.9805,10.0324,10.0733,10.11,10.0843,8.3496,8.3496,8.3496,8.3419,8.3315,8.3456,8.3021,8.2192,8.2301,8.1857,8.1228,8.1115,8.1224,8.1187,8.1119,8.1454,8.1893,8.1708,8.1744,8.2378,8.2518,8.2944,8.3507,8.394,8.4505,8.4723,8.3859,8.3098,8.3528,8.3383,8.3564,8.3922,8.3379,8.3197,8.3415,8.3637,8.3311,8.3424,8.4071,8.4465,8.4615,8.5117,8.5878,8.6955,8.8114,8.8956,8.9427,9.0043,9.0473,9.0581,9.0623,9.0623,9.0623,9.0623,9.0623,9.0695,9.1088,9.1306,9.1487,9.2097,9.246,9.2641,9.2785,9.2853,9.3034,9.3577,9.4017,9.3877,9.4457,9.5331,9.6128,9.6485,9.707,9.7287,9.7106,9.7028,9.7106,9.6744,9.5864,9.4638,9.3975,9.3696,9.4432,9.5007,9.5299,9.5826,9.6364,9.6419,9.6717,9.7483,9.8112,9.8222,9.83,9.8589,9.8768,9.8658,9.8552,9.7933,9.7713,9.7713,9.7755,9.7764,9.7838,9.8127,9.8379,9.8594,9.9035,9.9512,9.9732,9.9916,10.0545,10.1215,10.1289,10.1325,10.1362,8.476,8.4755,8.4755,8.4506,8.4248,8.4578,8.4035,8.3066,8.3351,8.3093,8.2545,8.236,8.236,8.2328,8.2328,8.2586,8.2659,8.2582,8.2799,8.3388,8.356,8.361,8.4004,8.4507,8.478,8.48,8.4026,8.3895,8.461,8.4289,8.4397,8.4361,8.389,8.3714,8.404,8.4071,8.4071,8.4325,8.4864,8.5298,8.5371,8.609,8.6991,8.8191,8.892,8.9541,9.0043,9.0297,9.0586,9.0623,9.0623,9.0623,9.0623,9.0623,9.0623,9.069,9.1052,9.1451,9.174,9.2242,9.2454,9.3034,9.3696,9.4208,9.4565,9.5253,9.5688,9.5724,9.5874,9.6785,9.7184,9.7655,9.7763,9.7799,9.7872,9.7908,9.7872,9.7872,9.7158,9.616,9.5814,9.5751,9.6044,9.6495,9.6707,9.7264,9.7985,9.7982,9.7814,9.8589,9.9438,9.9323,9.9292,9.9544,9.9795,9.9837,9.9617,9.8998,9.8521,9.8521,9.8672,9.8787,9.9008,9.9296,9.9512,9.98,9.9659,9.9879,10.0177,10.0508,10.0953,10.132,10.1436,10.1509,10.1546,8.5914,8.5914,8.5914,8.5515,8.5117,8.5619,8.5086,8.4071,8.4366,8.4144,8.3569,8.346,8.3424,8.346,8.346,8.3533,8.3682,8.3564,8.3818,8.4393,8.4528,8.4557,8.4565,8.4755,8.4997,8.5024,8.4913,8.5262,8.5479,8.5194,8.4972,8.49,8.4289,8.3999,8.4248,8.476,8.49,8.5153,8.5479,8.5909,8.6271,8.6914,8.7887,8.9282,8.9577,8.9971,9.0436,9.055,9.0586,9.0623,9.0623,9.0623,9.0623,9.0623,9.0695,9.0799,9.0943,9.1487,9.2134,9.2682,9.3334,9.4094,9.5005,9.5559,9.6061,9.678,9.7582,9.7799,9.7975,9.7939,9.8048,9.8265,9.8374,9.8446,9.8555,9.8555,9.8591,9.8691,9.8917,9.8261,9.7797,9.7517,9.7597,9.7605,9.772,9.8109,9.879,9.8831,9.8809,9.9774,10.0398,10.0209,10.0209,10.0461,10.0681,10.0907,10.0613,10.0062,9.9585,9.9328,9.9622,9.9916,10.0246,10.0613,10.0833,10.0975,10.065,10.0361,10.0728,10.1063,10.1284,10.1394,10.1472,10.1582,10.1656,8.5914,8.5914,8.5914,8.5837,8.5769,8.5837,8.5402,8.4646,8.4719,8.4252,8.3714,8.3569,8.3641,8.3677,8.3637,8.3963,8.4216,8.4067,8.4175,8.4786,8.4813,8.4741,8.4796,8.5462,8.5436,8.5403,8.5567,8.5791,8.5837,8.5733,8.5697,8.5588,8.5515,8.5547,8.5298,8.5448,8.5728,8.5764,8.5878,8.623,8.6873,8.7628,8.8543,8.9386,9.0007,9.04,9.0581,9.0623,9.0623,9.0623,9.0623,9.0623,9.0623,9.0623,9.1016,9.1627,9.2315,9.3039,9.3691,9.4208,9.4896,9.5512,9.6351,9.6821,9.7432,9.7716,9.8078,9.783,9.8477,9.902,9.9274,9.96,9.9811,10.0101,10.0324,10.0252,10.0143,10.0123,10.0289,10.0086,9.958,9.8984,9.8707,9.8698,9.8755,9.9146,9.9502,9.958,9.9947,10.0985,10.1614,10.1494,10.1531,10.1788,10.1824,10.2008,10.1641,10.1169,10.0907,10.0461,10.0681,10.1127,10.1677,10.2008,10.2155,10.2081,10.1719,10.1541,10.1509,10.1472,10.1577,10.1546,10.1509,10.1619,10.1724,8.6556,8.6525,8.609,8.5914,8.5914,8.5914,8.5692,8.5443,8.5371,8.5194,8.49,8.4864,8.4864,8.4796,8.4864,8.5049,8.5262,8.4936,8.5008,8.5262,8.5297,8.5061,8.4844,8.5374,8.5694,8.5374,8.5594,8.5837,8.5914,8.5914,8.5914,8.5914,8.5914,8.5841,8.5982,8.5914,8.5914,8.5982,8.6303,8.6909,8.7669,8.8471,8.9241,9.0043,9.0395,9.055,9.0623,9.0623,9.0623,9.0623,9.0623,9.0623,9.0726,9.1052,9.1632,9.246,9.3215,9.3789,9.4229,9.501,9.5807,9.6713,9.7401,9.8332,9.8942,9.9123,9.9341,9.9884,10.0137,10.0463,10.0837,10.1344,10.1494,10.1675,10.1778,10.1711,10.1603,10.1831,10.1837,10.1622,10.1335,10.0756,10.0188,10.0064,9.9954,9.9914,10.054,10.1017,10.1531,10.2417,10.282,10.2931,10.3041,10.3224,10.3188,10.3188,10.2779,10.2448,10.2674,10.2301,10.2003,10.2333,10.2852,10.3151,10.3188,10.3041,10.2789,10.2275,10.1871,10.1834,10.1798,10.1944,10.2018,10.1729,10.2055,8.7271,8.7575,8.6597,8.6163,8.6158,8.5982,8.5914,8.5909,8.5878,8.5878,8.5914,8.5841,8.5841,8.5878,8.5805,8.5769,8.5878,8.5914,8.5914,8.5914,8.5811,8.5444,8.5292,8.5579,8.5545,8.4787,8.5579,8.589,8.5982,8.609,8.6158,8.5945,8.6199,8.6199,8.6194,8.6267,8.6267,8.6303,8.6692,8.7447,8.8398,8.9029,8.9785,9.0333,9.0623,9.0623,9.0623,9.0623,9.0623,9.0623,9.0623,9.0695,9.1011,9.1451,9.2242,9.3143,9.4048,9.4669,9.5031,9.5548,9.6092,9.707,9.8265,9.9413,9.9884,10.0246,10.053,10.1037,10.1188,10.1706,10.2369,10.2514,10.24,10.2442,10.2695,10.2701,10.2754,10.2883,10.2836,10.2513,10.2365,10.2536,10.2009,10.1619,10.128,10.0902,10.1352,10.227,10.2967,10.3701,10.3701,10.3812,10.4436,10.4472,10.4247,10.4137,10.377,10.3623,10.3848,10.3701,10.3182,10.3398,10.398,10.4132,10.4179,10.41,10.3875,10.3036,10.2238,10.2569,10.2789,10.271,10.2637,10.2312,10.2563,8.7891,8.9101,8.7566,8.6945,8.6868,8.6199,8.5945,8.6126,8.6018,8.6023,8.6018,8.5945,8.5982,8.5914,8.5914,8.5914,8.5914,8.5914,8.5914,8.5914,8.589,8.5788,8.5716,8.5745,8.5826,8.5711,8.5994,8.6035,8.6126,8.6728,8.6443,8.6086,8.6696,8.6877,8.6945,8.695,8.6945,8.6981,8.7235,8.7964,8.8874,8.9463,8.9862,9.0441,9.0623,9.0623,9.0623,9.0623,9.0623,9.0623,9.0731,9.1016,9.1445,9.1953,9.2811,9.3944,9.4855,9.5548,9.6128,9.6526,9.7003,9.7939,9.917,10.036,10.0614,10.0318,10.0639,10.143,10.1731,10.2026,10.2436,10.2653,10.2979,10.316,10.3414,10.3414,10.3518,10.3816,10.3718,10.3369,10.3307,10.3462,10.3604,10.3121,10.2475,10.2086,10.2705,10.3586,10.3958,10.4509,10.4404,10.4624,10.5616,10.572,10.5196,10.4976,10.4902,10.4614,10.4541,10.432,10.3917,10.4389,10.5013,10.5049,10.5054,10.5007,10.4965,10.432,10.3848,10.378,10.3707,10.3408,10.3549,10.3623,10.3911,8.8398,8.9319,8.8698,8.8217,8.7701,8.7452,8.7307,8.7307,8.7312,8.7022,8.6515,8.6556,8.6303,8.6018,8.5914,8.5914,8.5914,8.5914,8.5914,8.5914,8.5914,8.5914,8.5914,8.5914,8.5909,8.6023,8.6344,8.6593,8.6696,8.7375,8.7556,8.7483,8.7669,8.7669,8.7742,8.7742,8.7742,8.7887,8.8186,8.8915,8.921,8.9934,9.0297,9.055,9.0623,9.0623,9.0623,9.0623,9.0623,9.0731,9.1088,9.1518,9.2025,9.2672,9.3691,9.4819,9.5662,9.6495,9.7251,9.7799,9.8627,9.992,10.1012,10.1603,10.1416,10.1224,10.1689,10.2196,10.2316,10.2508,10.3765,10.4024,10.4127,10.4127,10.4091,10.4096,10.4247,10.449,10.4666,10.4373,10.4306,10.4362,10.4499,10.4562,10.388,10.3334,10.4137,10.4798,10.506,10.5427,10.5395,10.5616,10.657,10.6748,10.6224,10.615,10.6119,10.5715,10.5311,10.5018,10.4798,10.539,10.5862,10.5899,10.5825,10.5747,10.5678,10.5605,10.5317,10.4839,10.432,10.3806,10.4168,10.4719,10.5007,8.8466,8.9319,8.9137,8.8874,8.8543,8.8316,8.8203,8.8167,8.7882,8.7411,8.6692,8.6655,8.6407,8.6018,8.5914,8.6126,8.6126,8.609,8.609,8.609,8.6054,8.595,8.5914,8.5945,8.6054,8.6271,8.6701,8.7022,8.7411,8.8176,8.8435,8.858,8.8792,8.8833,8.8543,8.8534,8.858,8.8729,8.9024,8.9608,8.9789,9.026,9.055,9.0623,9.0623,9.0623,9.0623,9.0623,9.0799,9.1088,9.1487,9.2025,9.2708,9.3582,9.4674,9.5626,9.6501,9.7329,9.8084,9.8694,9.9744,10.0892,10.1555,10.2146,10.2327,10.1954,10.1979,10.3216,10.3046,10.3238,10.467,10.4706,10.4634,10.4561,10.4556,10.4579,10.4798,10.5046,10.5318,10.5404,10.5385,10.5342,10.5385,10.5495,10.5207,10.4582,10.4572,10.5275,10.5794,10.6203,10.6612,10.6937,10.7561,10.7482,10.7257,10.7257,10.7183,10.657,10.6161,10.5862,10.5862,10.6308,10.6423,10.6198,10.6198,10.6344,10.6271,10.6051,10.5862,10.56,10.5123,10.4724,10.5018,10.5532,10.5526,8.7959,8.9246,8.8543,8.8647,8.9091,8.8497,8.8244,8.8208,8.7556,8.6805,8.623,8.6122,8.6054,8.5914,8.5914,8.6163,8.6484,8.6235,8.6271,8.6593,8.652,8.6126,8.6023,8.609,8.6339,8.6841,8.7199,8.7592,8.8208,8.8978,8.9314,8.9531,8.9785,8.9929,8.9427,8.9396,8.9396,8.9396,8.9463,8.9898,9.0297,9.055,9.0586,9.0623,9.0623,9.0623,9.0623,9.0804,9.1052,9.1518,9.1989,9.2708,9.3717,9.4193,9.5176,9.6454,9.7323,9.8156,9.8911,9.9056,10.0101,10.1436,10.2135,10.2497,10.2508,10.2207,10.2268,10.3759,10.3227,10.3559,10.4314,10.4882,10.4918,10.5183,10.5261,10.5172,10.5355,10.5481,10.5725,10.5988,10.6236,10.6376,10.6334,10.6344,10.6308,10.5941,10.5453,10.571,10.635,10.7011,10.7524,10.7892,10.8363,10.8327,10.8175,10.8358,10.8175,10.7561,10.69,10.6381,10.6308,10.6533,10.657,10.646,10.6607,10.6827,10.6643,10.6423,10.6271,10.6119,10.6161,10.6014,10.6198,10.6198,10.6082,8.7312,8.7824,8.8063,8.8353,8.8538,8.8321,8.8461,8.8802,8.814,8.7343,8.6733,8.6619,8.6303,8.6054,8.5982,8.6122,8.6344,8.68,8.6909,8.7022,8.7167,8.7054,8.6805,8.666,8.68,8.709,8.7483,8.8217,8.9024,8.9753,9.011,9.0328,9.0369,9.0441,9.026,9.0188,9.0188,9.0188,9.0224,9.0333,9.0586,9.0623,9.0623,9.0623,9.0623,9.0623,9.0731,9.1057,9.1523,9.2061,9.2568,9.3577,9.441,9.485,9.6195,9.7287,9.8151,9.9237,10.0324,10.1048,10.1608,10.2322,10.2962,10.3505,10.3982,10.3372,10.3692,10.4012,10.3734,10.4277,10.5316,10.5099,10.5213,10.6123,10.6237,10.5873,10.5855,10.5832,10.5985,10.6239,10.6489,10.701,10.7194,10.7152,10.7115,10.6895,10.6371,10.6381,10.6906,10.7739,10.8363,10.8657,10.8951,10.8982,10.9019,10.8835,10.8505,10.7855,10.7084,10.6455,10.6497,10.668,10.6979,10.7016,10.7199,10.7304,10.7194,10.7047,10.679,10.6643,10.668,10.6533,10.635,10.6313,10.6313,8.7022,8.7054,8.7556,8.7954,8.8208,8.8502,8.8947,8.9246,8.8833,8.8176,8.7488,8.7121,8.6945,8.666,8.6411,8.6815,8.7032,8.724,8.7747,8.7778,8.799,8.7809,8.752,8.7442,8.7706,8.785,8.8326,8.9019,8.9794,9.0338,9.0514,9.055,9.0623,9.0586,9.055,9.0514,9.055,9.0514,9.0514,9.055,9.0623,9.0623,9.0623,9.0623,9.0659,9.0726,9.1088,9.1518,9.2097,9.2713,9.3505,9.4374,9.4891,9.5802,9.6961,9.7758,9.9196,10.021,10.1188,10.2388,10.2726,10.301,10.4054,10.4556,10.4664,10.3982,10.4411,10.4664,10.4453,10.5208,10.6041,10.5642,10.6135,10.7046,10.701,10.664,10.6565,10.6611,10.6721,10.6943,10.7233,10.7691,10.8002,10.796,10.7923,10.7593,10.7257,10.7378,10.7456,10.8112,10.8804,10.9092,10.9496,10.9716,10.9428,10.8914,10.8547,10.8075,10.7304,10.6455,10.646,10.6607,10.7089,10.7462,10.7273,10.7267,10.7708,10.7671,10.7231,10.7084,10.7194,10.6937,10.6533,10.668,10.6974,8.7013,8.7022,8.7022,8.7442,8.8213,8.8947,8.9324,8.9282,8.9277,8.8838,8.813,8.737,8.7375,8.7846,8.7339,8.7706,8.8621,8.8362,8.8657,8.891,8.8792,8.8466,8.8321,8.8249,8.8507,8.9024,8.935,8.9531,9.0478,9.0586,9.0586,9.0623,9.0623,9.0623,9.0623,9.0623,9.0623,9.0623,9.0623,9.0623,9.0623,9.0623,9.0623,9.0623,9.0623,9.1016,9.1409,9.1916,9.278,9.3505,9.4229,9.4746,9.5367,9.6169,9.7003,9.8265,10.0204,10.1115,10.1767,10.2937,10.362,10.3765,10.3873,10.4302,10.4483,10.438,10.4773,10.5244,10.5322,10.6185,10.6874,10.7059,10.7274,10.7614,10.7765,10.7636,10.7557,10.7625,10.7802,10.803,10.8273,10.8584,10.8809,10.8804,10.8694,10.84,10.8106,10.7923,10.8002,10.8117,10.8804,10.9276,10.9753,11.0377,11.001,10.9318,10.8767,10.8363,10.7189,10.6381,10.646,10.6754,10.7451,10.7708,10.7121,10.7084,10.7341,10.7488,10.7482,10.7482,10.7745,10.7745,10.7488,10.785,10.8106,8.752,8.7018,8.7022,8.7158,8.7525,8.8843,8.8775,8.7819,8.8254,8.8353,8.8203,8.799,8.8063,8.8167,8.7949,8.8208,8.8538,8.8869,8.9133,8.935,8.9598,8.9417,8.9236,8.9055,8.9241,8.9355,8.9572,8.9862,9.0441,9.0623,9.0623,9.0623,9.0623,9.0623,9.0623,9.0623,9.0623,9.0623,9.0623,9.0623,9.0623,9.0623,9.0623,9.0623,9.0695,9.1161,9.1735,9.2423,9.3287,9.4012,9.4746,9.5269,9.5373,9.6671,9.7939,9.9527,10.1121,10.2291,10.2503,10.3698,10.4525,10.4447,10.4489,10.4586,10.4773,10.4845,10.5069,10.5642,10.6185,10.691,10.7663,10.8036,10.8401,10.8729,10.8744,10.8572,10.8535,10.8682,10.8853,10.8922,10.9166,10.9349,10.9538,10.9648,10.9538,10.9244,10.8987,10.8804,10.8662,10.8809,10.8919,10.9428,11.0083,11.0744,11.0414,10.9753,10.9202,10.8573,10.7514,10.6785,10.6864,10.7299,10.7954,10.8211,10.807,10.7409,10.6754,10.7115,10.7923,10.8149,10.8406,10.8442,10.8552,10.8951,10.9019,8.7732,8.709,8.738,8.7483,8.7706,8.8838,8.8807,8.8181,8.8797,8.9159,8.9118,8.8828,8.8828,8.9154,8.8901,8.8901,8.9299,8.9671,8.9929,9.0079,9.0374,9.0188,8.9971,8.9862,8.9898,8.9867,8.9934,9.0183,9.0514,9.0623,9.0623,9.0623,9.0623,9.0623,9.0623,9.0623,9.0623,9.0623,9.0623,9.0623,9.0623,9.0623,9.0623,9.0695,9.084,9.1487,9.2237,9.3034,9.3831,9.4524,9.5269,9.5378,9.5662,9.6889,9.8797,10.0318,10.1711,10.2653,10.3118,10.4127,10.4706,10.4918,10.4918,10.4882,10.5057,10.5208,10.5817,10.6463,10.6946,10.7513,10.8224,10.891,10.9463,11.0046,10.977,10.9527,10.9592,10.9744,10.9788,10.981,10.9931,11.012,11.0267,11.0377,11.0414,11.0267,11.0157,11.012,10.9832,10.9648,10.9617,10.9758,11.045,11.1106,11.0628,11.0157,10.9643,10.9092,10.8468,10.785,10.7635,10.7776,10.8437,10.8945,10.9318,10.8584,10.7781,10.8106,10.8657,10.8919,10.925,10.9433,10.9648,11.001,10.99,8.7768,8.7199,8.7954,8.828,8.8425,8.9205,8.95,8.9572,9.0142,9.055,9.0364,8.9831,8.9862,9.0074,8.9743,8.9857,9.0074,9.0364,9.04,9.0581,9.055,9.0478,9.0478,9.0586,9.0369,9.0514,9.055,9.0441,9.055,9.0623,9.0623,9.0623,9.0623,9.0623,9.0623,9.0623,9.0623,9.0623,9.0623,9.0623,9.0623,9.0623,9.0659,9.0871,9.1414,9.2139,9.2998,9.3831,9.4591,9.5191,9.5523,9.559,9.6454,9.7178,9.916,10.0717,10.2032,10.2834,10.3517,10.4417,10.4882,10.5027,10.5027,10.528,10.5606,10.5636,10.6216,10.694,10.7453,10.8297,10.9044,10.95,11.0039,11.04,11.0388,11.0235,11.0278,11.0423,11.0538,11.0555,11.0592,11.0739,11.0775,11.0854,11.0817,11.0959,11.0995,11.0959,11.0817,11.0456,11.0346,11.0199,11.0707,11.1179,11.0922,11.0487,11.0089,10.9575,10.9055,10.8652,10.8248,10.8468,10.8877,10.9318,10.9685,10.9685,10.9323,10.9318,10.9391,10.9905,11.0199,11.0456,11.0707,11.0812,11.0702,8.8099,8.7986,8.8766,8.9096,8.921,8.9971,9.0297,9.0333,9.0473,9.0623,9.055,9.0405,9.0369,9.0478,9.0369,9.0441,9.0514,9.0623,9.0623,9.0586,9.0623,9.0623,9.0623,9.0623,9.0623,9.0623,9.0623,9.0623,9.0623,9.0623,9.0623,9.0623,9.0623,9.0623,9.0623,9.0623,9.0623,9.0623,9.0623,9.0623,9.0623,9.0695,9.0804,9.1306,9.1921,9.2677,9.3468,9.4084,9.5103,9.5988,9.6242,9.6966,9.8115,9.8518,9.96,10.1157,10.2213,10.2937,10.377,10.4489,10.5027,10.5564,10.5781,10.6216,10.6397,10.6216,10.6511,10.7314,10.8122,10.9057,10.9738,11.0107,11.0407,11.066,11.0934,11.0874,11.088,11.1027,11.1179,11.1216,11.1216,11.1216,11.1216,11.1216,11.1216,11.1179,11.1179,11.1142,11.1142,11.0928,11.0854,11.0781,11.0885,11.1142,11.0995,11.0817,11.0419,11.0015,10.9496,10.9166,10.8903,10.9312,10.9716,10.9727,10.9911,10.9979,10.9979,10.9764,10.9979,11.0529,11.0781,11.0854,11.0928,11.1069,11.1069,8.7665,8.7809,8.8915,8.9391,8.9536,9.026,9.0623,9.0623,9.0623,9.0623,9.0623,9.0623,9.0623,9.0623,9.0623,9.0623,9.0623,9.0623,9.0623,9.0623,9.0623,9.0623,9.0623,9.0623,9.0623,9.0623,9.0623,9.0623,9.0623,9.0623,9.0623,9.0623,9.0623,9.0623,9.0623,9.0623,9.0623,9.0623,9.0623,9.0623,9.0695,9.0948,9.1233,9.1776,9.2568,9.3324,9.3867,9.4524,9.5476,9.6423,9.6858,9.7691,9.8518,9.8875,10.0034,10.1416,10.2472,10.3057,10.3982,10.4628,10.5135,10.5564,10.6077,10.63,10.6625,10.6595,10.7475,10.8284,10.8953,10.9811,10.9989,11.0303,11.0534,11.0774,11.099,11.1061,11.1069,11.1142,11.1216,11.1216,11.1216,11.1216,11.1216,11.1216,11.1216,11.1216,11.1216,11.1216,11.1216,11.1216,11.1216,11.1216,11.1216,11.1216,11.1142,11.1001,11.0786,11.034,11.001,11.0078,11.0115,11.0335,11.056,11.0456,11.0419,11.045,11.0377,11.0236,11.0382,11.0817,11.1032,11.1142,11.1216,11.1216,11.1179,8.6945,8.7199,8.8734,8.9391,8.95,9.026,9.0623,9.0623,9.0623,9.0623,9.0623,9.0623,9.0623,9.0623,9.0623,9.0623,9.0623,9.0623,9.0623,9.0623,9.0623,9.0623,9.0623,9.0623,9.0623,9.0623,9.0623,9.0623,9.0623,9.0623,9.0623,9.0623,9.0623,9.0623,9.0623,9.0623,9.0623,9.0623,9.0623,9.0623,9.0912,9.1378,9.174,9.2423,9.3287,9.4151,9.4524,9.5,9.5813,9.6858,9.7722,9.8555,9.9165,9.9594,10.0722,10.1965,10.2726,10.3553,10.4447,10.4809,10.5027,10.5316,10.5877,10.6425,10.6834,10.7641,10.8553,10.9127,10.979,11.0126,11.0303,11.0484,11.0671,11.0864,11.1063,11.1216,11.1216,11.1216,11.1216,11.1216,11.1216,11.1216,11.1216,11.1216,11.1216,11.1216,11.1216,11.1216,11.1216,11.1216,11.1216,11.1216,11.1216,11.1216,11.1216,11.1106,11.0964,11.0928,11.0665,11.0995,11.1179,11.0995,11.0922,11.1032,11.1032,11.088,11.0922,11.0885,11.1069,11.1069,11.1142,11.1216,11.1216,11.1216,11.1216,8.6484,8.7126,8.8739,8.9391,8.95,9.0255,9.0623,9.0623,9.0623,9.0623,9.0623,9.0623,9.0623,9.0623,9.0623,9.0623,9.0623,9.0623,9.0623,9.0623,9.0623,9.0623,9.0623,9.0623,9.0623,9.0623,9.0623,9.0623,9.0623,9.0623,9.0623,9.0623,9.0623,9.0623,9.0623,9.0623,9.0623,9.0623,9.0623,9.0623,9.0871,9.1414,9.2175,9.2858,9.365,9.4457,9.5005,9.5264,9.6242,9.751,9.8736,9.9419,9.9889,10.0282,10.1302,10.2177,10.2943,10.3765,10.4483,10.4845,10.499,10.5634,10.6405,10.7392,10.8036,10.8998,10.9627,10.9856,11.0313,11.0434,11.0597,11.0677,11.0853,11.1024,11.1205,11.1216,11.1216,11.1216,11.1216,11.1216,11.1216,11.1216,11.1216,11.1216,11.1216,11.1216,11.1216,11.1216,11.1216,11.1216,11.1216,11.1216,11.1216,11.1216,11.1216,11.1216,11.1142,11.1179,11.1216,11.1216,11.1216,11.1216,11.1216,11.1216,11.1216,11.1106,11.1216,11.1216,11.1216,11.1142,11.1179,11.1216,11.1216,11.1216,11.1216]},{"header":{"parameterUnit":"m.s-1","parameterCategory":1,"la1":31.0,"la2":29.5877,"lo1":-88.7671,"lo2":-86.6584,"dy":0.0162,"dx":0.0185,"nx":115,"ny":88,"refTime":"2024-10-08T12:00:00:Z","depth":0,"parameterNumber":3,"parameterNumberName":"V-component_of_WINDS"},"data":[0.0,0.0,0.0,0.0,0.0,0.0,0.0,0.0,0.0,0.0,0.0,0.0,0.0,0.0,0.0,0.0,0.0,0.0,0.0,0.0,0.0,0.0,0.0,0.0,0.0,0.0,0.0,0.0,0.0,0.0,0.0,0.0,0.0,0.0,0.0,0.0,0.0,0.0,0.0,0.0,0.0,0.0,0.0,0.0,0.0,0.0,0.0,0.0,0.0,0.0,0.0,0.0,0.0,0.0,0.0,0.0,0.0,0.0,0.0,0.0,0.0,0.0,0.0,0.0,0.0,0.0,0.0,0.0,0.0,0.0,0.0,0.0,0.0,0.0,0.0,0.0,0.0,0.0,0.0,0.0,0.0,0.0,0.0,0.0,0.0,0.0,0.0,0.0,0.0,0.0,0.0,0.0,0.0,0.0,0.0,0.0,0.0,0.0,0.0,0.0,0.0,0.0,0.0,0.0,0.0,0.0,0.0,0.0,0.0,0.0,0.0,0.0,0.0,0.0,0.0,0.0,0.0,0.0,0.0,0.0,0.0,0.0,0.0,0.0,0.0,0.0,0.0,0.0,0.0,0.0,0.0,0.0,0.0,0.0,0.0,0.0,0.0,0.0,0.0,0.0,0.0,0.0,0.0,0.0,0.0,0.0,0.0,0.0,0.0,0.0,0.0,0.0,0.0,0.0,0.0,0.0,0.0,0.0,0.0,0.0,0.0,0.0,0.0,0.0,0.0,0.0,0.0,0.0,0.0,0.0,0.0,0.0,0.0,0.0,0.0,0.0,0.0,0.0,0.0,0.0,0.0,0.0,0.0,0.0,0.0,0.0,0.0,0.0,0.0,0.0,0.0,0.0,0.0,0.0,0.0,0.0,0.0,0.0,0.0,0.0,0.0,0.0,0.0,0.0,0.0,0.0,0.0,0.0,0.0,0.0,0.0,0.0,0.0,0.0,0.0,0.0,0.0,0.0,0.0,0.0,0.0,0.0,0.0,0.0,0.0,0.0,0.0,0.0,0.0,0.0,0.0,0.0,0.0,0.0,0.0,0.0,0.0,0.0,0.0,0.0,0.0,0.0,0.0,0.0,0.0,0.0,0.0,0.0,0.0,0.0,0.0,0.0,0.0,0.0,0.0,0.0,0.0,0.0,0.0,0.0,0.0,0.0,0.0,0.0,0.0,0.0,0.0,0.0,0.0,0.0,0.0,0.0,0.0,0.0,0.0,0.0,0.0,0.0,0.0,0.0,0.0,0.0,0.0,0.0,0.0,0.0,0.0,0.0,0.0,0.0,0.0,0.0,0.0,0.0,0.0,0.0,0.0,0.0,0.0,0.0,0.0,0.0,0.0,0.0,0.0,0.0,0.0,0.0,0.0,0.0,0.0,0.0,0.0,0.0,0.0,0.0,0.0,0.0,0.0,0.0,0.0,0.0,0.0,0.0,0.0,0.0,0.0,0.0,0.0,0.0,0.0,0.0,0.0,0.0,0.0,0.0,0.0,0.0,0.0,0.0,0.0,0.0,0.0,0.0,0.0,0.0,0.0,0.0,0.0,0.0,0.0,0.0,0.0,0.0,0.0,0.0,0.0,0.0,0.0,0.0,0.0,0.0,0.0,0.0,0.0,0.0,0.0,0.0,0.0,0.0,0.0,0.0,0.0,0.0,0.0,0.0,0.0,0.0,0.0,0.0,0.0,0.0,0.0,0.0,0.0,0.0,0.0,0.0,0.0,0.0,0.0,0.0,0.0,0.0,0.0,0.0,0.0,0.0,0.0,0.0,0.0,0.0,0.0,0.0,0.0,0.0,0.0,0.0,0.0,0.0,0.0,0.0,0.0,0.0,0.0,0.0,0.0,0.0,0.0,0.0,0.0,0.0,0.0,0.0,0.0,0.0,0.0,0.0,0.0,0.0,0.0,0.0,0.0,0.0,0.0,0.0,0.0,0.0,0.0,0.0,0.0,0.0,0.0,0.0,0.0,0.0,0.0,0.0,0.0,0.0,0.0,0.0,0.0,0.0,0.0,0.0,0.0,0.0,0.0,0.0,0.0,0.0,0.0,0.0,0.0,0.0,0.0,0.0,0.0,0.0,0.0,0.0,0.0,0.0,0.0,0.0,0.0,0.0,0.0,0.0,0.0,0.0,0.0,0.0,0.0,0.0,0.0,0.0,0.0,0.0,0.0,0.0,0.0,0.0,0.0,0.0,0.0,0.0,0.0,0.0,0.0,0.0,0.0,0.0,0.0,0.0,0.0,0.0,0.0,0.0,0.0,0.0,0.0,0.0,0.0,0.0,0.0,0.0,0.0,0.0,0.0,0.0,0.0,0.0,0.0,0.0,0.0,0.0,0.0,0.0,0.0,0.0,0.0,0.0,0.0,0.0,0.0,0.0,0.0,0.0,0.0,0.0,0.0,0.0,0.0,0.0,0.0,0.0,0.0,0.0,0.0,0.0,0.0,0.0,0.0,0.0,0.0,0.0,0.0,0.0,0.0,0.0,0.0,0.0,0.0,0.0,0.0,0.0,0.0,0.0,0.0,0.0,0.0,0.0,0.0,0.0,0.0,0.0,0.0,0.0,0.0,0.0,0.0,0.0,0.0,0.0,0.0,0.0,0.0,0.0,0.0,0.0,0.0,0.0,0.0,0.0,0.0,0.0,0.0,0.0,0.0,0.0,0.0,0.0,0.0,0.0,0.0,0.0,0.0,0.0,0.0,0.0,0.0,0.0,0.0,0.0,0.0,0.0,0.0,0.0,0.0,0.0,0.0,0.0,0.0,0.0,0.0,0.0,0.0,0.0,0.0,0.0,0.0,0.0,0.0,0.0,0.0,0.0,0.0,0.0,0.0,0.0,0.0,0.0,0.0,0.0,0.0,0.0,0.0,0.0,0.0,0.0,0.0,0.0,0.0,0.0,0.0,0.0,0.0,0.0,0.0,0.0,0.0,0.0,0.0,0.0,0.0,0.0,0.0,0.0,0.0,0.0,0.0,0.0,0.0,0.0,0.0,0.0,0.0,0.0,0.0,0.0,0.0,0.0,0.0,0.0,0.0,0.0,0.0,0.0,0.0,0.0,0.0,0.0,0.0,0.0,0.0,0.0,0.0,0.0,0.0,0.0,0.0,0.0,0.0,0.0,0.0,0.0,0.0,0.0,0.0,0.0,0.0,0.0,0.0,0.0,0.0,0.0,0.0,0.0,0.0,0.0,0.0,0.0,0.0,0.0,0.0,0.0,0.0,0.0,0.0,0.0,0.0,0.0,0.0,0.0,0.0,0.0,0.0,0.0,0.0,0.0,0.0,0.0,0.0,0.0,0.0,0.0,0.0,0.0,0.0,0.0,0.0,0.0,0.0,0.0,0.0,0.0,0.0,0.0,0.0,0.0,0.0,0.0,0.0,0.0,0.0,0.0,0.0,0.0,0.0,0.0,0.0,0.0,0.0,0.0,0.0,0.0,0.0,0.0,0.0,0.0,0.0,0.0,0.0,0.0,0.0,0.0,0.0,0.0,0.0,0.0,0.0,0.0,0.0,0.0,0.0,0.0,0.0,0.0,0.0,0.0,0.0,0.0,0.0,0.0,0.0,0.0,0.0,0.0,0.0,0.0,0.0,0.0,0.0,0.0,0.0,0.0,0.0,0.0,0.0,0.0,0.0,0.0,0.0,0.0,0.0,0.0,0.0,0.0,0.0,0.0,0.0,0.0,0.0,0.0,0.0,0.0,0.0,0.0,0.0,0.0,0.0,0.0,0.0,0.0,0.0,0.0,0.0,0.0,0.0,0.0,0.0,0.0,0.0,0.0,0.0,0.0,0.0,0.0,0.0,0.0,0.0,0.0,0.0,0.0,0.0,0.0,0.0,0.0,0.0,0.0,0.0,0.0,0.0,0.0,0.0,0.0,0.0,0.0,0.0,0.0,0.0,0.0,0.0,0.0,0.0,0.0,0.0,0.0,0.0,0.0,0.0,0.0,0.0,0.0,0.0,0.0,0.0,0.0,0.0,0.0,0.0,0.0,0.0,0.0,0.0,0.0,0.0,0.0,0.0,0.0,0.0,0.0,0.0,0.0,0.0,0.0,0.0,0.0,0.0,0.0,0.0,0.0,0.0,0.0,0.0,0.0,0.0,0.0,0.0,0.0,0.0,0.0,0.0,0.0,0.0,0.0,0.0,0.0,0.0,0.0,0.0,0.0,0.0,0.0,0.0,0.0,0.0,0.0,0.0,0.0,0.0,0.0,0.0,0.0,0.0,0.0,0.0,0.0,0.0,0.0,0.0,0.0,0.0,0.0,0.7879,0.0,0.0,0.0,0.0,0.0,0.0,0.0,0.0,0.0,0.0,0.0,0.0,0.0,0.0,0.0,0.0,0.0,0.0,0.0,0.0,0.0,0.0,0.0,0.0,0.0,0.0,0.0,0.0,0.0,0.0,0.0,0.0,0.0,0.0,0.0,0.0,0.0,0.0,0.0,0.0,0.0,0.0,0.0,0.0,0.0,0.0,0.0,0.0,0.0,0.0,0.0,0.0,0.0,0.0,0.0,0.0,0.0,0.0,0.0,0.0,0.0,0.0,0.0,0.0,0.0,0.0,0.0,0.0,0.0,0.0,0.0,0.0,0.0,0.0,0.0,0.0,0.0,0.0,0.0,0.0,0.0,0.0,0.0,0.0,0.0,0.0,0.0,0.0,0.0,0.0,0.0,0.0,0.0,0.0,0.0,0.0,0.0,0.0,0.0,0.0,0.0,0.0,0.0,0.0,0.0,0.0,0.0,0.0,0.0,0.0,0.8186,0.8406,0.8069,0.7913,0.7992,0.0,0.0,0.0,0.0,0.0,0.0,0.0,0.0,0.0,0.0,0.0,0.0,0.0,0.0,0.0,0.0,0.0,0.0,0.0,0.0,0.0,0.0,0.0,0.0,0.0,0.0,0.0,0.0,0.0,0.0,0.0,0.0,0.0,0.0,0.0,0.0,0.0,0.0,0.0,0.0,0.0,0.0,0.0,0.0,0.0,0.0,0.0,0.0,0.0,0.0,0.0,0.0,0.0,0.0,0.0,0.0,0.0,0.0,0.0,0.0,0.0,0.0,0.0,0.0,0.0,0.0,0.0,0.0,0.0,0.0,0.0,0.0,0.0,0.0,0.0,0.0,0.0,0.0,0.0,0.0,0.0,0.0,0.0,0.0,0.0,0.0,0.0,0.0,0.0,0.0,0.0,0.0,0.0,0.0,0.0,0.0,0.0,0.0,0.0,0.0,0.0,0.0,0.0,0.0,0.0,0.0,0.0,0.0,0.0,0.0,0.0,0.0,0.8287,0.8087,0.8011,0.0,0.0,0.0,0.0,0.0,0.0,0.0,0.0,0.0,0.0,0.0,0.0,0.0,0.0,0.0,0.0,0.0,0.0,0.0,0.0,0.0,0.0,0.0,0.0,0.0,0.0,0.0,0.0,0.0,0.0,0.0,0.0,0.0,0.0,0.0,0.0,0.0,0.0,0.0,0.0,0.0,0.0,0.0,0.0,0.0,0.0,0.0,0.0,0.0,0.0,0.0,0.0,0.0,0.0,0.0,0.0,0.0,0.0,0.0,0.0,0.0,0.0,0.0,0.0,0.0,0.0,0.0,0.0,0.0,0.0,0.0,0.0,0.0,0.0,0.0,0.0,0.0,0.0,0.0,0.0,0.0,0.0,0.0,0.0,0.0,0.0,0.0,0.0,0.0,0.0,0.0,0.0,0.0,0.0,0.0,0.0,0.0,0.0,0.0,0.0,0.0,0.0,0.0,0.0,0.0,0.0,0.0,0.0,0.0,0.0,0.8398,0.8599,0.8566,0.0,0.8043,0.0,0.0,0.0,0.0,0.0,0.0,0.0,0.0,0.0,0.0,0.0,0.0,0.0,0.0,0.0,0.0,0.0,0.0,0.0,0.0,0.0,0.0,0.0,0.0,0.0,0.0,0.0,0.0,0.0,0.0,0.0,0.0,0.0,0.0,0.0,0.0,0.0,0.0,0.0,0.0,0.0,0.0,0.0,0.0,0.0,0.0,0.0,0.0,0.0,0.0,0.0,0.0,0.0,0.0,0.0,0.0,0.0,0.0,0.0,0.0,0.0,0.0,0.0,0.0,0.0,0.0,0.0,0.0,0.0,0.0,0.0,0.0,0.0,0.0,0.0,0.0,0.0,0.0,0.0,0.0,0.0,0.0,0.0,0.0,0.0,0.0,0.0,0.0,0.0,0.0,0.0,0.0,0.0,0.0,0.0,0.0,0.0,0.0,0.0,0.0,0.0,0.0,0.0,0.0,0.0,0.0,0.0,0.0,0.0,0.0,0.8509,0.8599,0.8484,0.8262,0.0,0.0,0.0,0.0,0.0,0.0,0.0,0.0,0.0,0.0,0.0,0.0,0.0,0.0,0.0,0.0,0.0,0.0,0.0,0.0,0.0,0.0,0.0,0.0,0.0,0.0,0.0,0.0,0.0,0.0,0.0,0.0,0.0,0.0,0.0,0.0,0.0,0.0,0.0,0.0,0.0,0.0,0.0,0.0,0.0,0.0,0.0,0.0,0.0,0.0,0.0,0.0,0.0,0.0,0.0,0.0,0.0,0.0,0.0,0.0,0.0,0.0,0.0,0.0,0.0,0.0,0.0,0.0,0.0,0.0,0.0,0.0,0.0,0.0,0.0,0.0,0.0,0.0,0.0,0.0,0.0,0.0,0.0,0.0,0.0,0.0,0.0,0.0,0.0,0.0,0.0,0.0,0.0,0.0,0.0,0.0,0.0,0.0,0.0,0.0,0.0,0.0,0.0,0.0,0.0,0.0,0.0,0.0,0.0,0.0,0.8398,0.8552,0.8636,0.8473,0.8283,0.8073,0.0,0.0,0.0,0.0,0.0,0.0,0.0,0.0,0.0,0.0,0.0,0.0,0.0,0.0,0.0,0.0,0.0,0.0,0.0,0.0,0.0,0.0,0.0,0.0,0.0,0.0,0.0,0.0,0.0,0.0,0.0,0.0,0.0,0.0,0.0,0.0,0.0,0.0,0.0,0.0,0.0,0.0,0.0,0.0,0.0,0.0,0.0,0.0,0.0,0.0,0.0,0.0,0.0,0.0,0.0,0.0,0.0,0.0,0.0,0.0,0.0,0.0,0.0,0.0,0.0,0.0,0.0,0.0,0.0,0.0,0.0,0.0,0.0,0.0,0.0,0.0,0.0,0.0,0.0,0.0,0.0,0.0,0.0,0.0,0.0,0.0,0.0,0.0,0.0,0.0,0.0,0.0,0.0,0.0,0.0,0.0,0.0,0.0,0.0,0.0,0.0,0.0,0.0,0.0,0.0,0.0,0.0,0.0,0.8525,0.8392,0.8452,0.8784,0.8663,0.8641,0.0,0.0,0.0,0.0,0.0,0.0,0.0,0.0,0.0,0.0,0.0,0.0,0.0,0.0,0.0,0.0,0.0,0.0,0.0,0.0,0.0,0.0,0.0,0.0,0.0,0.0,0.0,0.0,0.0,0.0,0.0,0.0,0.0,0.0,0.0,0.0,0.0,0.0,0.0,0.0,0.0,0.0,0.0,0.0,0.0,0.0,0.0,0.0,0.0,0.0,0.0,0.0,0.0,0.0,0.0,0.0,0.0,0.0,0.0,0.0,0.0,0.0,0.0,0.0,0.0,0.0,0.0,0.0,0.0,0.0,0.0,0.0,0.0,0.0,0.0,0.0,0.0,0.0,0.0,0.0,0.0,0.0,0.0,0.0,0.0,0.0,0.0,0.0,0.0,0.0,0.0,0.0,0.0,0.0,0.0,0.0,0.0,0.0,0.0,0.0,0.0,0.0,0.0,0.0,0.0,0.0,0.0,0.0,0.0,0.7887,0.8042,0.8387,0.8938,0.8416,0.8152,0.0,0.0,0.0,0.0,0.0,0.0,0.0,0.0,0.0,0.0,0.0,0.0,0.0,0.0,0.0,0.0,0.0,0.0,0.0,0.0,0.0,0.0,0.0,0.0,0.0,0.0,0.0,0.0,0.0,0.0,0.0,0.0,0.0,0.0,0.0,0.0,0.0,0.0,0.0,0.0,0.0,0.0,0.0,0.0,0.0,0.0,0.0,0.0,0.0,0.0,0.0,0.0,0.0,0.0,0.0,0.0,0.0,0.0,0.0,0.0,0.0,0.0,0.0,0.0,0.0,0.0,0.0,0.0,0.0,0.0,0.0,0.0,0.0,0.0,0.0,0.0,0.0,0.0,0.0,0.0,0.0,0.0,0.0,0.0,0.0,0.0,0.0,0.0,0.0,0.0,0.0,0.0,0.0,0.0,0.0,0.0,0.0,0.0,0.0,0.0,0.0,0.0,0.0,0.0,0.0,0.0,0.0,0.0,0.0,0.7763,0.0,0.8544,0.8885,0.8362,0.8144,0.0,0.0,0.0,0.0,0.0,0.0,0.0,0.0,0.0,0.0,0.0,0.0,0.0,0.0,0.0,0.0,0.0,0.0,0.0,0.0,0.0,0.0,0.0,0.0,0.0,0.0,0.0,0.0,0.0,0.0,0.0,0.0,0.0,0.0,0.0,0.0,0.0,0.0,0.0,0.0,0.0,0.0,0.0,0.0,0.0,0.0,0.0,0.0,0.0,0.0,0.0,0.0,0.0,0.0,0.0,0.0,0.0,0.0,0.0,0.0,0.0,0.0,0.0,0.0,0.0,0.0,0.0,0.0,0.0,0.0,0.0,0.0,0.0,0.0,0.0,0.0,0.0,0.0,0.0,0.0,0.0,0.0,0.0,0.0,0.0,0.0,0.0,0.0,0.0,0.0,0.0,0.0,0.0,0.0,0.0,0.0,0.0,0.0,0.0,0.0,0.0,0.0,0.0,0.0,0.0,0.0,0.0,0.0,0.7582,0.8278,0.8787,0.8923,0.8634,0.8599,0.8708,0.0,0.0,0.0,0.0,0.0,0.0,0.0,0.0,0.0,0.0,0.0,0.0,0.0,0.0,0.0,0.0,0.0,0.0,0.0,0.0,0.0,0.0,0.0,0.0,0.0,0.0,0.0,0.0,0.0,0.0,0.0,0.0,0.0,0.0,0.0,0.0,0.0,0.0,0.0,0.0,0.0,0.0,0.0,0.0,0.0,0.0,0.0,0.0,0.0,0.0,0.0,0.0,0.0,0.0,0.0,0.0,0.0,0.0,0.0,0.0,0.0,0.0,0.0,0.0,0.0,0.0,0.0,0.0,0.0,0.0,0.0,0.0,0.0,0.0,0.0,0.0,0.0,0.0,0.0,0.0,0.0,0.0,0.0,0.0,0.0,0.0,0.0,0.0,0.0,0.0,0.0,0.0,0.0,0.0,0.0,0.0,0.0,0.0,0.0,0.0,0.0,0.0,0.0,0.0,0.0,0.0,0.0,0.0,0.0,0.8319,0.8679,0.9102,0.9453,0.8644,0.8667,0.0,0.0,0.0,0.0,0.0,0.0,0.0,0.0,0.0,0.0,0.0,0.0,0.0,0.0,0.0,0.0,0.0,0.0,0.0,0.0,0.0,0.0,0.0,0.0,0.0,0.0,0.0,0.0,0.0,0.0,0.0,0.0,0.0,0.0,0.0,0.0,0.0,0.0,0.0,0.0,0.0,0.0,0.0,0.0,0.0,0.0,0.0,0.0,0.0,0.0,0.0,0.0,0.0,0.0,0.0,0.0,0.0,0.0,0.0,0.0,0.0,0.0,0.0,0.0,0.0,0.0,0.0,0.0,0.0,0.0,0.0,0.0,0.0,0.0,0.0,0.0,0.0,0.0,0.0,0.0,0.0,0.0,0.0,0.0,0.0,0.0,0.0,0.0,0.0,0.0,0.0,0.0,0.0,0.0,0.0,0.0,0.0,0.0,0.0,0.0,0.0,0.0,0.0,0.0,0.0,0.0,0.0,0.0,0.0,0.9222,0.947,0.9942,1.0638,0.9751,0.9769,1.0832,0.0,0.0,0.0,0.0,0.0,0.0,0.0,0.0,0.0,0.0,0.0,0.0,0.0,0.0,0.0,0.0,0.0,0.0,0.0,0.0,0.0,0.0,0.0,0.0,0.0,0.0,0.0,0.0,0.0,0.0,0.0,0.0,0.0,0.0,0.0,0.0,0.0,0.0,0.0,0.0,0.0,0.0,0.0,0.0,0.0,0.0,0.0,0.0,0.0,0.0,0.0,0.0,0.0,0.0,0.0,0.0,0.0,0.0,0.0,0.0,0.0,0.0,0.0,0.0,0.0,0.0,0.0,0.0,0.0,0.0,0.0,0.0,0.0,0.0,0.0,0.0,0.0,0.0,0.0,0.0,0.0,0.0,0.0,0.0,0.0,0.0,0.0,0.0,0.0,0.0,0.0,0.0,0.0,0.0,0.0,0.0,0.0,0.0,0.0,0.0,0.0,0.0,0.0,0.0,0.0,0.0,0.0,0.0,1.0735,1.1061,1.1495,1.1983,1.1681,1.1844,0.0,0.0,0.0,0.0,0.0,0.0,0.0,0.0,0.0,0.0,0.0,0.0,0.0,0.0,0.0,0.0,0.0,0.0,0.0,0.0,0.0,0.0,0.0,0.0,0.0,0.0,0.0,0.0,0.0,0.0,0.0,0.0,0.0,0.0,0.0,0.0,0.0,0.0,0.0,0.0,0.0,0.0,0.0,0.0,0.0,0.0,0.0,0.0,0.0,0.0,0.0,0.0,0.0,0.0,0.0,0.0,0.0,0.0,0.0,0.0,0.0,0.0,0.0,0.0,0.0,0.0,0.0,0.0,0.0,0.0,0.0,0.0,0.0,0.0,0.0,0.0,0.0,0.0,0.0,0.0,0.0,0.0,0.0,0.0,0.0,0.0,0.0,0.0,0.0,0.0,0.0,0.0,0.0,0.0,0.0,0.0,0.0,0.0,0.0,0.0,0.0,0.0,0.0,0.0,0.0,0.0,0.0,0.0,0.0,1.1317,1.3073,1.3812,1.3412,1.3254,1.339,0.0,0.0,0.0,0.0,0.0,0.0,0.0,0.0,0.0,0.0,0.0,0.0,0.0,0.0,0.0,0.0,0.0,0.0,0.0,0.0,0.0,0.0,0.0,0.0,0.0,0.0,0.0,0.0,0.0,0.0,0.0,0.0,0.0,0.0,0.0,0.0,0.0,0.0,0.0,0.0,0.0,0.0,0.0,0.0,0.0,0.0,0.0,0.0,0.0,0.0,0.0,0.0,0.0,0.0,0.0,0.0,0.0,0.0,0.0,0.0,0.0,0.0,0.0,0.0,0.0,0.0,0.0,0.0,0.0,0.0,0.0,0.0,0.0,0.0,0.0,0.0,0.0,0.0,0.0,0.0,0.0,0.0,0.0,0.0,0.0,0.0,0.0,0.0,0.0,0.0,0.0,0.0,0.0,0.0,0.0,0.0,0.0,0.0,0.0,0.0,0.0,0.0,0.0,0.0,0.0,0.0,0.0,0.0,1.1282,1.2045,1.4131,1.5274,1.5411,1.5562,1.5628,0.0,0.0,0.0,0.0,0.0,0.0,0.0,0.0,0.0,0.0,0.0,0.0,0.0,0.0,0.0,0.0,0.0,0.0,0.0,0.0,0.0,0.0,0.0,0.0,0.0,0.0,0.0,0.0,0.0,0.0,0.0,0.0,0.0,0.0,0.0,0.0,0.0,0.0,0.0,0.0,0.0,0.0,0.0,0.0,0.0,0.0,0.0,0.0,0.0,0.0,0.0,0.0,0.0,0.0,0.0,0.0,0.0,0.0,0.0,0.0,0.0,0.0,0.0,0.0,0.0,0.0,0.0,0.0,0.0,0.0,0.0,0.0,0.0,0.0,0.0,0.0,0.0,0.0,0.0,0.0,0.0,0.0,0.0,0.0,0.0,0.0,0.0,0.0,0.0,0.0,0.0,0.0,0.0,0.0,0.0,0.0,0.0,0.0,0.0,0.0,0.0,0.0,0.0,0.0,0.0,0.0,0.0,0.0,1.1762,1.2767,1.4682,1.6268,1.7497,1.7921,1.7863,0.0,0.0,0.0,0.0,0.0,0.0,0.0,0.0,0.0,0.0,0.0,0.0,0.0,0.0,0.0,0.0,0.0,0.0,0.0,0.0,0.0,0.0,0.0,0.0,0.0,0.0,0.0,0.0,0.0,0.0,0.0,0.0,0.0,0.0,0.0,0.0,0.0,0.0,0.0,0.0,0.0,0.0,0.0,0.0,0.0,0.0,0.0,0.0,0.0,0.0,0.0,0.0,0.0,0.0,0.0,0.0,0.0,0.0,0.0,0.0,0.0,0.0,0.0,0.0,0.0,0.0,0.0,0.0,0.0,0.0,0.0,0.0,0.0,0.0,0.0,0.0,0.0,0.0,0.0,0.0,0.0,0.0,0.0,0.0,0.0,0.0,0.0,0.0,0.0,0.0,0.0,0.0,0.0,0.0,0.0,0.0,0.0,0.0,0.0,0.0,0.0,0.0,0.0,0.0,0.0,0.0,0.0,0.0,1.2086,1.2686,1.583,1.7609,1.7804,1.7762,1.7758,0.0,0.0,0.0,0.0,0.0,0.0,0.0,0.0,0.0,0.0,0.0,0.0,0.0,0.0,0.0,0.0,0.0,0.0,0.0,0.0,0.0,0.0,0.0,0.0,0.0,0.0,0.0,0.0,0.0,0.0,0.0,0.0,0.0,0.0,0.0,0.0,0.0,0.0,0.0,0.0,0.0,0.0,0.0,0.0,0.0,0.0,0.0,0.0,0.9614,0.0,0.0,0.0,0.0,0.0,0.0,0.0,0.0,0.0,0.0,0.0,0.0,0.0,0.0,0.0,0.0,0.0,0.0,0.0,0.0,0.0,0.0,0.0,0.0,0.0,0.0,0.0,0.0,0.0,0.0,0.0,0.0,0.0,0.0,0.0,0.0,0.0,0.0,0.0,0.0,0.0,0.0,0.0,0.0,0.0,0.0,0.0,0.0,0.0,0.0,0.0,0.0,0.0,0.0,0.0,0.0,0.0,0.0,0.0,1.2893,1.4162,1.6118,1.7808,1.9066,1.8663,1.8408,0.0,0.0,0.0,0.0,0.0,0.0,0.0,0.0,0.0,0.0,0.0,0.0,0.0,0.0,0.0,0.0,0.0,0.0,0.0,0.0,0.0,0.0,0.0,0.0,0.0,0.0,0.0,0.0,0.0,0.0,0.0,0.0,0.0,0.0,0.0,0.0,0.0,0.0,0.0,0.0,0.0,0.0,0.0,0.0,0.0,0.0,0.0,0.0,0.0,0.0,0.0,0.0,0.0,0.0,0.0,0.0,0.0,0.0,0.0,0.0,0.0,0.0,0.0,0.0,0.0,0.0,0.0,0.0,0.0,0.0,0.0,0.0,0.0,0.0,0.0,0.0,0.0,0.0,0.0,0.0,0.0,0.0,0.0,0.0,0.0,0.0,0.0,0.0,0.0,0.0,0.0,0.0,0.0,0.0,0.0,0.0,0.0,0.0,0.0,0.0,0.0,0.0,0.0,0.0,0.0,0.0,0.0,1.2532,1.4046,1.6129,1.6645,1.8074,2.0505,1.9982,1.942,1.8973,0.0,0.0,0.0,0.0,0.0,0.0,0.0,0.0,0.0,0.0,0.0,0.0,0.0,0.0,0.0,0.0,0.0,0.0,0.0,0.0,0.0,0.0,0.0,0.0,0.0,0.0,0.0,0.0,0.0,0.0,0.0,0.0,0.0,0.0,0.0,0.0,0.0,0.0,0.9054,0.9642,0.0,0.0,0.0,0.0,0.0,0.0,0.0,0.0,0.9947,0.0,0.0,0.0,0.0,0.0,0.0,0.0,0.0,0.0,0.0,0.0,0.0,0.0,0.0,0.0,0.0,0.0,0.0,0.0,0.0,0.0,0.0,0.0,0.0,0.0,0.0,0.0,0.0,0.0,0.0,0.0,0.0,0.0,0.0,0.0,0.0,0.0,0.0,0.0,0.0,0.0,0.0,0.0,0.0,0.0,0.0,0.0,0.0,0.0,0.0,0.0,0.0,0.0,0.0,0.0,0.0,1.3495,1.4348,1.5749,1.7715,1.9403,2.0385,2.06,2.0999,2.0631,1.9339,0.0,0.0,0.0,0.0,0.0,0.0,0.0,0.0,0.0,0.0,0.0,0.0,0.0,0.0,0.0,0.0,0.0,0.0,0.0,0.0,0.0,0.0,0.0,0.0,0.0,0.0,0.0,0.0,0.0,0.0,0.0,0.0,0.0,0.0,0.0,0.0,0.0,0.0,0.0,1.0637,1.0853,0.0,0.0,0.0,0.0,0.0,0.0,0.0,0.0,1.0123,0.0,0.0,0.0,0.0,0.0,0.0,0.0,0.0,0.0,0.0,0.0,0.0,0.0,0.0,0.0,0.0,0.0,0.0,0.0,0.0,0.0,0.0,0.0,0.0,0.0,0.0,0.0,0.0,0.0,0.0,0.0,0.0,0.0,0.0,0.0,0.0,0.0,0.0,0.0,0.0,0.0,0.0,0.0,0.0,0.0,0.0,0.0,0.0,0.0,0.0,0.0,0.0,0.0,0.0,0.0,1.4742,1.6058,1.7578,1.9341,2.0516,2.1336,2.1769,2.1368,2.0579,0.0,0.0,0.0,0.0,0.0,0.0,0.0,0.0,0.0,0.0,0.0,0.0,0.0,0.0,0.0,0.0,0.0,0.0,0.0,0.0,0.0,0.0,0.0,0.0,0.0,0.0,0.0,0.0,0.0,0.0,0.0,0.0,0.0,0.0,0.0,0.0,0.0,0.0,0.0,0.0,1.084,1.0985,1.1367,0.0,0.0,0.0,0.0,0.0,0.0,1.0312,1.0429,0.0,0.0,0.0,0.0,0.0,0.0,0.0,0.0,0.0,0.0,0.0,0.0,0.0,0.0,0.0,0.0,0.0,0.0,0.0,0.0,0.0,0.0,0.0,0.0,0.0,0.0,0.0,0.0,0.0,0.0,0.0,0.0,0.0,0.0,0.0,0.0,0.0,0.0,0.0,0.0,0.0,0.0,0.0,0.0,0.0,0.0,0.0,0.0,0.0,0.0,0.0,0.0,0.0,0.0,0.0,1.6079,1.7784,1.9476,2.117,2.1496,2.2063,2.2922,2.1555,2.0309,0.0,0.0,0.0,0.0,0.0,0.0,0.0,0.0,0.0,0.0,0.0,0.0,0.0,0.0,0.0,0.0,0.0,0.0,0.0,0.0,0.0,0.0,0.0,0.0,0.0,0.0,0.0,0.0,0.0,0.0,0.0,0.0,0.0,0.0,0.0,0.0,0.0,0.0,0.0,0.0,0.0,1.1166,1.1725,1.132,0.0,0.0,0.0,0.0,1.0732,1.1045,0.0,0.0,0.0,0.0,0.0,0.0,0.0,0.0,0.0,0.0,0.0,0.0,0.0,0.0,0.0,0.0,0.0,0.0,0.0,0.0,0.0,0.0,0.0,0.0,0.0,0.0,0.0,0.0,0.0,0.0,0.0,0.0,0.0,0.0,0.0,0.0,0.0,0.0,0.0,0.0,0.0,0.0,0.0,0.0,0.0,0.0,0.0,0.0,0.0,0.0,0.0,0.0,0.0,0.0,0.0,0.0,1.7791,1.9553,2.139,2.332,2.3479,2.3408,2.3234,2.1836,2.0386,0.0,0.0,0.0,0.0,0.0,0.0,0.0,0.0,0.0,0.0,0.0,0.0,0.0,0.0,0.0,0.0,0.0,0.0,0.0,0.0,0.0,0.0,0.0,0.0,0.0,0.0,0.0,0.0,0.0,0.0,0.0,0.0,0.0,0.0,0.0,0.0,0.0,0.0,0.0,0.0,0.0,1.1842,1.1799,1.1818,1.1737,0.0,0.0,1.1671,1.1802,1.33,0.0,0.0,0.0,0.0,0.0,0.0,0.0,0.0,0.0,0.0,0.0,0.0,0.0,0.0,0.0,0.0,0.0,0.0,0.0,0.0,0.0,0.0,0.0,0.0,0.0,0.0,0.0,0.0,0.0,0.0,0.0,0.0,0.0,0.0,0.0,0.0,0.0,0.0,0.0,0.0,0.0,0.0,0.0,0.0,0.0,0.0,0.0,0.0,0.0,0.0,0.0,0.0,0.0,0.0,0.0,1.5869,1.904,2.113,2.2715,2.375,2.3808,2.3643,2.3309,2.1539,2.0058,0.0,0.0,0.0,0.0,0.0,0.0,0.0,0.0,0.0,0.0,0.0,0.0,0.0,0.0,0.0,0.0,0.0,0.0,0.0,0.0,0.0,0.0,0.0,0.0,0.0,0.0,0.0,0.0,0.0,0.0,0.0,0.0,0.0,0.0,0.0,0.0,0.0,0.0,0.0,0.0,0.0,0.0,1.2205,1.2214,0.0,0.0,0.0,1.2394,1.2451,0.0,0.0,0.0,0.0,0.0,0.0,0.0,0.0,0.0,0.0,0.0,0.0,0.0,0.0,0.0,0.0,0.0,0.0,0.0,0.0,0.0,0.0,0.0,0.0,0.0,0.0,0.0,0.0,0.0,0.0,0.0,0.0,0.0,0.0,0.0,0.0,0.0,0.0,0.0,0.0,0.0,0.0,0.0,0.0,0.0,0.0,0.0,0.0,0.0,0.0,0.0,0.0,0.0,0.0,0.0,0.0,0.0,1.9892,2.2231,2.3621,2.3986,2.3942,2.3701,2.3287,2.1499,0.0,0.0,0.0,0.0,0.0,0.0,0.0,0.0,0.0,0.0,0.0,0.0,0.0,0.0,0.0,0.0,0.0,0.0,0.0,0.0,0.0,0.0,0.0,0.0,0.0,0.0,0.0,0.6601,0.0,0.0,0.0,0.0,0.0,0.0,0.0,0.0,0.0,0.0,0.0,0.0,0.0,0.0,1.2181,1.3287,1.3413,1.3448,0.0,0.0,1.4262,1.3705,1.545,1.6528,0.0,0.0,0.0,0.0,0.0,0.0,0.0,0.0,0.0,0.0,0.0,0.0,0.0,0.0,0.0,0.0,0.0,0.0,0.0,0.0,0.0,0.0,0.0,0.0,0.0,0.0,0.0,0.0,0.0,0.0,0.0,0.0,0.0,0.0,0.0,0.0,0.0,0.0,0.0,0.0,0.0,0.0,0.0,0.0,0.0,0.0,0.0,0.0,0.0,0.0,0.0,0.0,0.0,0.0,1.7635,2.0153,2.2539,2.4017,2.4515,2.4306,2.3892,2.3292,2.2133,2.0424,0.0,0.0,0.0,0.0,0.0,0.0,0.0,0.0,0.0,0.0,0.0,0.0,0.0,0.0,0.0,0.0,0.0,0.0,0.0,0.0,0.0,0.0,0.0,0.0,0.0,0.0,0.0,0.0,0.0,0.0,0.0,0.0,0.0,0.0,0.0,0.0,0.0,0.0,0.0,0.0,0.0,1.332,1.546,1.6083,1.6395,0.0,1.7974,1.8253,1.6202,1.9411,2.1034,1.7679,0.0,0.0,0.0,0.0,0.0,0.0,0.0,0.0,0.0,0.0,0.0,0.0,0.0,0.0,0.0,0.0,0.0,0.0,0.0,0.0,0.0,0.0,0.0,0.0,0.0,0.0,0.0,0.0,0.0,0.0,0.0,0.0,0.0,0.0,0.0,0.0,0.0,0.0,0.0,0.0,0.0,0.0,0.0,0.0,0.0,0.0,0.0,0.0,0.0,0.0,0.0,0.0,0.0,1.8428,2.0487,2.2693,2.4066,2.4568,2.4346,2.4017,2.3616,2.2462,2.0817,0.0,0.0,0.0,0.0,0.0,0.0,0.0,0.0,0.0,0.0,0.0,0.0,0.0,0.0,0.0,0.0,0.0,0.0,0.0,0.0,0.0,0.0,0.0,0.0,0.0,0.0,0.0,0.0,0.8724,0.8965,0.8923,0.0,0.0,0.0,0.0,0.0,0.0,0.0,0.0,0.0,0.0,1.5213,1.6454,1.7912,0.0,0.0,1.9307,1.9439,1.8513,2.0106,2.0791,1.874,1.9269,0.0,0.0,0.0,0.0,0.0,0.0,0.0,0.0,0.0,0.0,0.0,0.0,0.0,0.0,0.0,0.0,0.0,0.0,0.0,0.0,0.0,0.0,0.0,0.0,0.0,0.0,0.0,0.0,0.0,0.0,0.0,0.0,0.0,0.0,0.0,0.0,0.0,0.0,0.0,0.0,0.0,0.0,0.0,0.0,0.0,0.0,0.0,0.0,0.0,0.0,0.0,0.0,1.8876,2.0684,2.2743,2.4066,2.4595,2.4408,2.4106,2.3652,2.2654,2.1157,0.0,0.0,0.0,0.0,0.0,0.0,0.0,0.0,0.0,0.0,0.0,0.0,0.0,0.0,0.0,0.0,0.0,0.0,0.0,0.0,0.0,0.0,0.0,0.0,0.0,0.0,0.0,0.0,0.8944,0.9224,0.9843,0.0,0.0,0.0,0.0,0.0,0.0,0.0,0.0,0.0,0.0,1.7599,1.8587,2.0086,2.0974,2.0703,2.1057,2.1148,2.0435,2.1277,2.1533,2.0084,0.0,0.0,0.0,0.0,0.0,0.0,0.0,0.0,0.0,0.0,0.0,0.0,0.0,0.0,0.0,0.0,0.0,0.0,0.0,0.0,0.0,0.0,0.0,0.0,0.0,0.0,0.0,0.642,0.0,0.0,0.6408,0.0,0.0,0.0,0.0,0.0,0.0,0.0,0.0,0.0,0.0,0.0,0.0,0.0,0.0,0.0,0.0,0.0,0.0,0.0,0.0,0.0,0.0,1.8903,2.0697,2.2773,2.4071,2.4572,2.4586,2.4172,2.3354,2.2722,2.1456,1.9434,0.0,0.0,0.0,0.0,0.0,0.0,0.0,0.0,0.0,0.0,0.0,0.0,0.0,0.0,0.0,0.0,0.0,0.0,0.0,0.0,0.0,0.0,0.0,0.0,0.0,0.0,0.923,0.9284,1.0023,0.0,0.0,0.0,0.0,0.0,0.0,0.0,0.0,0.0,1.5744,1.8192,2.0524,2.2349,2.2776,2.2887,2.2843,2.3772,2.3806,2.1918,2.346,2.4221,0.0,0.0,0.0,0.0,0.0,0.0,0.0,0.0,0.0,0.0,0.0,0.0,0.0,0.0,0.0,0.0,0.0,0.0,0.0,0.0,0.0,0.0,0.0,0.0,0.0,0.0,0.0,0.7933,0.7664,0.0,0.0,0.0,0.0,0.0,0.0,0.0,0.0,0.0,0.0,0.0,1.3976,1.495,0.0,0.0,0.0,0.0,0.0,0.0,0.0,0.0,0.0,0.0,0.0,0.0,1.9708,2.1317,2.313,2.424,2.4582,2.444,2.4106,2.3652,2.305,2.1681,1.9468,0.0,0.0,0.0,0.0,0.0,0.0,0.0,0.0,0.0,0.0,0.0,0.0,0.0,0.0,0.0,0.0,0.0,0.0,0.0,0.0,0.0,0.0,0.0,0.0,0.0,1.0781,0.0,0.0,0.0,0.0,0.0,0.0,0.0,0.0,0.0,0.0,1.4269,1.5928,1.7998,2.0401,2.2243,2.3085,2.4521,2.5369,0.0,0.0,0.0,0.0,0.0,0.0,0.0,0.0,0.0,0.0,0.0,0.0,0.0,0.0,2.3814,2.0647,1.9368,1.856,1.7804,0.0,0.0,0.0,0.0,0.0,0.0,0.0,0.0,0.0,0.0,0.0,0.0,0.0,0.0,0.8888,0.8661,0.8471,0.0,0.0,0.0,0.0,0.0,0.0,0.0,0.0,1.3562,1.5059,1.6568,1.7622,1.7985,0.0,1.83,1.7206,0.0,0.0,0.0,0.0,0.0,0.0,0.0,0.0,2.0164,2.1729,2.3371,2.4324,2.4582,2.4422,2.4168,2.3794,2.3005,2.1721,1.991,1.8511,1.7275,0.0,0.0,0.0,0.0,0.0,0.0,0.0,0.0,0.0,0.0,0.0,0.0,0.0,0.0,0.0,0.0,0.0,0.0,0.0,0.0,0.0,0.0,0.0,1.1986,0.0,0.0,0.0,0.0,0.0,0.0,0.0,0.0,0.0,1.5799,1.7104,1.8799,2.0765,2.2858,2.4288,2.4543,0.0,0.0,0.0,0.0,0.0,0.0,0.0,2.493,2.5169,2.5108,2.51,2.5371,2.6316,2.7064,2.7158,0.0,0.0,2.4145,2.2936,2.2162,2.1432,2.1206,2.1294,2.1825,2.2621,2.345,0.0,0.0,0.0,0.0,0.0,0.0,0.0,0.0,0.9755,0.9745,0.0,0.9427,0.0,0.0,0.0,0.0,0.8745,1.1344,0.0,0.0,1.7476,1.9434,2.0227,2.0816,2.0973,2.0785,2.0989,2.0386,1.8915,1.7008,0.0,0.0,0.0,0.0,0.0,0.0,2.034,2.2007,2.3491,2.4356,2.4586,2.4595,2.4351,2.379,2.2627,2.1617,2.0785,2.0155,1.9179,1.7749,1.6535,0.0,0.0,0.0,0.0,0.0,0.0,0.0,0.0,0.0,0.0,0.0,0.0,0.0,0.0,0.0,0.0,0.0,0.0,0.0,0.0,1.3025,0.0,0.0,0.0,0.0,0.0,0.0,0.0,0.0,0.0,1.909,1.8637,2.0813,2.2939,2.4012,0.0,0.0,0.0,0.0,2.645,2.645,2.6242,2.6198,2.6423,2.6643,2.6727,2.652,0.0,0.0,2.7843,2.8489,2.8972,2.8729,2.9189,2.9294,2.8412,2.6671,2.5413,2.5333,2.4396,2.4017,2.5397,2.6247,2.7154,1.4974,0.0,0.0,0.0,0.0,1.3402,1.3695,1.3565,1.4248,1.4393,1.4099,1.2709,0.0,0.0,0.0,0.0,0.0,0.0,1.5591,1.7559,1.8606,1.9933,2.1472,2.1862,2.1988,2.1908,2.2226,2.2061,2.1403,2.0892,1.9143,1.629,0.0,0.0,0.0,0.0,2.1765,2.2686,2.4152,2.4813,2.4599,2.4697,2.4323,2.346,2.2682,2.2161,2.1924,2.1387,2.0577,1.9505,1.835,0.0,0.0,0.0,0.0,0.0,0.0,0.0,0.0,0.0,0.0,0.0,0.0,0.0,0.0,0.0,0.0,0.0,0.0,0.0,1.3935,1.5263,1.626,0.0,0.0,0.0,0.0,0.0,0.0,0.0,0.0,0.0,2.3961,2.3817,2.4282,0.0,0.0,2.671,2.6794,2.7098,2.7321,2.7332,2.7636,0.0,2.7697,2.7546,2.7618,2.8158,2.9107,2.98,2.9898,3.0276,3.0534,3.0465,3.0807,3.099,3.07,2.9759,2.8987,2.9113,2.9003,2.9079,2.979,3.023,3.0678,1.9342,1.7901,1.6529,1.5695,1.5401,1.6209,1.654,1.6482,1.6891,1.698,1.6781,1.5471,1.493,1.4932,1.387,0.0,0.0,0.0,1.7685,1.9269,2.0182,2.1231,2.2338,2.2752,2.2961,2.2966,2.3308,2.3293,2.3004,2.3234,2.2116,1.9703,0.0,1.9875,2.002,2.1777,2.3095,2.3891,2.4915,2.5391,2.5279,2.4961,2.4493,2.3905,2.3155,2.2815,2.2939,2.2296,2.1643,2.1085,1.9852,1.8496,0.0,0.0,0.0,0.0,0.0,0.0,0.0,0.0,0.0,0.0,0.0,1.3812,1.3506,0.0,0.0,0.0,1.4102,1.4794,1.6237,1.7704,0.0,0.0,0.0,0.0,0.0,0.0,0.0,2.2739,2.4596,2.6159,2.6974,2.6524,2.6414,2.7235,2.7369,2.7388,2.7498,0.0,2.8096,2.8182,2.8644,2.8925,2.889,2.8813,2.8989,2.9608,3.0368,3.0939,3.1137,3.1488,3.1742,3.177,3.1915,3.2075,3.2183,3.1779,3.138,3.1341,3.1543,3.1822,3.202,3.2194,3.2382,2.3309,2.2802,1.964,1.8273,1.8169,1.8468,1.8659,1.8716,1.839,1.8306,1.8373,1.7817,1.7301,1.6831,1.665,0.0,1.7108,1.8703,1.9673,2.0113,2.2061,2.2974,2.3,2.3562,2.3852,2.3884,2.4254,2.4304,2.4136,2.4535,2.4586,2.4286,2.2947,2.2336,2.2469,2.3348,2.4372,2.5439,2.577,2.606,2.6322,2.534,2.4783,2.4742,2.3811,2.3416,2.3665,2.2908,2.2415,2.233,2.1045,1.9643,1.8202,0.0,0.0,0.0,0.0,0.0,0.0,0.0,0.0,0.0,0.0,0.0,0.0,0.0,0.0,1.5963,1.7101,0.0,1.9011,2.0141,0.0,0.0,0.0,2.2064,2.2677,2.3741,2.4734,2.5625,0.0,0.0,2.8229,2.87,2.886,2.8377,2.8283,2.8355,2.8615,2.8633,2.8767,2.9012,2.9352,2.9657,2.9887,3.0165,3.0459,3.0808,3.1368,3.1712,3.1793,3.2207,3.2581,3.2582,3.2634,3.2728,3.2996,3.2957,3.2852,3.2304,3.2436,3.2661,3.2649,3.2662,3.2743,2.4632,2.4515,2.3906,2.2382,2.0457,2.1606,2.1581,2.087,2.1647,2.2005,2.1948,2.0571,1.9898,1.9828,2.0816,2.1414,2.1712,2.211,2.2491,2.2846,2.3355,2.3598,2.3616,2.3955,2.426,2.4584,2.5107,2.5479,2.5768,2.6404,2.6549,2.6259,2.6362,2.5744,2.4428,2.5258,2.5855,2.6075,2.6706,2.6936,2.6737,2.5477,2.4678,2.4437,2.369,2.3238,2.3121,2.292,2.2577,2.2098,2.1566,2.0699,1.9411,1.7482,0.0,0.0,0.0,0.0,0.0,0.0,0.0,0.0,0.0,1.6392,1.5265,0.0,1.7931,0.0,1.8918,1.9865,2.0498,2.1427,0.0,0.0,2.3621,2.4155,2.5579,2.5996,2.6547,2.7446,2.823,2.8729,2.8818,2.9141,2.9325,2.9211,2.8965,2.8836,2.8881,2.9149,2.939,2.9662,2.9978,3.0283,3.0566,3.081,3.1196,3.1704,3.1917,3.2088,3.2353,3.2662,3.2916,3.2917,3.3079,3.3213,3.328,3.3294,3.3267,3.3121,3.316,3.32,3.32,3.32,3.3213,2.5277,2.5291,2.5442,2.4554,2.3135,2.3924,2.3828,2.3157,2.3643,2.3808,2.3639,2.2599,2.2137,2.2181,2.2937,2.3376,2.3505,2.3536,2.363,2.3808,2.391,2.3977,2.3999,2.4587,2.4997,2.5226,2.6047,2.6566,2.6815,2.7353,2.7614,2.7575,2.7948,2.7657,2.6779,2.6963,2.7131,2.724,2.7639,2.7614,2.7156,2.6093,2.5288,2.4801,2.399,2.3503,2.3335,2.2813,2.2449,2.2224,2.1561,2.0825,2.0006,1.851,1.7295,0.0,0.0,0.0,0.0,0.0,0.0,0.0,0.0,0.0,0.0,0.0,1.98,2.0055,2.0994,2.1942,2.2801,2.3781,2.4751,2.5695,2.6026,2.6537,2.7512,2.7832,2.8233,2.889,2.935,2.9664,2.9795,2.9956,3.0072,3.0072,2.9915,2.9755,2.9662,2.9873,3.0138,3.0299,3.0555,3.0902,3.1303,3.1503,3.1758,3.221,3.2424,3.2571,3.2768,3.2998,3.3173,3.3199,3.3307,3.3389,3.3389,3.3389,3.3389,3.3389,3.3389,3.3389,3.3389,3.3389,3.3389,2.5579,2.5606,2.5625,2.5615,2.5615,2.5625,2.5438,2.5136,2.4835,2.4555,2.4302,2.4066,2.3942,2.3892,2.3906,2.3901,2.3915,2.3946,2.3968,2.3973,2.429,2.4442,2.4487,2.5407,2.5878,2.5976,2.697,2.7459,2.7539,2.7872,2.8184,2.8462,2.8471,2.8608,2.8866,2.8315,2.8165,2.8471,2.8423,2.8111,2.7563,2.685,2.6118,2.5402,2.448,2.3892,2.3764,2.2758,2.2274,2.2391,2.1452,2.0756,2.0384,1.9503,1.8677,0.0,1.7261,0.0,0.0,0.0,0.0,0.0,0.0,0.0,0.0,2.0804,2.1553,2.2271,2.3198,2.419,2.5292,2.6396,2.7151,2.7502,2.8227,2.8738,2.8791,2.9283,2.9735,2.9993,3.0283,3.0549,3.0715,3.0795,3.0782,3.0795,3.0795,3.0738,3.0604,3.0671,3.0753,3.0835,3.1117,3.1491,3.1917,3.2103,3.2276,3.2582,3.2809,3.2999,3.3051,3.3227,3.3375,3.3375,3.3388,3.3389,3.3389,3.3389,3.3389,3.3389,3.3389,3.3389,3.3389,3.3389,3.3389,2.6022,2.6216,2.6236,2.6236,2.6226,2.6236,2.5928,2.5415,2.5352,2.5184,2.4926,2.4891,2.4703,2.4457,2.4457,2.4448,2.4462,2.4716,2.4846,2.4887,2.5473,2.5741,2.5779,2.6319,2.6763,2.7084,2.7507,2.7894,2.821,2.8545,2.8739,2.8788,2.8822,2.8827,2.8905,0.0,0.0,0.0,2.8535,2.8228,2.7814,2.7158,2.6384,2.551,2.4726,0.0,2.3202,2.2894,2.2544,2.2127,2.2088,0.0,0.0,0.0,0.0,0.0,0.0,0.0,0.0,0.0,0.0,0.0,2.2587,2.2403,2.1705,2.3224,2.4231,2.4164,2.5342,2.6346,2.6844,2.7709,2.8366,2.8663,2.9072,2.9406,2.9646,3.0003,3.0323,3.0595,3.0686,3.0753,3.0808,3.0795,3.0889,3.1117,3.1131,3.1223,3.142,3.1087,3.0902,3.1104,3.1585,3.1932,3.2078,3.233,3.2595,3.2863,3.2957,3.3079,3.3267,3.3347,3.3389,3.3389,3.3389,3.3389,3.3389,3.3389,3.3389,3.3389,3.3389,3.3389,3.3389,3.3389,3.3389,2.6714,2.6857,2.6857,2.6744,0.0,2.677,2.6503,2.5945,2.5808,2.5571,2.53,2.53,2.5211,2.5035,2.5035,2.5171,2.5349,2.5517,2.5707,2.5943,2.6298,2.6443,2.6462,2.7035,2.7402,2.7616,2.811,2.8458,2.8661,2.8973,2.9154,2.9154,2.9315,2.9398,2.9388,2.9227,2.9066,2.8895,2.873,2.8486,2.8136,2.7528,2.6811,2.6015,2.5172,0.0,0.0,0.0,0.0,0.0,0.0,0.0,0.0,0.0,0.0,2.1317,2.1331,2.1459,2.1772,2.2587,2.3452,2.4315,2.5211,2.5229,2.4062,2.518,2.6075,2.6369,2.7191,2.7819,2.8136,2.8807,2.9279,2.945,2.986,3.0205,3.0341,3.062,3.0847,3.0982,3.1154,3.1288,3.1423,3.1448,3.1478,3.1625,3.1809,3.1876,3.1864,3.1649,3.1555,3.1824,3.2128,3.2384,3.2531,3.2663,3.2877,3.3119,3.3187,3.3253,3.3374,3.3389,3.3389,3.3389,3.3389,3.3389,3.3389,3.3389,3.3389,3.3389,3.3389,3.348,3.3613,3.3641,3.3642,2.7319,2.7319,2.7319,2.7141,2.6911,2.7192,2.7072,2.6629,2.6255,0.0,0.0,2.5656,2.5663,2.5613,2.5699,2.5909,2.6224,2.6269,2.6493,2.6865,2.7007,2.7101,2.7191,2.7797,2.81,2.8201,2.8788,2.9081,2.9095,2.9369,2.9491,2.9515,2.9764,2.9916,2.9902,2.9618,2.9354,2.9095,2.8954,2.873,2.8403,2.792,2.7353,2.67,2.5868,2.5247,2.4849,2.3787,2.314,2.2994,2.2252,2.2025,2.2427,2.2686,2.3051,2.359,2.4119,2.4476,2.4596,2.514,2.5648,2.6026,2.7161,2.7449,2.6453,2.6871,2.7498,2.8275,2.8588,2.8871,2.9121,2.9651,3.0009,3.0062,3.0555,3.0862,3.0889,3.1117,3.1278,3.1319,3.1557,3.1848,3.2024,3.2104,3.2185,3.2223,3.2368,3.2542,3.2317,3.221,3.2234,3.246,3.2594,3.273,3.2931,3.3039,3.3159,3.3334,3.3374,3.3389,3.3389,3.3389,3.3389,3.3389,3.3389,3.3389,3.3389,3.3389,3.3389,3.3389,3.3389,3.3507,3.3814,3.396,3.3974,2.7319,2.7319,2.7319,2.7272,2.7232,2.7272,2.7439,2.7605,2.6749,2.6182,2.595,2.628,2.6279,2.6033,2.6429,2.6657,2.6723,2.6946,2.7087,2.7178,2.7794,2.823,2.8541,2.8966,2.9324,2.9596,2.9715,2.975,2.9774,2.9808,2.9833,2.9833,2.9867,2.9916,2.9892,2.9852,2.9808,2.975,2.9208,2.8739,2.8408,2.8315,2.7984,2.7382,2.6967,2.6427,2.5824,2.5619,2.5195,2.4533,2.4633,2.4566,2.4271,2.4261,2.4448,2.4819,2.5134,2.5535,2.6052,2.6657,2.7318,2.8083,2.8353,2.8307,2.7962,2.8401,2.8756,2.8879,2.9192,2.9486,2.9744,3.0112,3.0419,3.0646,3.0944,3.1146,3.1158,3.1411,3.162,3.162,3.1864,3.2063,3.2131,3.2356,3.2515,3.2528,3.2594,3.2649,3.2771,3.2675,3.2567,3.2621,3.2796,3.2932,3.3025,3.32,3.3334,3.3375,3.3389,3.3389,3.3389,3.3389,3.3389,3.3389,3.3389,3.3389,3.3389,3.3389,3.3389,3.3389,3.3389,3.3508,3.3854,3.4096,3.4243,2.8113,2.8164,2.8389,2.8407,2.8266,2.8091,2.8207,2.8495,2.7863,2.7432,2.7171,2.7325,2.7248,2.6999,2.716,2.7481,2.7893,2.8026,2.828,2.8674,2.9027,2.9251,2.9416,2.9586,2.975,2.9892,2.9916,2.9916,2.9931,3.0092,3.018,3.0195,3.0301,3.0325,3.0185,3.017,3.0092,2.9896,2.9613,2.9374,2.9227,2.9047,2.8812,2.8515,2.8037,2.7623,2.7312,2.6955,2.6582,2.6214,2.5945,2.5745,2.5701,2.5606,2.5709,2.6022,2.6453,2.6814,2.7081,2.7655,2.8233,2.8759,2.8991,2.9042,2.8917,2.9136,2.9339,2.9477,2.9791,3.0018,3.0165,3.0566,3.09,3.0986,3.1278,3.1463,3.1503,3.1754,3.1861,3.1779,3.2088,3.2356,3.2369,3.2648,3.2809,3.2809,3.2809,3.293,3.316,3.3093,3.3025,3.3039,3.3132,3.32,3.3213,3.3307,3.3375,3.3389,3.3389,3.3389,3.3389,3.3389,3.3389,3.3389,3.3389,3.3389,3.3389,3.3389,3.3389,3.3389,3.3389,3.3561,3.4014,3.4456,3.475,2.896,2.9002,2.9335,2.9387,2.9169,2.891,2.9,2.931,2.9074,2.8833,2.8601,2.8446,2.8241,2.805,2.8091,2.846,2.8983,2.9052,2.9362,2.9857,2.9916,2.9926,3.0019,2.9999,3.0043,3.0101,3.0106,3.0101,3.0135,3.0365,3.0482,3.0511,3.069,3.07,3.0497,3.0482,3.0365,3.012,3.0126,3.0053,2.9896,2.9647,2.9505,2.9476,2.9017,2.8739,2.87,2.825,2.7918,2.7793,2.7211,2.6959,2.7156,2.7067,2.7135,2.7426,2.7858,2.81,2.809,2.855,2.8928,2.909,2.955,2.9753,2.9624,2.9768,2.9889,3.0029,3.0241,3.0428,3.0593,3.0929,3.1253,3.1373,3.1623,3.1769,3.1808,3.1971,3.2024,3.1888,3.2249,3.2607,3.2702,3.293,3.3079,3.3092,3.3092,3.3173,3.3348,3.3389,3.3389,3.3389,3.3389,3.3375,3.3389,3.3375,3.3389,3.3389,3.3389,3.3389,3.3389,3.3389,3.3389,3.3389,3.3389,3.3389,3.3389,3.3389,3.3389,3.3389,3.3468,3.3721,3.4309,3.4803,3.5151,2.9439,2.9439,2.9513,2.9499,2.9488,2.945,2.9683,3.0055,3.0051,3.0114,3.0048,2.9417,2.9092,2.9138,2.9458,2.9673,2.9782,2.9802,2.9851,2.9901,2.9906,3.0057,3.0341,3.0346,3.0472,3.0675,3.0679,3.066,3.065,3.0709,3.0763,3.0763,3.0796,3.0792,3.0763,3.0763,3.0748,3.0709,3.0709,3.0451,2.9936,2.9887,2.9852,2.9848,2.9784,2.9774,2.975,2.9695,2.947,2.9068,2.8953,2.8884,2.8861,2.8838,2.8961,2.9188,2.9286,2.9292,2.919,2.9429,2.9583,2.9527,3.0263,3.05,2.9992,3.054,3.0759,3.0498,3.0411,3.0631,3.1064,3.1198,3.1438,3.1891,3.1998,3.2076,3.209,3.2091,3.2091,3.209,3.2421,3.27,3.2905,3.3172,3.3321,3.3308,3.3308,3.3334,3.3362,3.3389,3.3389,3.3389,3.3389,3.3389,3.3389,3.3389,3.3389,3.3389,3.3389,3.3389,3.3389,3.3389,3.3389,3.3389,3.3389,3.3389,3.3389,3.3389,3.3415,3.3508,3.3708,3.4054,3.4602,3.499,3.5177,2.9914,2.9935,3.0165,3.0265,3.0265,3.0265,3.038,3.0551,3.054,3.0578,3.0596,3.0289,2.9956,2.9638,2.9816,3.0009,3.0195,3.0199,3.0282,3.0422,3.0432,3.052,3.0612,3.0637,3.071,3.0796,3.0786,3.0786,3.0786,3.0786,3.0786,3.0786,3.0786,3.0786,3.0786,3.0786,3.0786,3.0786,3.0786,3.0675,3.0476,3.0447,3.0447,3.0437,3.0447,3.0422,3.0437,3.0437,3.0344,3.0159,2.9933,2.9763,2.9771,2.968,2.9663,2.9804,2.9972,3.0135,3.0226,3.0365,3.045,3.0555,3.0915,3.1004,3.0781,3.1041,3.1156,3.1071,3.0928,3.0971,3.1198,3.1371,3.1675,3.1999,3.2104,3.2183,3.2381,3.2519,3.2596,3.2475,3.2797,3.3038,3.3051,3.3227,3.3374,3.3389,3.3389,3.3389,3.3389,3.3389,3.3389,3.3389,3.3389,3.3389,3.3389,3.3389,3.3389,3.3389,3.3389,3.3389,3.3389,3.3389,3.3389,3.3389,3.3389,3.3389,3.3389,3.3575,3.3694,3.3787,3.4134,3.4535,3.4749,3.5003,3.5164,3.0367,3.0405,3.0686,3.0786,3.0786,3.0786,3.0786,3.0786,3.0786,3.0786,3.0786,3.0786,3.0568,3.0194,3.015,3.0282,3.0497,3.0511,3.0608,3.0782,3.0786,3.0786,3.0786,3.0786,3.0786,3.0786,3.0786,3.0786,3.0786,3.0786,3.0786,3.0786,3.0786,3.0786,3.0786,3.0786,3.0786,3.0786,3.0786,3.0786,3.0786,3.0786,3.0786,3.0786,3.0786,3.0786,3.0786,3.0786,3.0786,3.0786,3.0499,3.0421,3.0497,3.0403,3.04,3.0492,3.0679,3.0883,3.1097,3.1149,3.1266,3.1433,3.1656,3.1754,3.166,3.1775,3.1801,3.1619,3.1706,3.1705,3.1381,3.1555,3.1834,3.217,3.2225,3.2381,3.2688,3.2891,3.2904,3.2782,3.301,3.3267,3.3172,3.3293,3.3389,3.3389,3.3389,3.3389,3.3389,3.3389,3.3389,3.3389,3.3389,3.3389,3.3389,3.3389,3.3389,3.3389,3.3389,3.3389,3.3389,3.3389,3.3389,3.3389,3.3389,3.3402,3.3428,3.3641,3.4014,3.4188,3.4482,3.4829,3.4923,3.5084,3.5151,3.0776,3.0776,3.0776,3.0786,3.0786,3.0786,3.0786,3.0786,3.0786,3.0786,3.0786,3.0786,3.0782,3.0723,3.0694,3.0753,3.0767,3.0753,3.0778,3.0786,3.0786,3.0786,3.0786,3.0786,3.0786,3.0786,3.0786,3.0786,3.0786,3.0786,3.0786,3.0786,3.0786,3.0786,3.0786,3.0786,3.0786,3.0786,3.0786,3.0786,3.0786,3.0786,3.0786,3.0786,3.0786,3.0786,3.0786,3.0786,3.0801,3.0801,3.0805,3.0915,3.1189,3.123,3.1373,3.1654,3.1606,3.156,3.1621,3.1842,3.1949,3.1932,3.2577,3.2838,3.2398,3.2856,3.2845,3.2094,3.2644,3.2685,3.1946,3.1845,3.205,3.2569,3.2592,3.2701,3.2969,3.3036,3.2999,3.2984,3.3051,3.3172,3.3334,3.3388,3.3389,3.3389,3.3389,3.3389,3.3389,3.3389,3.3389,3.3389,3.3389,3.3389,3.3389,3.3389,3.3389,3.3389,3.3389,3.3389,3.3389,3.3389,3.3389,3.3389,3.3389,3.3402,3.3455,3.3734,3.4175,3.4442,3.4669,3.4909,3.5057,3.5137,3.5191,3.0786,3.0786,3.0786,3.0786,3.0786,3.0786,3.0786,3.0786,3.0786,3.0786,3.0786,3.0786,3.0786,3.0786,3.0786,3.0786,3.0786,3.0786,3.0786,3.0786,3.0786,3.0786,3.0786,3.0786,3.0786,3.0786,3.0786,3.0786,3.0786,3.0786,3.0786,3.0786,3.0786,3.0786,3.0786,3.0786,3.0786,3.0786,3.0786,3.0786,3.0786,3.0786,3.0786,3.0786,3.0786,3.0786,3.0786,3.0786,3.0899,3.1114,3.1118,3.1264,3.1593,3.1827,3.2086,3.2398,3.2554,3.2617,3.2661,3.2922,3.3061,3.3049,3.3316,3.3453,3.3282,3.3446,3.3415,3.3136,3.3335,3.3386,3.3061,3.2685,3.2765,3.3339,3.3146,3.3117,3.3521,3.3478,3.3253,3.3241,3.3241,3.3307,3.3348,3.3389,3.3389,3.3389,3.3389,3.3389,3.3389,3.3389,3.3389,3.3389,3.3389,3.3389,3.3389,3.3389,3.3389,3.3389,3.3389,3.3389,3.3389,3.3389,3.3389,3.3389,3.3389,3.3442,3.3535,3.3935,3.4362,3.479,3.5017,3.503,3.519,3.5191,3.5191,3.0786,3.0786,3.0786,3.0786,3.0786,3.0786,3.0786,3.0786,3.0786,3.0786,3.0786,3.0786,3.0786,3.0786,3.0786,3.0786,3.0786,3.0786,3.0786,3.0786,3.0786,3.0786,3.0786,3.0786,3.0786,3.0786,3.0786,3.0786,3.0786,3.0786,3.0786,3.0786,3.0786,3.0786,3.0786,3.0786,3.0786,3.0786,3.0786,3.0786,3.0786,3.0786,3.0786,3.0786,3.0786,3.0786,3.0786,3.0899,3.106,3.1275,3.1402,3.1666,3.2101,3.2412,3.2745,3.3056,3.3242,3.3348,3.3388,3.3578,3.3739,3.3856,3.3958,3.404,3.4028,3.4139,3.4057,3.3948,3.4118,3.4261,3.4094,3.3841,3.3848,3.4166,3.3812,3.3687,3.4109,3.3875,3.36,3.3425,3.3362,3.3375,3.3389,3.3389,3.3389,3.3389,3.3389,3.3389,3.3389,3.3389,3.3389,3.3389,3.3389,3.3389,3.3389,3.3389,3.3389,3.3389,3.3389,3.3389,3.3389,3.3389,3.3389,3.3389,3.3429,3.3495,3.3748,3.4148,3.4589,3.5057,3.5151,3.5137,3.5191,3.5177,3.5191,3.0786,3.0786,3.0786,3.0786,3.0786,3.0786,3.0786,3.0786,3.0786,3.0786,3.0786,3.0786,3.0786,3.0786,3.0786,3.0786,3.0786,3.0786,3.0786,3.0786,3.0786,3.0786,3.0786,3.0786,3.0826,3.0844,3.0815,3.0815,3.083,3.0874,3.0874,3.0801,3.084,3.088,3.0815,3.0826,3.0811,3.083,3.0815,3.0786,3.0786,3.0786,3.0801,3.0815,3.083,3.0855,3.0844,3.1129,3.1304,3.1392,3.1651,3.2116,3.2683,3.3016,3.333,3.3563,3.368,3.3706,3.3721,3.3779,3.401,3.4244,3.4534,3.4698,3.4739,3.4941,3.491,3.4618,3.4857,3.5121,3.4991,3.5082,3.5068,3.4708,3.4552,3.441,3.4281,3.4175,3.3988,3.3576,3.3439,3.3401,3.3389,3.3389,3.3389,3.3389,3.3389,3.3389,3.3389,3.3389,3.3389,3.3389,3.3389,3.3389,3.3389,3.3389,3.3389,3.3389,3.3389,3.3389,3.3389,3.3389,3.3389,3.3389,3.3389,3.3469,3.3855,3.4255,3.4589,3.4977,3.507,3.5177,3.5191,3.5191,3.5191,3.0786,3.0786,3.0786,3.0786,3.0786,3.0786,3.0786,3.0786,3.0786,3.0786,3.0786,3.0786,3.0786,3.0786,3.0786,3.0786,3.0786,3.0786,3.0786,3.0801,3.0801,3.0801,3.0801,3.0801,3.0903,3.1103,3.1143,3.1143,3.1177,3.1373,3.1279,3.0928,3.103,3.1143,3.1118,3.0928,3.0909,3.1099,3.0913,3.0786,3.0786,3.0801,3.0899,3.1129,3.1143,3.1235,3.1476,3.1363,3.1524,3.1944,3.2086,3.2438,3.299,3.3359,3.3593,3.3695,3.3926,3.4054,3.4101,3.4472,3.4736,3.4914,3.5202,3.536,3.5389,3.5474,3.5461,3.5311,3.5615,3.5783,3.5803,3.6016,3.5992,3.568,3.5175,3.4885,3.4683,3.4126,3.3814,3.3889,3.3639,3.3426,3.3401,3.3401,3.3389,3.3389,3.3389,3.3389,3.3389,3.3389,3.3389,3.3389,3.3389,3.3389,3.3389,3.3389,3.3389,3.3389,3.3389,3.3468,3.3468,3.3468,3.3455,3.3482,3.3469,3.3642,3.4028,3.4336,3.4683,3.4897,3.5044,3.5124,3.5164,3.5191,3.5191,3.0786,3.0786,3.0786,3.0786,3.0786,3.0786,3.0786,3.0786,3.0786,3.0786,3.0786,3.0786,3.0786,3.0786,3.0786,3.0786,3.0786,3.0786,3.0859,3.0932,3.084,3.0869,3.0986,3.1129,3.1187,3.1304,3.1421,3.149,3.1505,3.1677,3.1567,3.1275,3.1388,3.149,3.1476,3.1279,3.1279,3.1421,3.1279,3.1172,3.1172,3.1172,3.1275,3.145,3.149,3.1677,3.194,3.1794,3.1856,3.2262,3.2485,3.2942,3.3505,3.3768,3.394,3.4101,3.4262,3.4435,3.4578,3.4935,3.5272,3.5392,3.567,3.5785,3.5741,3.5767,3.5858,3.5875,3.5995,3.6148,3.6292,3.6453,3.6495,3.6297,3.5899,3.5518,3.5235,3.4351,3.4026,3.4238,3.4051,3.3776,3.3689,3.3464,3.3414,3.3389,3.3389,3.3389,3.3389,3.3389,3.3389,3.3389,3.3389,3.3389,3.3389,3.3389,3.3389,3.3389,3.3389,3.3521,3.3614,3.3654,3.3668,3.3829,3.3882,3.4042,3.4388,3.4469,3.4709,3.4857,3.503,3.5124,3.5191,3.5191,3.5191,3.084,3.0836,3.0801,3.0826,3.0855,3.0855,3.0899,3.0884,3.0888,3.0928,3.0903,3.0968,3.0884,3.0855,3.0884,3.0844,3.0801,3.0869,3.1001,3.1133,3.1085,3.1085,3.1344,3.1578,3.1603,3.153,3.171,3.1812,3.1827,3.1925,3.1827,3.1728,3.1779,3.1827,3.1798,3.1812,3.1754,3.1812,3.1768,3.1724,3.1724,3.175,3.1812,3.1878,3.19,3.2061,3.2398,3.2438,3.2394,3.2452,3.2946,3.356,3.4083,3.4233,3.4432,3.4724,3.4753,3.4926,3.514,3.5301,3.5421,3.5709,3.5951,3.6039,3.5914,3.6039,3.6144,3.6131,3.6161,3.6263,3.6497,3.6585,3.657,3.6585,3.6348,3.6127,3.5818,3.4849,3.4424,3.4687,3.455,3.4139,3.3976,3.3626,3.3451,3.3389,3.3389,3.3389,3.3389,3.3389,3.3415,3.3441,3.3468,3.3481,3.3508,3.3389,3.3428,3.3575,3.3561,3.3654,3.38,3.3867,3.3921,3.4082,3.4229,3.4429,3.4562,3.4589,3.4723,3.4936,3.507,3.5151,3.5191,3.5191,3.5204,3.1183,3.1143,3.0909,3.0943,3.1158,3.1172,3.1319,3.152,3.1524,3.148,3.152,3.1538,3.1373,3.1187,3.1172,3.103,3.0928,3.107,3.1187,3.1319,3.1505,3.1553,3.1641,3.1754,3.1896,3.2013,3.209,3.2185,3.2189,3.239,3.2273,3.1838,3.2072,3.2149,3.2156,3.1955,3.1944,3.2101,3.1915,3.1827,3.1827,3.1827,3.2057,3.2518,3.2548,3.2804,3.3264,3.3326,3.3195,3.3023,3.3589,3.4127,3.4549,3.4794,3.5052,3.5316,3.5404,3.5448,3.5565,3.5731,3.5895,3.5997,3.6261,3.6436,3.6375,3.6422,3.6468,3.6468,3.6468,3.647,3.657,3.6599,3.6599,3.6562,3.6369,3.6179,3.609,3.5148,3.4401,3.4799,3.4225,3.3876,3.3764,3.3601,3.3451,3.3439,3.3414,3.3415,3.3429,3.3455,3.3495,3.3601,3.3654,3.3642,3.3601,3.3481,3.3508,3.376,3.3827,3.3841,3.3988,3.4108,3.4175,3.4269,3.4323,3.4496,3.4536,3.4562,3.4776,3.5016,3.5137,3.5244,3.5217,3.5217,3.5244,3.152,3.148,3.1304,3.1323,3.1494,3.1509,3.1611,3.1768,3.1798,3.1798,3.1798,3.1798,3.1706,3.1509,3.1505,3.1417,3.126,3.1421,3.1582,3.1783,3.2072,3.2046,3.1929,3.2017,3.2258,3.2302,3.2438,3.2496,3.2537,3.2723,3.2566,3.2346,3.2408,3.2518,3.2518,3.2346,3.2302,3.2449,3.2317,3.2218,3.2218,3.2229,3.2471,3.2892,3.2997,3.3264,3.3823,3.4028,3.4013,3.3944,3.4218,3.4622,3.5073,3.5299,3.5516,3.5706,3.5706,3.5726,3.5863,3.6027,3.6161,3.6292,3.6524,3.657,3.657,3.6599,3.6599,3.6585,3.6599,3.6599,3.6626,3.6714,3.6861,3.698,3.6616,3.6435,3.6616,3.5607,3.5235,3.5284,3.4973,3.4401,3.4363,3.4026,3.3776,3.3701,3.3539,3.3557,3.3575,3.3588,3.3654,3.3801,3.3895,3.3908,3.3908,3.3802,3.3815,3.4015,3.4202,3.4202,3.4295,3.4442,3.4576,3.463,3.4563,3.4536,3.4643,3.475,3.491,3.5111,3.5231,3.5351,3.5364,3.5431,3.5431,3.1852,3.1852,3.1823,3.1812,3.1841,3.1852,3.1911,3.1925,3.198,3.1969,3.1969,3.1929,3.194,3.1856,3.1852,3.1823,3.1768,3.1798,3.2057,3.2291,3.2526,3.2504,3.2207,3.2482,3.2577,3.2474,3.2668,3.2753,3.2764,3.2808,3.2829,3.2745,3.2774,3.2804,3.2789,3.2782,3.2793,3.2756,3.2774,3.2774,3.2804,3.2859,3.3045,3.3315,3.3586,3.3809,3.4277,3.4595,3.4812,3.4856,3.4815,3.5131,3.565,3.5726,3.5785,3.5829,3.5887,3.5963,3.6102,3.619,3.6278,3.6512,3.657,3.6599,3.6599,3.6656,3.6673,3.6599,3.6643,3.6787,3.6831,3.7019,3.7224,3.7385,3.7258,3.7022,3.6686,3.6185,3.5993,3.6418,3.6022,3.5756,3.5513,3.4966,3.4258,3.4265,3.4023,3.3838,3.3869,3.3895,3.3975,3.4094,3.4148,3.4202,3.4189,3.4162,3.4229,3.4362,3.4577,3.467,3.4736,3.487,3.5044,3.5071,3.4897,3.4883,3.5004,3.5097,3.5191,3.5324,3.5525,3.5618,3.5658,3.5792,3.5832,3.22,3.2163,3.1925,3.1944,3.2174,3.2189,3.2335,3.2562,3.258,3.2551,3.2577,3.2577,3.2419,3.2189,3.2185,3.2068,3.1936,3.2086,3.2375,3.2679,3.2753,3.2892,3.2811,3.2892,3.2767,3.2742,3.2767,3.2826,3.2815,3.2873,3.2895,3.3063,3.2906,3.2906,3.3045,3.2917,3.2797,3.284,3.3001,3.3121,3.318,3.3367,3.3604,3.3955,3.4417,3.4765,3.4988,3.5304,3.5582,3.569,3.5614,3.5668,3.5951,3.6027,3.6114,3.6275,3.6348,3.6407,3.6468,3.6468,3.6512,3.657,3.6629,3.6599,3.6614,3.6861,3.6846,3.6775,3.7036,3.731,3.7356,3.7442,3.7559,3.762,3.7561,3.7473,3.7239,3.6458,3.6166,3.6177,3.5817,3.5283,3.5533,3.5137,3.4766,3.4792,3.4542,3.4212,3.4189,3.4229,3.4309,3.4428,3.4523,3.4576,3.4576,3.4563,3.4616,3.467,3.4857,3.4977,3.5044,3.5137,3.5231,3.5231,3.5151,3.5191,3.5217,3.5444,3.5511,3.5685,3.5819,3.5899,3.5992,3.6113,3.6153,3.2968,3.2939,3.2778,3.2697,3.2752,3.2895,3.2906,3.2844,3.2939,3.291,3.2826,3.2808,3.2698,3.2537,3.2548,3.243,3.2346,3.2449,3.2701,3.2939,3.3012,3.3173,3.3326,3.3191,3.3041,3.3188,3.3232,3.3217,3.3188,3.3074,3.3074,3.3158,3.295,3.2873,3.303,3.3012,3.3001,3.3071,3.3282,3.3446,3.3479,3.3607,3.3958,3.4417,3.4938,3.5301,3.5602,3.5763,3.6027,3.6217,3.62,3.617,3.6305,3.6336,3.6439,3.6541,3.6599,3.6599,3.6585,3.6599,3.6585,3.6614,3.6729,3.6817,3.6905,3.7151,3.7252,3.7195,3.7371,3.7634,3.7808,3.7837,3.7868,3.7973,3.7912,3.787,3.7834,3.7208,3.6681,3.6788,3.6617,3.6277,3.6008,3.5481,3.5117,3.5074,3.4602,3.4309,3.4589,3.4629,3.4682,3.4776,3.491,3.4964,3.4964,3.4977,3.5004,3.5017,3.5057,3.5111,3.5124,3.5231,3.5351,3.5311,3.5297,3.5257,3.5324,3.5578,3.5832,3.5925,3.6046,3.6193,3.6326,3.6446,3.642,3.3695,3.3695,3.3695,3.3546,3.3333,3.3549,3.3352,3.2939,3.3107,3.303,3.284,3.2808,3.2782,3.2782,3.2782,3.28,3.2829,3.2782,3.2892,3.3125,3.3154,3.3344,3.3534,3.3505,3.3575,3.3809,3.3578,3.356,3.3546,3.3446,3.3373,3.3315,3.3089,3.3126,3.3115,3.3151,3.3286,3.333,3.3607,3.3768,3.3812,3.3882,3.4233,3.471,3.5219,3.5585,3.5941,3.6131,3.6307,3.657,3.6599,3.6599,3.6599,3.6599,3.6599,3.6599,3.6658,3.6717,3.6758,3.6773,3.6817,3.6758,3.6992,3.7153,3.7239,3.7457,3.7574,3.7632,3.7722,3.7956,3.8189,3.8379,3.847,3.856,3.8454,3.8454,3.8501,3.8178,3.7934,3.7558,3.7124,3.6699,3.6443,3.6057,3.5675,3.5267,3.4805,3.455,3.4843,3.5096,3.5163,3.5204,3.5324,3.5445,3.5471,3.5431,3.5458,3.5311,3.5297,3.5297,3.5298,3.5364,3.5458,3.5431,3.5418,3.5458,3.5591,3.5885,3.6072,3.6166,3.6326,3.65,3.6633,3.6766,3.6673,3.3695,3.3695,3.3695,3.3677,3.3622,3.3692,3.3516,3.3169,3.3213,3.306,3.2844,3.2811,3.2855,3.284,3.28,3.291,3.3074,3.3012,3.3027,3.3231,3.33,3.3498,3.4084,3.3954,3.4223,3.4204,3.3841,3.3534,3.3721,3.3663,3.3736,3.3893,3.3674,3.3601,3.3689,3.3765,3.3633,3.3666,3.394,3.4113,3.416,3.4376,3.4683,3.5146,3.5614,3.5927,3.6117,3.6365,3.6553,3.6597,3.6599,3.6599,3.6599,3.6599,3.6599,3.6629,3.6802,3.689,3.6963,3.7224,3.7371,3.7444,3.7502,3.7544,3.7618,3.7837,3.8,3.7929,3.8163,3.8501,3.8823,3.8982,3.9203,3.9291,3.9218,3.9202,3.9218,3.9072,3.8747,3.8236,3.7581,3.6908,3.6634,3.6336,3.5898,3.5604,3.5387,3.5123,3.5217,3.5511,3.5725,3.5765,3.5778,3.5899,3.5979,3.5939,3.5885,3.5645,3.5565,3.5565,3.5565,3.5538,3.5565,3.5685,3.5792,3.5885,3.6046,3.6219,3.6299,3.6366,3.658,3.6792,3.6819,3.6833,3.6846,3.4218,3.423,3.423,3.4116,3.4025,3.4145,3.3926,3.3508,3.3637,3.3546,3.3337,3.3276,3.3276,3.325,3.325,3.3341,3.337,3.3352,3.344,3.3651,3.3747,3.4552,3.5132,3.4734,3.5198,3.5356,3.4671,3.3856,3.4171,3.4028,3.4072,3.4057,3.3867,3.3783,3.3914,3.394,3.394,3.4043,3.4274,3.4449,3.4478,3.4783,3.516,3.5631,3.5912,3.6148,3.6365,3.6468,3.6585,3.6599,3.6599,3.6599,3.6599,3.6599,3.6599,3.6641,3.6787,3.6948,3.7065,3.7283,3.7383,3.7618,3.7856,3.8048,3.8207,3.8485,3.866,3.8675,3.8721,3.9073,3.9234,3.9424,3.9468,3.9483,3.9512,3.9526,3.9512,3.9512,3.9193,3.8744,3.8135,3.7446,3.6688,3.6378,3.6037,3.5883,3.5845,3.5738,3.5631,3.5899,3.6193,3.6166,3.6139,3.6246,3.6353,3.6353,3.6273,3.6032,3.5859,3.5859,3.5899,3.5925,3.6005,3.6126,3.6219,3.634,3.6273,3.6353,3.6446,3.6566,3.6713,3.6846,3.6873,3.6899,3.6913,3.4698,3.4698,3.4698,3.4537,3.4376,3.4592,3.435,3.394,3.4046,3.397,3.3724,3.368,3.3666,3.368,3.368,3.371,3.3757,3.3736,3.3838,3.4083,3.4165,3.5227,3.5814,3.5663,3.5085,3.5831,3.5185,3.4435,3.4522,3.4394,3.4318,3.4288,3.4028,3.3911,3.4025,3.4218,3.4288,3.4391,3.4522,3.471,3.4856,3.5143,3.555,3.6058,3.6163,3.6336,3.6539,3.657,3.6585,3.6599,3.6599,3.6599,3.6599,3.6599,3.6629,3.6685,3.6744,3.6963,3.7239,3.7446,3.7709,3.8017,3.8369,3.8563,3.8781,3.9086,3.9395,3.9483,3.9569,3.9554,3.9598,3.9686,3.973,3.9759,3.9803,3.9803,3.9818,3.978,3.9636,3.9171,3.8647,3.7968,3.722,3.6645,3.6339,3.6073,3.6033,3.6033,3.5979,3.6299,3.6526,3.6473,3.6473,3.658,3.6661,3.6727,3.662,3.642,3.6246,3.6153,3.6259,3.6366,3.6487,3.662,3.67,3.6767,3.6633,3.6513,3.6646,3.6753,3.6833,3.6873,3.6886,3.6926,3.6953,3.4698,3.4698,3.4698,3.468,3.4639,3.468,3.4505,3.4186,3.4215,3.4013,3.3783,3.3724,3.3753,3.3768,3.3765,3.3896,3.3999,3.3952,3.3996,3.4256,3.4294,3.4574,3.4853,3.4773,3.4939,3.5634,3.5033,3.4689,3.468,3.4625,3.461,3.4566,3.4537,3.4563,3.4449,3.4496,3.4636,3.4651,3.4683,3.4853,3.514,3.546,3.5802,3.6114,3.6351,3.6524,3.6597,3.6599,3.6599,3.6599,3.6599,3.6599,3.6599,3.6599,3.6773,3.7034,3.7312,3.7605,3.7868,3.8048,3.8326,3.8574,3.8898,3.9088,3.935,3.948,3.9626,3.951,3.9787,4.0007,4.0109,4.0241,4.0342,4.0459,4.0534,4.0504,4.046,4.0405,4.0202,3.9551,3.9022,3.84,3.7705,3.7178,3.6693,3.6423,3.6246,3.626,3.6393,3.674,3.6953,3.6941,3.6954,3.7048,3.7061,3.7128,3.6994,3.6807,3.6727,3.658,3.6661,3.6807,3.7008,3.7128,3.7181,3.7155,3.7007,3.6926,3.6899,3.6886,3.694,3.6913,3.6899,3.6939,3.6993,3.4985,3.4958,3.4783,3.4698,3.4698,3.4698,3.4622,3.4508,3.4478,3.4394,3.4288,3.4274,3.4274,3.4233,3.4274,3.4335,3.4435,3.4303,3.4332,3.4435,3.4557,3.503,3.5755,3.5295,3.5031,3.5704,3.5276,3.468,3.4698,3.4698,3.4698,3.4698,3.4698,3.4669,3.4739,3.4698,3.4698,3.4739,3.4882,3.5155,3.5462,3.5773,3.6056,3.6365,3.6536,3.657,3.6599,3.6599,3.6599,3.6599,3.6599,3.6599,3.6656,3.6787,3.7022,3.7371,3.7691,3.7938,3.8101,3.8357,3.8678,3.9044,3.9322,3.9729,3.9991,4.0064,4.0152,4.0372,4.0474,4.0606,4.0725,4.0929,4.0974,4.1047,4.1105,4.1062,4.1018,4.1078,4.0854,4.0126,3.9359,3.8692,3.7989,3.7319,3.6829,3.6597,3.6593,3.6767,3.6954,3.7261,3.7408,3.7448,3.7488,3.7555,3.7541,3.7541,3.7408,3.7288,3.7354,3.7235,3.7142,3.7262,3.7435,3.7528,3.7541,3.7488,3.738,3.7193,3.7047,3.7033,3.702,3.7073,3.71,3.6979,3.7113,3.5301,3.5383,3.4988,3.4812,3.4824,3.4739,3.4698,3.471,3.4683,3.4683,3.4698,3.4669,3.4669,3.4683,3.4654,3.4639,3.4683,3.4698,3.4698,3.4698,3.4847,3.5433,3.5697,3.5311,3.5393,3.688,3.5311,3.4756,3.4739,3.4783,3.4824,3.4724,3.4827,3.4827,3.4838,3.4868,3.4868,3.4882,3.5067,3.5386,3.5743,3.5956,3.6275,3.6482,3.6599,3.6599,3.6599,3.6599,3.6599,3.6599,3.6599,3.6629,3.6785,3.6948,3.7283,3.7662,3.8028,3.8264,3.841,3.8589,3.8808,3.9203,3.9686,4.0181,4.0372,4.0518,4.0649,4.0854,4.0898,4.1076,4.1311,4.137,4.134,4.134,4.1443,4.1429,4.1401,4.129,4.0881,3.9994,3.9294,3.8847,3.814,3.7395,3.6957,3.6741,3.6874,3.7207,3.7461,3.7728,3.7728,3.7768,3.7995,3.8009,3.7943,3.7903,3.7769,3.7716,3.7782,3.7728,3.7555,3.765,3.7878,3.7917,3.7902,3.7889,3.7823,3.7502,3.718,3.73,3.738,3.7368,3.7341,3.7207,3.7314,3.5538,3.5985,3.5407,3.5169,3.5152,3.4827,3.4724,3.4797,3.4753,3.4742,3.4753,3.4724,3.4739,3.4698,3.4698,3.4698,3.4698,3.4698,3.4698,3.4698,3.4756,3.4906,3.5081,3.5011,3.4812,3.5093,3.4812,3.4815,3.4797,3.5082,3.4953,3.4794,3.5055,3.5128,3.5169,3.5158,3.5169,3.5184,3.5287,3.5568,3.5922,3.6131,3.6292,3.6526,3.6599,3.6599,3.6599,3.6599,3.6599,3.6599,3.6643,3.6773,3.6961,3.7166,3.7542,3.7971,3.8324,3.8589,3.8823,3.8984,3.9161,3.9554,4.0052,4.0548,4.0651,4.0547,4.0693,4.1029,4.1118,4.1221,4.1354,4.1442,4.1574,4.1647,4.1749,4.1749,4.1594,4.1271,4.0774,3.9841,3.9236,3.8828,3.8446,3.7724,3.7329,3.7141,3.7382,3.7702,3.7822,3.8022,3.7968,3.8048,3.8408,3.8463,3.8304,3.8224,3.8198,3.8076,3.805,3.7969,3.7823,3.801,3.8238,3.8251,3.8237,3.8252,3.8253,3.7969,3.7782,3.7741,3.7714,3.7621,3.7689,3.7716,3.7837,3.5743,3.6073,3.5836,3.567,3.5489,3.5375,3.5316,3.5316,3.5304,3.5187,3.4982,3.4985,3.4882,3.4753,3.4698,3.4698,3.4698,3.4698,3.4698,3.4698,3.4698,3.4698,3.4698,3.4698,3.471,3.4742,3.4885,3.4999,3.5055,3.5357,3.543,3.5401,3.5462,3.5462,3.5492,3.5492,3.5492,3.555,3.5643,3.5924,3.6029,3.6322,3.6468,3.657,3.6599,3.6599,3.6599,3.6599,3.6599,3.6643,3.6802,3.699,3.7195,3.7471,3.7868,3.8309,3.862,3.8956,3.9276,3.9483,3.9832,4.0386,4.0812,4.1018,4.0959,4.0913,4.1117,4.1322,4.1338,4.1384,4.1924,4.2012,4.207,4.207,4.2055,4.2041,4.1772,4.1374,4.0817,3.9951,3.9356,3.8873,3.8503,3.8106,3.7809,3.7595,3.7903,3.8143,3.8222,3.8356,3.8328,3.8408,3.8755,3.8837,3.8679,3.8652,3.8624,3.8477,3.833,3.8223,3.8143,3.8343,3.8531,3.8544,3.8517,3.8505,3.8464,3.8437,3.8316,3.8142,3.7969,3.7782,3.793,3.8131,3.8252,3.5785,3.6073,3.6,3.5922,3.5802,3.5738,3.5706,3.5692,3.5562,3.5372,3.5067,3.5052,3.4938,3.4753,3.4698,3.4797,3.4797,3.4783,3.4783,3.4783,3.4768,3.4712,3.4698,3.4724,3.4768,3.4856,3.5043,3.5187,3.5372,3.5668,3.5758,3.5817,3.5917,3.5919,3.5802,3.5826,3.5817,3.5863,3.5968,3.619,3.6263,3.6453,3.657,3.6599,3.6599,3.6599,3.6599,3.6599,3.6685,3.6802,3.6963,3.7195,3.7486,3.7825,3.8251,3.8605,3.8943,3.9292,3.9613,3.9875,4.0299,4.0795,4.1031,4.1237,4.131,4.1192,4.1234,4.1718,4.1617,4.1662,4.2289,4.2304,4.2275,4.2246,4.226,4.2203,4.1761,4.1346,4.0758,4.0098,3.9484,3.8814,3.8699,3.8397,3.8276,3.8049,3.8077,3.8317,3.8489,3.8622,3.8754,3.8889,3.9116,3.9104,3.9038,3.9038,3.9012,3.8755,3.8623,3.8531,3.8531,3.8676,3.8702,3.8636,3.8636,3.869,3.8663,3.8583,3.8531,3.8451,3.8278,3.8116,3.8223,3.841,3.8425,3.558,3.6044,3.5802,3.5858,3.6009,3.5811,3.5709,3.5694,3.543,3.5099,3.4853,3.4809,3.4768,3.4698,3.4698,3.4812,3.4955,3.4841,3.4856,3.4999,3.497,3.4797,3.4742,3.4783,3.4897,3.5114,3.5272,3.5445,3.5694,3.5978,3.6085,3.6173,3.6275,3.6334,3.6117,3.609,3.609,3.609,3.6131,3.6307,3.6468,3.657,3.6585,3.6599,3.6599,3.6599,3.6599,3.6673,3.6787,3.699,3.718,3.7486,3.7909,3.8086,3.8469,3.8955,3.9306,3.9642,3.9963,4.0021,4.0459,4.1015,4.1265,4.1411,4.1384,4.1294,4.1352,4.1938,4.169,4.1808,4.2129,4.2392,4.2406,4.248,4.2495,4.2192,4.1733,4.0986,4.0353,3.999,3.9324,3.8718,3.8719,3.869,3.8676,3.8543,3.8398,3.8492,3.8675,3.8916,3.9103,3.9236,3.9424,3.9411,3.9372,3.9439,3.9372,3.9116,3.8876,3.8703,3.8676,3.8742,3.8755,3.8715,3.8769,3.8849,3.8782,3.8702,3.8663,3.8624,3.8623,3.857,3.8636,3.8636,3.8611,3.5304,3.5497,3.5636,3.5753,3.5814,3.5726,3.5797,3.5892,3.5653,3.5331,3.507,3.5038,3.4882,3.4768,3.4739,3.4809,3.4885,3.5111,3.5155,3.5187,3.5245,3.5213,3.5099,3.504,3.5111,3.5228,3.5401,3.567,3.5968,3.6248,3.6407,3.6495,3.6497,3.6526,3.6453,3.6424,3.6424,3.6424,3.6439,3.6482,3.6585,3.6599,3.6599,3.6599,3.6599,3.6599,3.6643,3.6775,3.6978,3.721,3.7415,3.7837,3.8174,3.8337,3.8865,3.9291,3.9656,4.0095,4.0534,4.0826,4.1004,4.1324,4.1616,4.1835,4.2011,4.1749,4.1894,4.204,4.1895,4.2114,4.2567,4.2479,4.2509,4.2759,4.2687,4.2122,4.1531,4.0509,3.9775,3.9655,3.9203,3.9031,3.8982,3.8984,3.897,3.889,3.8732,3.8703,3.8861,3.9197,3.9424,3.9531,3.9638,3.9666,3.968,3.9613,3.9493,3.9223,3.8942,3.873,3.8729,3.8795,3.8888,3.8901,3.8968,3.9022,3.8982,3.8929,3.8836,3.8782,3.8795,3.8742,3.8675,3.8662,3.8662,3.5187,3.5213,3.543,3.5592,3.5694,3.5799,3.5951,3.6044,3.5919,3.5668,3.5389,3.5255,3.5169,3.504,3.4926,3.5075,3.5163,3.5275,3.548,3.5506,3.5606,3.5533,3.5416,3.5398,3.5477,3.5536,3.5714,3.598,3.6251,3.647,3.6556,3.657,3.6599,3.6585,3.657,3.6556,3.657,3.6556,3.6556,3.657,3.6599,3.6599,3.6599,3.6599,3.6614,3.6656,3.6802,3.699,3.7224,3.7473,3.7808,3.8159,3.8339,3.8691,3.9159,3.9481,4.0093,4.0503,4.0898,4.1368,4.1471,4.1602,4.2041,4.226,4.2304,4.2011,4.2201,4.2304,4.2202,4.2523,4.286,4.2699,4.273,4.2978,4.2541,4.199,4.1107,4.0109,3.9702,3.9553,3.9444,3.9329,3.9276,3.9277,3.9264,3.9144,3.9038,3.9049,3.9061,3.9316,3.9585,3.9706,3.9853,3.9933,3.9812,3.9625,3.9491,3.9303,3.9022,3.873,3.8715,3.8769,3.8928,3.9046,3.8994,3.9009,3.9169,3.9156,3.8996,3.8942,3.8982,3.8889,3.8742,3.8795,3.8902,3.5211,3.5187,3.5187,3.5398,3.5682,3.5951,3.6061,3.6058,3.607,3.5907,3.5677,3.5369,3.5357,3.5548,3.5343,3.5477,3.5819,3.5729,3.5834,3.5936,3.5917,3.5785,3.5726,3.5697,3.5787,3.5968,3.61,3.6173,3.6541,3.6585,3.6585,3.6599,3.6599,3.6599,3.6599,3.6599,3.6599,3.6599,3.6599,3.6599,3.6599,3.6599,3.6599,3.6599,3.6599,3.6773,3.6946,3.7151,3.7515,3.7808,3.8101,3.828,3.8516,3.8824,3.9161,3.9686,4.0517,4.0869,4.1133,4.1573,4.1865,4.1924,4.1968,4.2157,4.2231,4.2172,4.2348,4.2538,4.2553,4.2919,4.3197,4.3051,4.2934,4.2713,4.2331,4.1587,4.0699,4.0072,3.982,3.9654,3.9559,3.9504,3.957,3.9585,3.9545,3.9438,3.9331,3.9264,3.9276,3.9301,3.9585,3.9773,3.9947,4.0174,4.004,3.9772,3.9571,3.9424,3.8997,3.8703,3.8715,3.8822,3.9076,3.9169,3.8956,3.8942,3.9036,3.9089,3.9104,3.9104,3.9183,3.9183,3.9089,3.9237,3.9331,3.5416,3.5199,3.5187,3.5269,3.5404,3.5895,3.5853,3.5509,3.5685,3.5753,3.5706,3.5606,3.5636,3.5692,3.5604,3.5694,3.5814,3.5934,3.6012,3.61,3.6214,3.6141,3.6068,3.5995,3.6056,3.6088,3.6175,3.6292,3.6526,3.6599,3.6599,3.6599,3.6599,3.6599,3.6599,3.6599,3.6599,3.6599,3.6599,3.6599,3.6599,3.6599,3.6599,3.6599,3.6629,3.6831,3.7078,3.7356,3.772,3.8013,3.828,3.8446,3.8503,3.9042,3.9554,4.0212,4.0855,4.1296,4.1398,4.188,4.2231,4.2216,4.2216,4.2289,4.2348,4.2377,4.245,4.2699,4.2919,4.3211,4.3328,4.3238,4.3059,4.2761,4.2186,4.1219,4.0428,4.0145,3.9905,3.983,3.9733,3.98,3.9852,3.9892,3.9852,3.9745,3.9651,3.9585,3.9516,3.957,3.961,3.9812,4.0067,4.0308,4.0187,3.9947,3.9746,3.9534,3.9132,3.885,3.8862,3.9037,3.9292,3.9386,3.9317,3.9077,3.8822,3.897,3.9264,3.9329,3.9423,3.9436,3.9476,3.9638,3.968,3.5516,3.5228,3.5345,3.5401,3.5477,3.5907,3.588,3.5655,3.5904,3.6051,3.6048,3.5931,3.5931,3.6063,3.596,3.596,3.6122,3.6244,3.6334,3.638,3.6485,3.6424,3.6336,3.6292,3.6307,3.628,3.6322,3.6436,3.6556,3.6599,3.6599,3.6599,3.6599,3.6599,3.6599,3.6599,3.6599,3.6599,3.6599,3.6599,3.6599,3.6599,3.6599,3.6629,3.6687,3.6963,3.7295,3.7618,3.794,3.8205,3.8446,3.849,3.862,3.913,3.9932,4.0547,4.1062,4.1442,4.1646,4.207,4.2304,4.2406,4.2406,4.2392,4.2479,4.2523,4.2787,4.3065,4.3226,4.3387,4.3399,4.3365,4.3136,4.2933,4.1914,4.0899,4.0499,4.0198,4.0078,4.0018,4.0029,4.008,4.0134,4.0174,4.0187,4.0134,4.0094,4.008,3.9959,3.9892,3.9863,3.9932,4.0201,4.0456,4.0283,4.0094,3.9907,3.9706,3.9479,3.9237,3.9143,3.9211,3.9451,3.9653,3.9772,3.9504,3.9196,3.9331,3.9531,3.961,3.973,3.9797,3.9892,4.004,4.0,3.553,3.5272,3.5592,3.5723,3.5782,3.6041,3.6146,3.6175,3.6434,3.657,3.6509,3.6265,3.6292,3.6392,3.6273,3.6305,3.6392,3.6509,3.6524,3.6597,3.657,3.6541,3.6541,3.6585,3.6497,3.6556,3.657,3.6526,3.657,3.6599,3.6599,3.6599,3.6599,3.6599,3.6599,3.6599,3.6599,3.6599,3.6599,3.6599,3.6599,3.6599,3.6614,3.6714,3.6934,3.7226,3.7603,3.794,3.8247,3.843,3.8548,3.8591,3.8955,3.9247,4.0079,4.0708,4.1207,4.1515,4.1807,4.2187,4.2392,4.245,4.245,4.2553,4.2684,4.2713,4.2948,4.3241,4.3431,4.3532,4.3556,4.315,4.2844,4.2344,4.1495,4.0787,4.0445,4.0276,4.0301,4.0256,4.0269,4.0323,4.0336,4.0348,4.0334,4.0403,4.0416,4.0403,4.0334,4.0186,4.0146,4.0092,4.0294,4.0483,4.0389,4.0214,4.0052,3.9865,3.9693,3.9546,3.9399,3.9479,3.9611,3.9772,3.9905,3.9905,3.9757,3.9772,3.9798,3.9985,4.0092,4.0186,4.0294,4.0349,4.0309,3.565,3.5618,3.5878,3.5997,3.6029,3.6336,3.6468,3.6482,3.6553,3.6599,3.657,3.6512,3.6497,3.6541,3.6497,3.6526,3.6556,3.6599,3.6599,3.6585,3.6599,3.6599,3.6599,3.6599,3.6599,3.6599,3.6599,3.6599,3.6599,3.6599,3.6599,3.6599,3.6599,3.6599,3.6599,3.6599,3.6599,3.6599,3.6599,3.6599,3.6599,3.6629,3.6673,3.689,3.7139,3.7459,3.7793,3.8042,3.8439,3.8751,3.8854,3.9146,3.9641,3.9788,4.0241,4.087,4.128,4.1573,4.1909,4.2216,4.245,4.2684,4.2772,4.2948,4.3021,4.2948,4.305,4.3358,4.3547,4.363,4.3504,4.2991,4.2433,4.177,4.1149,4.0749,4.0391,4.0445,4.0483,4.0496,4.0496,4.0496,4.0496,4.0496,4.0496,4.0483,4.0483,4.047,4.047,4.0374,4.0348,4.0321,4.0376,4.047,4.0416,4.0334,4.0172,4.0025,3.9853,3.9733,3.9654,3.9786,3.9933,3.9904,3.997,4.0012,4.0012,3.9917,4.0012,4.0212,4.0321,4.0348,4.0374,4.0443,4.0443,3.5474,3.5533,3.5924,3.6102,3.6161,3.6453,3.6599,3.6599,3.6599,3.6599,3.6599,3.6599,3.6599,3.6599,3.6599,3.6599,3.6599,3.6599,3.6599,3.6599,3.6599,3.6599,3.6599,3.6599,3.6599,3.6599,3.6599,3.6599,3.6599,3.6599,3.6599,3.6599,3.6599,3.6599,3.6599,3.6599,3.6599,3.6599,3.6599,3.6599,3.6629,3.6731,3.6861,3.708,3.7415,3.7735,3.7954,3.8205,3.856,3.8927,3.9102,3.9439,3.9788,3.9948,4.0416,4.0959,4.1369,4.1589,4.2011,4.2289,4.2494,4.2684,4.2875,4.2948,4.2978,4.2949,4.3167,4.3458,4.3468,4.3533,4.3187,4.2704,4.2102,4.1468,4.0998,4.0577,4.0443,4.047,4.0496,4.0496,4.0496,4.0496,4.0496,4.0496,4.0496,4.0496,4.0496,4.0496,4.0496,4.0496,4.0496,4.0496,4.0496,4.0496,4.047,4.0401,4.0306,4.0161,4.004,4.0082,4.0095,4.0176,4.0241,4.0186,4.0172,4.0201,4.0174,4.0105,4.0159,4.0334,4.043,4.047,4.0496,4.0496,4.0483,3.5169,3.5272,3.5851,3.6102,3.6146,3.6453,3.6599,3.6599,3.6599,3.6599,3.6599,3.6599,3.6599,3.6599,3.6599,3.6599,3.6599,3.6599,3.6599,3.6599,3.6599,3.6599,3.6599,3.6599,3.6599,3.6599,3.6599,3.6599,3.6599,3.6599,3.6599,3.6599,3.6599,3.6599,3.6599,3.6599,3.6599,3.6599,3.6599,3.6599,3.6717,3.6919,3.7065,3.7356,3.772,3.8084,3.8205,3.8382,3.8665,3.9102,3.9467,3.9803,4.0065,4.0254,4.0694,4.1164,4.1471,4.1822,4.2216,4.2362,4.245,4.2567,4.2743,4.2847,4.2876,4.2962,4.3206,4.3244,4.3265,4.3051,4.2704,4.2342,4.174,4.1226,4.0801,4.0496,4.0496,4.0496,4.0496,4.0496,4.0496,4.0496,4.0496,4.0496,4.0496,4.0496,4.0496,4.0496,4.0496,4.0496,4.0496,4.0496,4.0496,4.0496,4.0496,4.0456,4.0388,4.0374,4.0296,4.0416,4.0483,4.0416,4.0389,4.043,4.043,4.0391,4.0389,4.0376,4.0443,4.0443,4.047,4.0496,4.0496,4.0496,4.0496,3.4955,3.5243,3.5839,3.6102,3.6146,3.6466,3.6599,3.6599,3.6599,3.6599,3.6599,3.6599,3.6599,3.6599,3.6599,3.6599,3.6599,3.6599,3.6599,3.6599,3.6599,3.6599,3.6599,3.6599,3.6599,3.6599,3.6599,3.6599,3.6599,3.6599,3.6599,3.6599,3.6599,3.6599,3.6599,3.6599,3.6599,3.6599,3.6599,3.6599,3.6714,3.6934,3.7241,3.7532,3.7867,3.8163,3.8369,3.8459,3.8854,3.9366,3.9876,4.0168,4.0358,4.0533,4.0929,4.1266,4.1559,4.1924,4.2231,4.2377,4.2435,4.2511,4.2687,4.2743,4.271,4.261,4.2718,4.2669,4.257,4.2254,4.1936,4.1725,4.1257,4.0907,4.0527,4.0496,4.0496,4.0496,4.0496,4.0496,4.0496,4.0496,4.0496,4.0496,4.0496,4.0496,4.0496,4.0496,4.0496,4.0496,4.0496,4.0496,4.0496,4.0496,4.0496,4.0496,4.047,4.0483,4.0496,4.0496,4.0496,4.0496,4.0496,4.0496,4.0496,4.0456,4.0496,4.0496,4.0496,4.047,4.0483,4.0496,4.0496,4.0496,4.0496]}]]